[[{"header":{"parameterUnit":"m.s-1","parameterCategory":1,"la1":30.6,"la2":28.766,"lo1":-90.7593,"lo2":-88.6598,"dy":0.0162,"dx":0.0183,"nx":116,"ny":114,"refTime":"2024-04-27T06:00:00:Z","depth":0,"parameterNumber":2,"parameterNumberName":"U-component_of_WINDS"},"data":[0.0,0.0,0.0,0.0,0.0,0.0,0.0,0.0,0.0,0.0,0.0,0.0,0.0,0.0,0.0,0.0,0.0,0.0,0.0,0.0,0.0,0.0,0.0,0.0,0.0,0.0,0.0,0.0,0.0,0.0,0.0,0.0,0.0,0.0,0.0,0.0,0.0,0.0,0.0,0.0,0.0,0.0,0.0,0.0,0.0,0.0,0.0,0.0,0.0,0.0,0.0,0.0,0.0,0.0,0.0,0.0,0.0,0.0,0.0,0.0,0.0,0.0,0.0,0.0,0.0,0.0,0.0,0.0,0.0,0.0,0.0,0.0,0.0,0.0,0.0,0.0,0.0,0.0,0.0,0.0,0.0,0.0,0.0,0.0,0.0,0.0,0.0,0.0,0.0,0.0,0.0,0.0,0.0,0.0,0.0,0.0,0.0,0.0,0.0,0.0,0.0,0.0,0.0,0.0,0.0,0.0,0.0,0.0,0.0,0.0,0.0,0.0,0.0,0.0,0.0,0.0,0.0,0.0,0.0,0.0,0.0,0.0,0.0,0.0,0.0,0.0,0.0,0.0,0.0,0.0,0.0,0.0,0.0,0.0,0.0,0.0,0.0,0.0,0.0,0.0,0.0,0.0,0.0,0.0,0.0,0.0,0.0,0.0,0.0,0.0,0.0,0.0,0.0,0.0,0.0,0.0,0.0,0.0,0.0,0.0,0.0,0.0,0.0,0.0,0.0,0.0,0.0,0.0,0.0,0.0,0.0,0.0,0.0,0.0,0.0,0.0,0.0,0.0,0.0,0.0,0.0,0.0,0.0,0.0,0.0,0.0,0.0,0.0,0.0,0.0,0.0,0.0,0.0,0.0,0.0,0.0,0.0,0.0,0.0,0.0,0.0,0.0,0.0,0.0,0.0,0.0,0.0,0.0,0.0,0.0,0.0,0.0,0.0,0.0,0.0,0.0,0.0,0.0,0.0,0.0,0.0,0.0,0.0,0.0,0.0,0.0,0.0,0.0,0.0,0.0,0.0,0.0,0.0,0.0,0.0,0.0,0.0,0.0,0.0,0.0,0.0,0.0,0.0,0.0,0.0,0.0,0.0,0.0,0.0,0.0,0.0,0.0,0.0,0.0,0.0,0.0,0.0,0.0,0.0,0.0,0.0,0.0,0.0,0.0,0.0,0.0,0.0,0.0,0.0,0.0,0.0,0.0,0.0,0.0,0.0,0.0,0.0,0.0,0.0,0.0,0.0,0.0,0.0,0.0,0.0,0.0,0.0,0.0,0.0,0.0,0.0,0.0,0.0,0.0,0.0,0.0,0.0,0.0,0.0,0.0,0.0,0.0,0.0,0.0,0.0,0.0,0.0,0.0,0.0,0.0,0.0,0.0,0.0,0.0,0.0,0.0,0.0,0.0,0.0,0.0,0.0,0.0,0.0,0.0,0.0,0.0,0.0,0.0,0.0,0.0,0.0,0.0,0.0,0.0,0.0,0.0,0.0,0.0,0.0,0.0,0.0,0.0,0.0,0.0,0.0,0.0,0.0,0.0,0.0,0.0,0.0,0.0,0.0,0.0,0.0,0.0,0.0,0.0,0.0,0.0,0.0,0.0,0.0,0.0,0.0,0.0,0.0,0.0,0.0,0.0,0.0,0.0,0.0,0.0,0.0,0.0,0.0,0.0,0.0,0.0,0.0,0.0,0.0,0.0,0.0,0.0,0.0,0.0,0.0,0.0,0.0,0.0,0.0,0.0,0.0,0.0,0.0,0.0,0.0,0.0,0.0,0.0,0.0,0.0,0.0,0.0,0.0,0.0,0.0,0.0,0.0,0.0,0.0,0.0,0.0,0.0,0.0,0.0,0.0,0.0,0.0,0.0,0.0,0.0,0.0,0.0,0.0,0.0,0.0,0.0,0.0,0.0,0.0,0.0,0.0,0.0,0.0,0.0,0.0,0.0,0.0,0.0,0.0,0.0,0.0,0.0,0.0,0.0,0.0,0.0,0.0,0.0,0.0,0.0,0.0,0.0,0.0,0.0,0.0,0.0,0.0,0.0,0.0,0.0,0.0,0.0,0.0,0.0,0.0,0.0,0.0,0.0,0.0,0.0,0.0,0.0,0.0,0.0,0.0,0.0,0.0,0.0,0.0,0.0,0.0,0.0,0.0,0.0,0.0,0.0,0.0,0.0,0.0,0.0,0.0,0.0,0.0,0.0,0.0,0.0,0.0,0.0,0.0,0.0,0.0,0.0,0.0,0.0,0.0,0.0,0.0,0.0,0.0,0.0,0.0,0.0,0.0,0.0,0.0,0.0,0.0,0.0,0.0,0.0,0.0,0.0,0.0,0.0,0.0,0.0,0.0,0.0,0.0,0.0,0.0,0.0,0.0,0.0,0.0,0.0,0.0,0.0,0.0,0.0,0.0,0.0,0.0,0.0,0.0,0.0,0.0,0.0,0.0,0.0,0.0,0.0,0.0,0.0,0.0,0.0,0.0,0.0,0.0,0.0,0.0,0.0,0.0,0.0,0.0,0.0,0.0,0.0,0.0,0.0,0.0,0.0,0.0,0.0,0.0,0.0,0.0,0.0,0.0,0.0,0.0,0.0,0.0,0.0,0.0,0.0,0.0,0.0,0.0,0.0,0.0,0.0,0.0,0.0,0.0,0.0,0.0,0.0,0.0,0.0,0.0,0.0,0.0,0.0,0.0,0.0,0.0,0.0,0.0,0.0,0.0,0.0,0.0,0.0,0.0,0.0,0.0,0.0,0.0,0.0,0.0,0.0,0.0,0.0,0.0,0.0,0.0,0.0,0.0,0.0,0.0,0.0,0.0,0.0,0.0,0.0,0.0,0.0,0.0,0.0,0.0,0.0,0.0,0.0,0.0,0.0,0.0,0.0,0.0,0.0,0.0,0.0,0.0,0.0,0.0,0.0,0.0,0.0,0.0,0.0,0.0,0.0,0.0,0.0,0.0,0.0,0.0,0.0,0.0,0.0,0.0,0.0,0.0,0.0,0.0,0.0,0.0,0.0,0.0,0.0,0.0,0.0,0.0,0.0,0.0,0.0,0.0,0.0,0.0,0.0,0.0,0.0,0.0,0.0,0.0,0.0,0.0,0.0,0.0,0.0,0.0,0.0,0.0,0.0,0.0,0.0,0.0,0.0,0.0,0.0,0.0,0.0,0.0,0.0,0.0,0.0,0.0,0.0,0.0,0.0,0.0,0.0,0.0,0.0,0.0,0.0,0.0,0.0,0.0,0.0,0.0,0.0,0.0,0.0,0.0,0.0,0.0,0.0,0.0,0.0,0.0,0.0,0.0,0.0,0.0,0.0,0.0,0.0,0.0,0.0,0.0,0.0,0.0,0.0,0.0,0.0,0.0,0.0,0.0,0.0,0.0,0.0,0.0,0.0,0.0,0.0,0.0,0.0,0.0,0.0,0.0,0.0,0.0,0.0,0.0,0.0,0.0,0.0,0.0,0.0,0.0,0.0,0.0,0.0,0.0,0.0,0.0,0.0,0.0,0.0,0.0,0.0,0.0,0.0,0.0,0.0,0.0,0.0,0.0,0.0,0.0,0.0,0.0,0.0,0.0,0.0,0.0,0.0,0.0,0.0,0.0,0.0,0.0,0.0,0.0,0.0,0.0,0.0,0.0,0.0,0.0,0.0,0.0,0.0,0.0,0.0,0.0,0.0,0.0,0.0,0.0,0.0,0.0,0.0,0.0,0.0,0.0,0.0,0.0,0.0,0.0,0.0,0.0,0.0,0.0,0.0,0.0,0.0,0.0,0.0,0.0,0.0,0.0,0.0,0.0,0.0,0.0,0.0,0.0,0.0,0.0,0.0,0.0,0.0,0.0,0.0,0.0,0.0,0.0,0.0,0.0,0.0,0.0,0.0,0.0,0.0,0.0,0.0,0.0,0.0,0.0,0.0,0.0,0.0,0.0,0.0,0.0,0.0,0.0,0.0,0.0,0.0,0.0,0.0,0.0,0.0,0.0,0.0,0.0,0.0,0.0,0.0,0.0,0.0,0.0,0.0,0.0,0.0,0.0,0.0,0.0,0.0,0.0,0.0,0.0,0.0,0.0,0.0,0.0,0.0,0.0,0.0,0.0,0.0,0.0,0.0,0.0,0.0,0.0,0.0,0.0,0.0,0.0,0.0,0.0,0.0,0.0,0.0,0.0,0.0,0.0,0.0,0.0,0.0,0.0,0.0,0.0,0.0,0.0,0.0,0.0,0.0,0.0,0.0,0.0,0.0,0.0,0.0,0.0,0.0,0.0,0.0,0.0,0.0,0.0,0.0,0.0,0.0,0.0,0.0,0.0,0.0,0.0,0.0,0.0,0.0,0.0,0.0,0.0,0.0,0.0,0.0,0.0,0.0,0.0,0.0,0.0,0.0,0.0,0.0,0.0,0.0,0.0,0.0,0.0,0.0,0.0,0.0,0.0,0.0,0.0,0.0,0.0,0.0,0.0,0.0,0.0,0.0,0.0,0.0,0.0,0.0,0.0,0.0,0.0,0.0,0.0,0.0,0.0,0.0,0.0,0.0,0.0,0.0,0.0,0.0,0.0,0.0,0.0,0.0,0.0,0.0,0.0,0.0,0.0,0.0,0.0,0.0,0.0,0.0,0.0,0.0,0.0,0.0,0.0,0.0,0.0,0.0,0.0,0.0,0.0,0.0,0.0,0.0,0.0,0.0,0.0,0.0,0.0,0.0,0.0,0.0,0.0,0.0,0.0,0.0,0.0,0.0,0.0,0.0,0.0,0.0,0.0,0.0,0.0,0.0,0.0,0.0,0.0,0.0,0.0,0.0,0.0,0.0,0.0,0.0,0.0,0.0,0.0,0.0,0.0,0.0,0.0,0.0,0.0,0.0,0.0,0.0,0.0,0.0,0.0,0.0,0.0,0.0,0.0,0.0,0.0,0.0,0.0,0.0,0.0,0.0,0.0,0.0,0.0,0.0,0.0,0.0,0.0,0.0,0.0,0.0,0.0,0.0,0.0,0.0,0.0,0.0,0.0,0.0,0.0,0.0,0.0,0.0,0.0,0.0,0.0,0.0,0.0,0.0,0.0,0.0,0.0,0.0,0.0,0.0,0.0,0.0,0.0,0.0,0.0,0.0,0.0,0.0,0.0,0.0,0.0,0.0,0.0,0.0,0.0,0.0,0.0,0.0,0.0,0.0,0.0,0.0,0.0,0.0,0.0,0.0,0.0,0.0,0.0,0.0,0.0,0.0,0.0,0.0,0.0,0.0,0.0,0.0,0.0,0.0,0.0,0.0,0.0,0.0,0.0,0.0,0.0,0.0,0.0,0.0,0.0,0.0,0.0,0.0,0.0,0.0,0.0,0.0,0.0,0.0,0.0,0.0,0.0,0.0,0.0,0.0,0.0,0.0,0.0,0.0,0.0,0.0,0.0,0.0,0.0,0.0,0.0,0.0,0.0,0.0,0.0,0.0,0.0,0.0,0.0,0.0,0.0,0.0,0.0,0.0,0.0,0.0,0.0,0.0,0.0,0.0,0.0,0.0,0.0,0.0,0.0,0.0,0.0,0.0,0.0,0.0,0.0,0.0,0.0,0.0,0.0,0.0,0.0,0.0,0.0,0.0,0.0,0.0,0.0,0.0,0.0,0.0,0.0,0.0,0.0,0.0,0.0,0.0,0.0,0.0,0.0,0.0,0.0,0.0,0.0,0.0,0.0,0.0,0.0,0.0,0.0,0.0,0.0,0.0,0.0,0.0,0.0,0.0,0.0,0.0,0.0,0.0,0.0,0.0,0.0,0.0,0.0,0.0,0.0,0.0,0.0,0.0,0.0,0.0,0.0,0.0,0.0,0.0,0.0,0.0,0.0,0.0,0.0,0.0,0.0,0.0,0.0,0.0,0.0,0.0,0.0,0.0,0.0,0.0,0.0,0.0,0.0,0.0,0.0,0.0,0.0,0.0,0.0,0.0,0.0,0.0,0.0,0.0,0.0,0.0,0.0,0.0,0.0,0.0,0.0,0.0,0.0,0.0,0.0,0.0,0.0,0.0,0.0,0.0,0.0,0.0,0.0,0.0,0.0,0.0,0.0,0.0,0.0,0.0,0.0,0.0,0.0,0.0,0.0,0.0,-3.7049,0.0,0.0,0.0,0.0,0.0,0.0,0.0,0.0,0.0,0.0,0.0,0.0,0.0,0.0,0.0,0.0,0.0,0.0,0.0,0.0,0.0,0.0,0.0,0.0,-4.3664,-4.4202,-4.6157,-4.4654,-4.3805,-4.409,-4.4249,0.0,0.0,0.0,0.0,-4.681,-4.7078,-4.7482,-4.8101,-4.9053,-4.8004,-4.5028,-4.289,-3.9495,-3.5332,0.0,0.0,0.0,0.0,0.0,0.0,0.0,0.0,0.0,0.0,0.0,0.0,0.0,0.0,0.0,0.0,0.0,0.0,0.0,0.0,0.0,0.0,0.0,0.0,0.0,0.0,0.0,0.0,0.0,0.0,0.0,0.0,0.0,0.0,0.0,0.0,0.0,0.0,0.0,0.0,0.0,0.0,0.0,0.0,0.0,0.0,0.0,0.0,0.0,0.0,0.0,0.0,0.0,0.0,0.0,0.0,0.0,0.0,0.0,0.0,0.0,0.0,0.0,0.0,0.0,0.0,0.0,0.0,0.0,0.0,0.0,-4.0598,0.0,0.0,0.0,0.0,0.0,0.0,0.0,0.0,0.0,0.0,0.0,0.0,0.0,0.0,0.0,0.0,0.0,0.0,0.0,0.0,0.0,-4.1736,-4.4801,-4.4343,-4.4695,-4.685,-4.5497,-4.484,-4.5604,-4.5444,-4.5527,-4.5787,-4.5821,-4.619,-4.7112,-4.7399,-4.7943,-4.886,-4.9481,-4.8806,-4.6862,-4.5919,-4.2631,-3.7559,-3.8069,0.0,0.0,0.0,0.0,0.0,0.0,0.0,0.0,0.0,0.0,0.0,0.0,0.0,0.0,0.0,0.0,0.0,0.0,0.0,0.0,0.0,0.0,0.0,0.0,0.0,0.0,0.0,0.0,0.0,0.0,0.0,0.0,0.0,0.0,0.0,0.0,0.0,0.0,0.0,0.0,0.0,0.0,0.0,0.0,0.0,0.0,0.0,0.0,0.0,0.0,0.0,0.0,0.0,0.0,0.0,0.0,0.0,0.0,0.0,0.0,0.0,0.0,0.0,-5.0672,-5.1634,-5.2499,-5.2499,-5.2644,-5.2788,-5.0576,-4.793,-4.5029,0.0,0.0,0.0,0.0,0.0,0.0,0.0,0.0,0.0,0.0,0.0,0.0,0.0,0.0,0.0,0.0,0.0,0.0,0.0,0.0,-4.449,-4.5269,-4.6135,-4.6917,-4.7571,-4.4827,-4.35,-4.4514,-4.3791,-4.3891,-4.5297,-4.6096,-4.7275,-4.8724,-4.884,-4.8534,-4.7909,-4.8835,-4.887,-4.8005,-4.9839,-4.8243,-4.3672,-4.0128,-3.9284,-4.0273,0.0,0.0,0.0,0.0,0.0,0.0,0.0,0.0,0.0,0.0,0.0,0.0,0.0,0.0,0.0,0.0,0.0,0.0,0.0,0.0,0.0,0.0,0.0,0.0,0.0,0.0,0.0,0.0,0.0,0.0,0.0,0.0,0.0,0.0,0.0,0.0,0.0,0.0,0.0,0.0,0.0,-4.0715,-4.176,0.0,0.0,0.0,0.0,0.0,0.0,0.0,0.0,0.0,0.0,0.0,0.0,0.0,-4.8964,-5.1898,-5.3894,-5.4977,-5.5217,-5.8055,-5.9474,-5.9618,-5.9618,-6.0364,-6.1662,-6.1301,0.0,-4.8363,-4.7305,0.0,0.0,0.0,0.0,0.0,0.0,0.0,0.0,0.0,0.0,0.0,0.0,0.0,0.0,0.0,0.0,0.0,0.0,0.0,0.0,0.0,-4.8662,-4.9432,-4.8685,-4.8265,-4.7611,-4.6483,-4.62,-4.6433,-4.7367,-4.781,-4.8363,-4.906,-4.8708,-4.9099,-5.0152,-5.0647,-5.1082,-5.157,-5.0563,-4.9311,-4.7773,-4.4414,-4.2539,-4.1719,-3.9297,0.0,0.0,0.0,0.0,0.0,0.0,0.0,0.0,0.0,0.0,0.0,0.0,0.0,0.0,0.0,0.0,0.0,0.0,0.0,0.0,0.0,0.0,0.0,0.0,0.0,0.0,0.0,0.0,0.0,0.0,0.0,0.0,0.0,0.0,0.0,0.0,0.0,0.0,0.0,-4.3072,-4.49,-4.4178,-4.4275,-4.3697,0.0,0.0,0.0,0.0,0.0,0.0,0.0,0.0,0.0,-5.3077,-5.3485,-5.5025,-5.7991,-5.9185,-6.0243,-6.1133,-6.2528,-6.3827,-6.4981,-6.4668,-6.5077,-6.6015,-6.5702,-6.2841,-5.8151,-5.4712,-5.1393,-4.831,0.0,0.0,0.0,0.0,-4.6655,-4.6535,0.0,0.0,0.0,0.0,0.0,0.0,0.0,0.0,0.0,0.0,0.0,0.0,-4.742,-4.9746,-5.0684,-4.9745,-5.076,-5.0636,-4.8726,-4.8097,-4.8178,-4.9132,-4.9022,-4.9133,-4.9686,-4.9474,-5.0742,-5.3406,-5.3335,-5.3799,-5.4701,-5.2218,-5.102,-5.0898,-4.8965,-4.6738,-4.4238,-4.1758,-3.9648,-3.7832,0.0,0.0,0.0,0.0,0.0,0.0,0.0,0.0,0.0,0.0,0.0,0.0,0.0,0.0,0.0,0.0,0.0,0.0,0.0,0.0,0.0,0.0,0.0,0.0,0.0,0.0,0.0,0.0,0.0,0.0,0.0,0.0,0.0,0.0,0.0,0.0,0.0,-4.6511,-4.8483,-4.6752,-4.8555,-4.8459,0.0,0.0,0.0,0.0,0.0,0.0,-5.1417,-5.3317,-5.5842,-5.9137,-5.9618,-6.1109,-6.3754,-6.4187,-6.5125,-6.6544,-6.6688,-6.765,-6.931,-6.8877,-6.8997,-6.9478,-6.8661,-6.7867,-6.6688,-6.0965,-5.6828,-5.387,-5.1586,-5.0215,-4.9758,-5.1754,-5.1658,-5.096,0.0,0.0,0.0,0.0,0.0,0.0,0.0,0.0,0.0,0.0,0.0,-4.3142,-4.5823,-4.7958,-4.9592,-5.0589,-4.9955,-4.9699,-5.0127,-4.7419,-4.6778,-4.9169,-4.8662,-4.9277,-5.1321,-5.2436,-5.4292,-5.6971,-5.6465,-5.625,-5.6417,-5.6577,-5.5405,-5.3183,-5.3066,-5.1816,-4.9414,-4.3594,-4.1289,-4.1289,-3.834,0.0,0.0,0.0,0.0,0.0,0.0,0.0,0.0,0.0,0.0,0.0,0.0,0.0,0.0,0.0,0.0,0.0,0.0,0.0,0.0,0.0,0.0,0.0,0.0,0.0,0.0,0.0,0.0,0.0,0.0,0.0,0.0,0.0,0.0,0.0,0.0,0.0,0.0,-5.0503,-5.4039,0.0,0.0,0.0,0.0,-4.9589,-5.3389,-5.6419,-5.8031,-6.0604,-6.3033,-6.5197,-6.5294,-6.6592,-6.9262,-6.931,-6.9887,-7.0945,-7.145,-7.2003,-7.2581,-7.2557,-7.2845,-7.3278,-7.1739,-7.1041,-7.0464,-6.361,-6.0099,-5.8776,-5.6107,-5.5049,-5.5025,-5.5145,-5.5794,-5.654,0.0,0.0,0.0,0.0,0.0,-3.45,-3.5839,-3.6729,-3.8061,-3.9953,-4.1986,-4.4292,-4.7149,-5.0865,-5.2732,-5.1698,-5.2898,-5.3546,-5.2975,-5.057,-5.0797,-5.4571,-5.2252,-5.1725,-5.3382,-5.4894,-5.6714,-5.8978,-5.9272,-6.0027,-6.1265,-5.8704,-5.7431,-5.7086,-5.5152,-5.3789,-5.2773,-4.8105,-4.5254,-4.3594,-4.0293,-3.8066,0.0,0.0,0.0,0.0,0.0,0.0,0.0,0.0,0.0,0.0,0.0,0.0,0.0,0.0,0.0,0.0,0.0,0.0,0.0,0.0,0.0,0.0,0.0,0.0,0.0,0.0,0.0,0.0,0.0,0.0,0.0,0.0,0.0,0.0,0.0,0.0,0.0,-5.6828,-6.0532,0.0,-5.6828,-5.7261,-5.8031,-5.8512,-6.058,-6.2817,-6.5101,-6.6448,-6.8276,-7.0729,-7.0464,-7.1065,-7.2725,-7.2412,-7.2436,-7.2797,-7.2629,-7.3013,-7.3855,-7.3494,-7.3254,-7.3062,-7.2172,-7.1595,-7.1041,-6.7867,-6.5534,-6.3875,-6.2913,-6.1518,-6.0051,-6.0388,-6.0099,-5.9522,0.0,0.0,0.0,0.0,0.0,-3.4235,-3.4546,-3.5687,-3.7271,-3.9301,-4.2379,-4.5446,-4.8297,-5.2557,-5.4689,-5.3664,-5.5296,-5.5959,-5.4952,-5.2863,-5.2944,-5.5891,-5.4307,-5.4181,-5.5812,-5.801,-6.0071,-6.1929,-6.2203,-6.251,-6.2719,-5.9506,-5.7822,-5.7391,-5.5602,-5.4883,-5.4707,-5.1973,-4.8984,-4.584,-4.2988,-4.1484,-4.072,0.0,0.0,0.0,0.0,0.0,0.0,0.0,0.0,0.0,0.0,0.0,0.0,0.0,0.0,0.0,0.0,0.0,0.0,0.0,0.0,0.0,0.0,0.0,0.0,0.0,0.0,0.0,0.0,0.0,0.0,0.0,0.0,0.0,0.0,-5.7718,-6.171,-6.2239,-6.5895,-6.6905,-6.3177,-6.349,-6.4284,-6.5149,-6.6352,-6.8059,-7.0392,-7.0993,-7.21,-7.3855,-7.3543,-7.3615,-7.4168,-7.3999,-7.3831,-7.3639,-7.3446,-7.3639,-7.4168,-7.4168,-7.3687,-7.2797,-7.246,-7.1907,-7.1186,-7.0128,-6.8853,-6.753,-6.7194,-6.5654,-6.3682,-6.4019,-6.3129,-6.1686,0.0,0.0,0.0,0.0,0.0,-3.4152,-3.4132,-3.5252,-3.6874,-3.9084,-4.2864,-4.6344,-4.8987,-5.2486,-5.5137,-5.6444,-5.6449,-5.6319,-5.596,-5.3816,-5.2583,-5.2476,-5.4442,-5.6564,-5.8728,-6.1831,-6.4211,-6.5799,-6.5276,-6.353,-6.0548,-5.9296,-5.7067,-5.4243,-5.498,-5.5371,-5.5332,-5.4922,-5.2324,-4.832,-4.6523,-4.5781,-4.5332,0.0,0.0,0.0,0.0,0.0,0.0,0.0,0.0,0.0,0.0,0.0,0.0,0.0,0.0,0.0,0.0,0.0,0.0,0.0,0.0,0.0,0.0,0.0,0.0,0.0,0.0,0.0,0.0,0.0,0.0,0.0,0.0,0.0,-5.7742,-6.1638,-6.4909,-6.6496,-6.9983,-7.0416,-6.5751,-6.7194,-6.8636,-6.9142,-7.056,-7.21,-7.3663,-7.4216,-7.448,-7.448,-7.448,-7.424,-7.3711,-7.4216,-7.4192,-7.3687,-7.4216,-7.4192,-7.3735,-7.4769,-7.436,-7.2821,-7.2821,-7.222,-7.1162,-7.0128,-6.9695,-6.9574,-6.8516,-6.7145,-6.5751,-6.5702,-6.4668,-6.3081,0.0,0.0,0.0,-3.4194,-3.4401,-3.4526,-3.4173,-3.5521,-3.7029,-3.8347,-4.231,-4.586,-4.8222,-5.1877,-5.4904,-5.6726,-5.6148,-5.6105,-5.7091,-5.3229,-5.1433,-5.2782,-5.7102,-6.0436,-6.2552,-6.4596,-6.6424,-6.8035,-6.7488,-6.6353,-6.464,-6.2004,-5.9849,-5.8248,-5.717,-5.668,-5.666,-5.625,-5.5547,-5.4375,-5.0156,-4.8086,-4.7237,0.0,0.0,0.0,0.0,0.0,0.0,0.0,0.0,0.0,0.0,0.0,0.0,0.0,0.0,0.0,0.0,0.0,0.0,0.0,0.0,0.0,0.0,0.0,0.0,0.0,0.0,0.0,0.0,0.0,0.0,0.0,-5.7886,-6.1181,-6.1253,-6.5582,-6.931,-7.0873,-7.436,-7.5827,-7.3735,-7.4408,-7.5034,-7.5178,-7.4889,-7.5058,-7.5899,-7.5707,-7.5587,-7.5587,-7.5587,-7.5322,-7.4793,-7.4937,-7.4745,-7.4216,-7.4745,-7.4937,-7.4817,-7.5491,-7.4697,-7.2821,-7.2821,-7.2003,-7.0657,-6.9959,-6.9478,-6.9045,-6.8372,-6.7602,-6.6713,-6.5558,-6.3899,-6.2095,0.0,0.0,0.0,-3.4693,-3.4859,-3.4817,-3.4235,-3.5625,-3.7221,-3.8262,-4.3043,-4.6987,-4.8466,-5.304,-5.6116,-5.6304,-5.6466,-5.6168,-5.5377,-5.2,-5.1028,-5.3033,-5.7794,-6.1558,-6.3965,-6.6103,-6.7963,-6.9574,-6.9262,-6.8075,-6.6179,-6.4703,-6.2893,-6.0941,-5.9328,-5.8773,-5.8826,-5.7639,-5.7265,-5.7226,-5.4219,-5.2715,-5.1953,-4.9171,-4.8709,-4.9332,-4.8413,-4.8365,-4.8549,-4.6774,0.0,0.0,0.0,0.0,0.0,0.0,0.0,0.0,0.0,0.0,0.0,0.0,0.0,0.0,0.0,0.0,0.0,0.0,0.0,0.0,0.0,0.0,0.0,0.0,-6.2672,-6.6376,-6.741,-7.02,-7.2965,-7.5202,-7.7198,-7.8208,-7.7823,-7.7679,-7.7583,-7.7583,-7.703,-7.6717,-7.6789,-7.6717,-7.6573,-7.6356,-7.6356,-7.6092,-7.5563,-7.5106,-7.4745,-7.4432,-7.4745,-7.4889,-7.4913,-7.5202,-7.4312,0.0,-7.2484,-7.1354,-6.9478,-6.9406,-6.8781,0.0,0.0,0.0,0.0,0.0,-6.3346,-6.1975,0.0,0.0,-3.5169,-3.5314,-3.5314,-3.5004,-3.4196,-3.5625,-3.7207,-3.8293,-4.4018,-4.8164,-4.8646,-5.3999,-5.6855,-5.5163,-5.6354,-5.5699,-5.1944,-5.0694,-5.1011,-5.3228,-5.7716,-6.1395,-6.4068,-6.7079,-6.931,-7.0657,-7.0609,-6.9097,-6.6209,-6.6992,-6.5672,-6.2792,-6.1808,-6.1534,-6.1696,-5.9427,-5.8505,-5.8485,-5.8117,-5.791,-5.7305,-5.3418,-5.3866,-5.6218,-5.3985,-5.2168,-5.1183,-5.2927,0.0,0.0,0.0,0.0,0.0,0.0,0.0,0.0,0.0,0.0,0.0,0.0,0.0,0.0,0.0,0.0,0.0,0.0,0.0,0.0,0.0,0.0,0.0,0.0,-6.7194,-7.1306,-7.436,-7.4889,-7.5971,-7.8689,-7.8785,-7.8761,-7.9074,-7.828,-7.7775,-7.7775,-7.7655,-7.7414,-7.7006,0.0,0.0,0.0,0.0,-7.6452,-7.5923,-7.4985,-7.448,-7.4432,-7.4432,-7.4432,-7.4432,-7.4384,-7.3518,-7.2051,-7.2003,-7.0609,-6.8396,-6.8709,-6.7819,-6.6352,-6.6833,-6.6664,-6.5895,-6.3899,-6.2889,0.0,0.0,-3.3741,-3.3596,-3.4693,-3.4569,-3.4279,-3.4152,-3.5625,-3.6776,-3.675,-4.0967,-4.4321,-4.5277,-4.8025,-5.0793,-5.3437,-5.2556,-5.1345,-5.0094,-4.98,-5.0818,-5.3579,-5.9755,-6.4032,-6.5843,-6.9851,-7.1859,-7.1763,-7.133,-7.0188,-6.8259,-6.7536,-6.6113,-6.428,-6.4864,-6.5129,-6.5131,-6.3158,-6.2337,-6.2116,-5.9822,-5.8086,-5.6699,-5.5508,-5.5925,-5.7003,-5.547,-5.7539,-6.045,-5.7042,-5.7062,-5.7686,-5.3726,-5.1063,0.0,0.0,0.0,0.0,0.0,0.0,0.0,0.0,0.0,0.0,0.0,0.0,0.0,0.0,0.0,0.0,0.0,0.0,0.0,-6.6977,-7.0969,-7.4336,-7.6645,-7.7727,-7.8136,-7.7919,-7.9314,-7.9867,-7.8617,-7.8713,-7.8857,-7.8857,-7.8064,-7.7727,-7.8064,-7.7366,-7.6909,-7.6789,-7.638,-7.5899,-7.537,-7.5178,-7.4865,-7.4432,0.0,0.0,-7.4432,-7.3999,-7.3158,-7.2027,-7.1619,-7.0897,-6.9935,-6.8757,-6.7073,-6.5221,-6.5342,-6.4789,-6.3803,-6.2552,-6.2023,-6.1855,0.0,-3.3244,-3.3617,-3.436,-3.4463,-3.4318,-3.3782,-3.5086,-3.6033,-3.5905,-3.9192,-4.1835,-4.2923,-4.5835,-4.7926,-4.8376,-4.7345,-4.764,-4.9922,-5.0793,-5.3093,-5.7283,-6.3057,-6.6846,-6.8261,-7.1508,-7.323,-7.3254,-7.2725,-7.1906,-7.0839,-7.0839,-6.9944,-6.8432,-6.8544,-6.8443,-6.8028,-6.6256,-6.5555,-6.5466,-6.4527,-6.31,-6.1413,-5.8565,-5.8332,-5.9407,-5.9794,-6.1336,-6.3042,-6.1603,-6.1106,-6.0558,-5.7431,-5.5613,-5.4087,0.0,0.0,0.0,0.0,0.0,0.0,0.0,0.0,0.0,0.0,0.0,0.0,0.0,0.0,-5.743,-6.0075,0.0,-6.7771,-7.0416,-7.3759,-7.638,-7.7438,-7.8521,-7.9002,-7.8449,-7.9555,-8.0084,-7.929,-7.917,-7.917,-7.917,-7.8689,-7.8376,-7.8376,-7.8136,-7.7751,-7.7222,-7.6933,-7.6549,-7.602,-7.5491,-7.5082,-7.4817,-7.4553,-7.4577,-7.4793,-7.3711,-7.3086,-7.2797,-7.1739,-7.0969,-7.032,-6.818,-6.6352,-6.4861,-6.4332,-6.3803,-6.3274,-6.2768,-6.2239,-6.1686,0.0,-3.2975,-3.3699,-3.3803,-3.4256,-3.4297,-3.3492,-3.4548,-3.5314,-3.5145,-3.7746,-3.9809,-4.0506,-4.3795,-4.5107,-4.3036,-4.3141,-4.5492,-5.0374,-5.2021,-5.5293,-6.1217,-6.5008,-6.8077,-7.0167,-7.1599,-7.2924,-7.4432,-7.3458,-7.298,-7.2989,-7.3879,-7.3543,-7.2268,-7.1821,-7.1376,-7.0924,-6.9232,-6.8435,-6.8413,-6.8745,-6.8021,-6.6364,-6.2124,-6.1387,-6.274,-6.4138,-6.392,-6.3267,-6.4974,-6.3528,-6.0826,-6.0167,-5.9762,-5.8704,-5.4544,-5.4303,0.0,0.0,0.0,0.0,0.0,0.0,0.0,0.0,-5.0891,-5.3897,-5.5857,-5.9489,-6.3249,-6.6232,-6.9574,-7.2268,-7.3398,-7.602,-7.7847,-7.7751,-7.8545,-7.9098,-7.8857,-7.9531,-7.994,-7.9843,-7.9411,-7.917,-7.917,-7.917,-7.893,-7.8376,-7.8689,-7.8449,-7.7463,-7.7342,-7.7078,-7.6645,-7.5803,-7.537,-7.537,-7.4745,-7.4649,-7.501,-7.3398,-7.2845,-7.311,-7.1715,-7.0705,-6.9863,-6.7699,-6.6063,-6.4837,-6.3971,-6.3514,-6.3322,-6.3105,-6.2528,-6.1662,0.0,-3.238,-3.2395,-3.2809,-3.3244,-3.3492,-3.3389,-3.4548,-3.4964,-3.3861,-3.6099,-3.757,-3.6971,-3.8355,-3.9717,-4.0512,-4.3081,-4.6498,-5.0878,-5.1852,-5.5213,-6.2044,-6.2463,-6.5023,-7.0061,-6.8341,-6.9677,-7.4432,-7.2196,-7.2021,-7.3543,-7.3687,-7.3374,-7.2773,-7.3593,-7.3968,-7.3864,-7.2404,-7.1679,-7.1182,-6.9075,-6.7737,-6.6688,-6.5671,-6.6032,-6.6894,-6.5779,-6.5055,-6.4654,-6.4895,-6.408,-6.3248,-6.4482,-6.3947,-6.2432,-6.0484,-5.7766,-5.488,-5.2475,-5.0624,-5.007,-5.2976,-5.1939,-5.234,0.0,-6.1275,-6.1273,-6.5556,-6.8421,-7.0152,-7.0584,-7.2532,-7.4577,-7.6092,-7.7823,-7.8833,-7.8376,-7.8785,-7.8833,-7.7871,-7.9074,-7.9795,-7.9314,-7.9281,-7.917,-7.917,-7.917,-7.893,-7.8376,-7.7992,-7.7487,-7.6909,-7.6428,-7.6164,-7.6092,-7.5971,-7.5923,-7.5899,-7.4913,-7.4456,-7.448,-7.2869,-7.1931,-7.1498,-7.0849,-6.9743,-6.8372,-6.8059,-6.6737,-6.4909,-6.4789,-6.4163,-6.3225,-6.2312,-6.1903,-6.171,0.0,-3.1961,-3.1712,-3.1919,-3.2954,-3.3699,-3.341,-3.4093,-3.4529,-3.4305,-3.4985,-3.56,-3.5738,-3.6269,-3.7167,-3.8514,-4.0767,-4.4995,-5.1783,-5.461,-5.9104,-6.5945,-6.7839,-6.9069,-6.973,-7.0644,-7.1727,-7.2923,-7.324,-7.3636,-7.412,-7.4745,-7.4408,-7.335,-7.4745,-7.5178,-7.4833,-7.4574,-7.4443,-7.4148,-7.3438,-7.2442,-7.1039,-6.9952,-6.8489,-6.6834,-6.5201,-6.4904,0.0,-6.4308,-6.3899,-6.3971,-6.4933,-6.438,-6.3081,-6.1831,-5.9666,-5.7261,-5.5145,-5.4832,-5.5385,-5.6612,-5.7782,-5.956,-6.2979,-6.4503,-6.5778,-6.7873,-7.0893,-7.3302,-7.3927,-7.5755,-7.7198,-7.7246,-7.8064,-7.8521,-7.7992,-7.7847,-7.739,-7.6332,-7.7342,-7.8425,-7.9098,-7.8857,-7.8978,-7.9627,-7.9338,-7.9074,-7.8857,-7.8304,-7.7799,-7.727,-7.6741,-7.6332,-7.602,-7.602,-7.5707,-7.5082,-7.4649,-7.4096,-7.347,-7.2484,-7.1595,-7.0801,-7.0584,-6.9574,-6.8083,-6.7771,-6.6544,-6.4909,-6.4909,-6.4452,-6.3682,-6.2648,-6.2071,-6.1686,0.0,-3.1609,-3.1381,-3.1381,-3.2768,-3.3679,-3.3099,-3.3492,-3.3948,-3.4176,-3.401,-3.4134,-3.4776,-3.4962,-3.55,-3.6639,-3.8661,-4.3245,-5.1266,-5.4848,-6.0014,-6.7461,-6.9467,-7.0233,-6.9948,-7.1285,-7.1938,-7.1606,-7.3393,-7.3628,-7.2477,-7.4713,-7.4695,-7.2734,-7.4815,-7.5587,-7.525,-7.5466,-7.5659,-7.5779,-7.5731,-7.4745,-7.3158,-7.1402,-6.8516,-6.5207,-6.3455,-6.2858,-6.272,-6.171,-6.1638,-6.2167,-6.3418,-6.3418,-6.2768,-6.2023,-6.0243,-5.8127,-5.6275,-5.7333,-5.9065,-5.957,-6.2552,-6.5311,-6.5282,-6.7484,-6.9735,-7.0165,-7.2947,-7.5491,-7.6116,-7.7727,-7.8617,-7.7727,-7.828,-7.8473,-7.7511,-7.6909,-7.6068,-7.4721,-7.4841,-7.5731,-7.7463,-7.7823,-7.8376,-7.9459,-7.917,-7.8857,-7.8761,-7.8376,-7.7847,-7.7174,-7.6789,-7.6404,-7.602,-7.602,-7.5563,-7.4649,-7.4504,-7.4024,-7.323,-7.2436,-7.157,-7.0705,-7.0536,-6.9671,-6.83,-6.7891,-6.6616,-6.4933,-6.5077,-6.4548,-6.361,-6.2865,-6.2336,-6.1855,0.0,0.0,-3.1381,-3.1381,-3.2499,-3.3099,-3.2153,-3.283,-3.3244,-3.2851,-3.3141,-3.341,-3.343,-3.3844,-3.436,-3.4857,-3.7294,-4.1636,-4.8185,-5.0192,-5.5313,-6.4655,-6.3335,-6.5144,-7.1083,-6.7911,-6.7736,-7.097,-7.1475,-7.033,-6.7779,-7.278,-7.3473,-7.0446,-7.3778,-7.525,-7.5202,-7.4697,-7.4793,-7.5106,-7.3567,-7.2003,-7.0368,-6.8228,-6.5462,-6.2504,-6.0856,-5.8367,-5.5794,-5.6275,-5.6468,-5.7021,-6.0099,-6.1446,-6.1831,-6.1807,-5.9209,-5.6083,-5.4952,-5.6227,-5.8608,-6.1686,-6.4476,-6.7266,-7.0392,-7.2239,-7.368,-7.4761,-7.638,-7.7342,-7.6861,-7.7679,-7.8208,-7.7679,-7.8905,-7.9218,-7.7126,-7.6356,-7.525,-7.3134,-7.157,-7.1498,0.0,-7.5659,-7.7294,-7.8376,-7.8376,-7.816,-7.7679,-7.7631,-7.7126,-7.6092,-7.6044,-7.602,-7.602,-7.602,-7.5731,-7.5202,-7.4673,-7.4408,-7.4336,-7.2773,-7.1763,-7.121,-7.0705,-6.9863,-6.8877,-6.8877,-6.729,-6.4957,-6.5486,-6.4428,-6.2624,-6.26,-6.2576,-6.2336,0.0,0.0,0.0,0.0,0.0,-3.2499,-3.2442,-3.3513,-3.4194,-3.3679,-3.3223,0.0,0.0,0.0,0.0,0.0,-3.5742,-3.9323,-4.5823,-4.9796,-5.4629,-6.0749,-6.3915,-6.562,-6.5879,-6.7505,-6.855,-6.8823,-6.9753,-7.0252,-7.0517,-7.1484,-7.2137,-7.2479,-7.3689,-7.4384,-7.4649,-7.3735,-7.3062,-7.2484,-7.1258,-7.0416,-6.9647,-6.6785,-6.373,-6.0628,0.0,-5.6083,-5.4736,-5.3894,-5.3846,-5.4496,-5.6612,-5.6925,-5.6444,-5.6107,-5.6852,-5.779,-5.779,-6.0099,-6.3298,-6.6496,-6.8997,-7.1258,-7.3398,-7.4577,-7.5226,-7.5226,-7.5082,-7.4793,-7.4264,-7.4745,-7.5418,-7.5923,-7.7054,-7.7751,-7.7366,-7.7174,-7.5611,-7.1739,-7.2051,-7.2027,-7.0633,0.0,0.0,-7.816,-7.8064,-7.7919,-7.8112,-7.7775,-7.727,-7.6549,-7.6188,-7.602,-7.602,-7.5659,-7.5226,-7.4697,-7.3446,-7.2677,-7.2292,-7.1426,-7.0729,-7.02,-6.9671,-6.9238,-6.8853,-6.8131,-6.6881,-6.5486,-6.6015,-6.5149,-6.3562,-6.3225,-6.2865,-6.236,0.0,0.0,0.0,0.0,0.0,0.0,0.0,0.0,0.0,0.0,0.0,0.0,0.0,0.0,0.0,0.0,0.0,-3.7023,-4.2457,-4.6753,-5.1018,-5.5393,-6.0159,-6.2129,-6.071,-6.3801,-6.4974,-6.409,-6.5391,-6.6239,-6.6801,-6.7692,-6.8356,-6.8637,-7.0052,-7.0899,-7.1302,-6.9856,-6.9372,-6.9382,-6.7169,-6.5943,-6.5125,-6.2095,-5.9209,0.0,-5.4231,-5.2956,-5.2259,-5.1634,-5.1778,-5.2427,-5.363,-5.3918,-5.3798,-5.3654,-5.6107,-5.9233,-6.0917,-6.3947,-6.7386,-7.0584,-7.2677,-7.4264,-7.5515,-7.5755,-7.5418,-7.4312,-7.311,-7.1883,-7.0753,-7.0681,-7.1354,-7.2989,-7.4288,-7.5563,-7.6837,-7.6549,-7.4961,-7.1691,-7.1859,-7.157,-6.9911,-7.109,0.0,-7.6982,-7.7102,-7.7342,-7.8064,-7.7607,-7.715,-7.6813,-7.6284,-7.602,-7.602,-7.5683,-7.5154,-7.4408,-7.3013,-7.2051,-7.1522,-7.0993,-7.0681,-7.0488,-6.9791,-6.9358,-6.9117,-6.8228,-6.7001,-6.5751,-6.628,-6.5534,-6.4067,-6.3538,-6.2889,-6.2095,0.0,0.0,0.0,0.0,0.0,0.0,0.0,0.0,0.0,0.0,0.0,0.0,0.0,0.0,0.0,0.0,0.0,0.0,-3.8323,-4.1388,-4.4844,-4.892,-5.2535,-5.4904,-5.5938,-5.7045,-5.7467,-5.7247,-5.8778,-5.8684,-5.712,-6.1854,-6.238,-5.9644,-6.3281,-6.5187,-6.5534,-6.3521,-6.3874,-6.5582,-6.1494,-5.8945,-5.7333,-5.476,-5.2475,-5.06,-5.0143,-4.9229,-4.8411,-4.9445,-5.0215,-5.084,-5.1417,-5.2692,-5.4063,-5.4736,-5.7165,-6.046,-6.4211,-6.753,-7.0681,-7.3807,-7.5322,-7.6164,-7.6621,-7.5875,-7.448,-7.2268,-7.0488,-6.8661,-6.6448,-6.5775,-6.6424,-6.9093,-7.1017,-7.311,-7.5755,-7.4889,-7.3711,-7.2989,-7.121,-7.0392,-7.1234,-7.0897,0.0,-7.4961,0.0,-7.6404,-7.7463,-7.7054,-7.6765,-7.6717,-7.626,-7.602,-7.602,-7.5947,-7.5394,-7.4336,-7.3278,-7.2508,-7.2003,-7.1474,-7.1498,-7.1907,-7.0897,-7.0152,-6.9647,-6.9093,-6.7626,-6.5799,-6.6256,-6.5486,-6.4019,-6.349,-6.2648,-6.1614,0.0,0.0,0.0,0.0,0.0,0.0,0.0,0.0,0.0,0.0,0.0,0.0,0.0,0.0,0.0,0.0,0.0,0.0,-3.6529,-3.973,-4.2486,-4.483,-4.9649,-5.2235,-5.2115,-5.3894,-5.4956,-5.5312,-5.4476,-5.4875,-5.6454,-5.6413,-5.7274,-5.8812,-5.9456,-6.002,-6.0424,-5.9093,-5.8413,-5.8055,-5.6179,-5.5193,-5.4712,-5.3654,-5.1946,-5.0263,-5.1297,-4.995,-4.781,-4.8459,-4.9854,-5.1513,-5.2812,-5.4327,-5.6107,-5.8608,-6.1037,-6.3899,-6.842,-7.1402,-7.3807,-7.6188,-7.6693,-7.6428,-7.5779,-7.448,-7.2484,-6.919,-6.6304,-6.349,-6.0556,-6.1855,-6.4235,-6.6881,-7.0969,-7.4745,-7.739,-7.8136,-7.7294,-7.436,-7.4601,-7.4168,-7.2076,-7.246,-7.3326,0.0,-7.4769,-7.5298,-7.6356,-7.6669,-7.6428,-7.5659,-7.5875,-7.602,-7.602,-7.5226,-7.4288,-7.323,-7.2557,-7.1979,-7.145,-7.0921,-7.0753,-7.0849,-7.0176,-6.9815,-6.9622,-6.8709,-6.7506,-6.6256,-6.6015,-6.4933,-6.3466,-6.2961,-6.2095,-6.1085,0.0,0.0,0.0,0.0,0.0,0.0,0.0,0.0,0.0,0.0,0.0,0.0,0.0,0.0,0.0,0.0,0.0,0.0,0.0,-3.7243,-3.9321,-4.0837,-4.4484,-4.6793,-4.7209,-4.8363,-4.9565,-5.0792,-4.8991,-4.9711,-5.269,-5.1631,-5.1633,-5.2704,-5.3647,-5.3697,-5.313,-5.3249,-5.3118,0.0,0.0,-5.0532,-4.9652,-4.8991,-4.7929,-4.7055,-4.8141,-4.8579,-4.8868,-5.1056,-5.2403,-5.3654,-5.6155,-5.8055,-5.9979,-6.3177,-6.5775,-6.8492,-7.2581,-7.5082,-7.6909,-7.8593,-7.7895,-7.6284,-7.4288,-7.2244,-6.931,-6.4187,-6.1157,-5.8319,-5.4664,-5.6588,-5.9834,-6.3177,-6.8372,-7.3494,-7.7775,-7.8905,-7.8593,-7.6741,-7.6885,-7.6356,-7.4336,-7.4264,-7.4649,0.0,-7.5034,-7.525,-7.6308,-7.6645,-7.6525,-7.5923,-7.6212,-7.626,-7.602,-7.4961,-7.412,-7.3518,-7.2532,-7.1907,-7.1595,-7.0825,-7.0729,-7.1114,0.0,-6.9815,-6.9935,-6.8636,-6.7482,-6.6472,-6.6159,-6.5077,-6.3634,-6.3105,-6.2239,-6.1229,0.0,0.0,0.0,0.0,0.0,0.0,0.0,0.0,0.0,0.0,-3.4588,-3.4155,0.0,0.0,0.0,0.0,0.0,0.0,0.0,0.0,-3.614,-3.7264,-3.8803,-4.037,-4.1924,-4.1947,-4.2936,-4.5031,-4.3355,-4.4267,-4.7473,-4.7144,-4.6168,-4.4661,-4.7079,-4.7087,-4.5377,-4.6877,-4.7786,-4.8036,-4.6967,-4.5408,-4.3725,0.0,-4.2651,-4.2628,-4.351,-4.6385,-5.0455,-5.4928,-5.6347,-5.69,-6.0724,-6.3057,-6.5029,-6.8228,-7.0849,-7.3374,-7.6573,-7.8376,-7.9627,-8.0565,-7.8665,-7.5731,-7.2484,-6.9478,-6.5438,-5.8584,-5.5842,-5.3413,-4.9301,-5.1321,-5.5073,-5.9546,-6.5077,-7.109,-7.7679,-7.8593,-7.8785,-7.9314,-7.8617,-7.7823,-7.7078,-7.6044,-7.5803,-7.6741,-7.5875,-7.5731,-7.6645,-7.6693,-7.6693,-7.6693,-7.6693,-7.6452,-7.5899,-7.4937,-7.4408,-7.4312,-7.2797,-7.2027,-7.1907,-7.0945,-7.1017,-7.1859,0.0,0.0,-7.0368,-6.8853,-6.7578,-6.6592,-6.652,-6.5558,-6.4163,-6.349,-6.2624,-6.1662,0.0,0.0,0.0,0.0,0.0,0.0,0.0,0.0,0.0,0.0,-3.5397,-3.4691,0.0,0.0,0.0,0.0,0.0,0.0,0.0,0.0,0.0,-3.5355,-3.6173,-3.6949,-3.7614,-3.7614,-3.8529,-4.0379,-3.9584,-4.0572,-4.3096,-4.2304,-4.2034,-4.212,-4.1882,-4.1548,-4.121,-4.1527,-4.1728,-4.175,-4.1593,-4.0795,-3.9787,-4.0449,-4.0206,0.0,-4.2795,-4.615,-5.007,-5.565,-5.8945,-6.1422,-6.5558,-6.8276,-7.0512,-7.3711,-7.5274,-7.6669,-7.9867,-8.0637,-8.0565,-8.0733,-7.8136,-7.4553,-7.0921,-6.6713,-6.171,-5.5217,-5.2259,-4.9806,-4.6439,-4.9517,-5.4375,-5.9931,-6.5005,-7.0945,-7.8665,-7.9699,-7.9916,-8.0469,-8.0733,-8.0156,-7.828,-7.715,-7.6597,0.0,-7.6236,-7.5947,-7.614,-7.614,-7.614,-7.614,-7.614,-7.5899,-7.537,-7.4745,-7.4216,-7.3783,-7.2605,-7.1835,-7.1378,-7.0777,-7.0825,-7.133,0.0,0.0,-7.0392,-6.9238,-6.8131,-6.7097,-6.6664,-6.5799,-6.462,-6.3225,-6.2336,-6.171,0.0,0.0,0.0,0.0,0.0,0.0,0.0,-3.5894,-3.6846,-3.8688,-3.815,-3.7239,-3.6287,-3.5542,-3.5107,0.0,0.0,0.0,0.0,0.0,0.0,-3.4917,-3.4955,-3.557,-3.6877,-3.6899,-3.75,-3.8649,0.0,-3.8588,-3.9937,-3.9559,-3.9241,-3.9036,-3.9382,-3.8937,-3.8088,-3.9347,-3.9585,-3.9167,-3.9953,-3.939,-3.8167,-3.8635,-3.8508,0.0,-4.1329,-4.4774,-4.8709,-5.3525,-5.8414,-6.349,-6.8564,-7.1811,-7.424,-7.6885,-7.8208,-7.9386,-8.1719,-8.2417,-8.22,-8.1407,-7.8208,-7.3663,-6.7747,-6.2696,-5.7309,-5.0359,-4.7906,-4.6199,-4.3553,-4.6992,-5.1586,-5.577,-6.0219,-6.6328,-7.5418,-7.6452,-7.739,-8.0421,-8.1022,-8.0565,-7.893,-7.8088,-7.7631,-7.7631,-7.7126,-7.6477,-7.5659,-7.5611,-7.5851,-7.6404,-7.6164,-7.5755,-7.5226,-7.4697,-7.4168,-7.3639,-7.2845,-7.2172,-7.1667,-7.1138,-7.1186,-7.1619,-7.0272,0.0,-7.0777,-6.9166,-6.8011,-6.7218,-6.6688,-6.5678,-6.4452,-6.3971,-6.2937,-6.1807,0.0,0.0,0.0,0.0,0.0,0.0,-3.6453,-3.7198,-3.8419,-4.0986,-4.0675,-3.964,-3.8109,-3.6784,-3.5811,0.0,0.0,0.0,0.0,0.0,0.0,0.0,0.0,0.0,-3.6438,0.0,0.0,-3.7487,-3.7119,0.0,0.0,0.0,0.0,0.0,-3.7721,-3.7281,-3.5995,-3.7832,-3.8159,0.0,0.0,-3.8285,-3.691,0.0,0.0,0.0,0.0,-4.275,-4.6565,-5.048,-5.597,-6.2263,-6.7771,-7.2508,-7.638,-7.828,-7.9843,-8.1334,-8.297,-8.3595,-8.3427,-8.2056,-7.804,-7.2436,-6.5029,-5.9209,-5.3413,-4.635,-4.4405,-4.3457,-4.1677,-4.4683,-4.8531,-5.1898,-5.5722,-6.1782,-7.1883,-7.323,-7.5058,-8.018,-8.0781,-8.0397,-7.9459,-7.8665,0.0,-7.8376,0.0,0.0,-7.5611,-7.5659,-7.5996,-7.6621,-7.6236,-7.5755,-7.5226,-7.4697,-7.4168,-7.3639,-7.3086,-7.2484,-7.1883,-7.145,-7.1498,-7.1811,-7.0344,0.0,0.0,-6.9238,-6.8059,-6.741,-6.7001,-6.5943,-6.4668,-6.4837,-6.3803,-6.2336,0.0,0.0,0.0,0.0,0.0,0.0,-3.6453,-3.7198,-3.875,-4.2269,-4.1276,-4.0013,-3.9344,-3.8502,-3.7094,0.0,0.0,0.0,0.0,0.0,0.0,0.0,0.0,0.0,0.0,0.0,0.0,-3.5685,-3.5582,0.0,0.0,0.0,0.0,0.0,0.0,-3.5638,-3.5449,-3.5658,0.0,0.0,0.0,0.0,0.0,0.0,0.0,0.0,0.0,-3.9974,-4.3433,-4.7653,-5.1585,-5.5458,-5.9883,-6.8059,-7.6236,-7.739,-7.9531,-8.196,-8.4004,-8.3908,-8.3042,-8.2417,-7.6909,-7.0176,-6.4644,-5.7814,-5.1081,-4.5486,-4.3625,-4.2771,-4.2014,-4.3433,-4.6446,-5.2067,-5.5313,-6.0676,-7.0777,-7.3398,-7.5899,-8.0252,-8.0781,-8.0565,-7.9988,-7.8545,-7.7871,-7.8352,0.0,0.0,-7.6645,-7.7102,-7.6982,-7.6116,-7.6044,-7.5755,-7.5226,-7.4697,-7.4168,-7.3639,-7.3086,-7.2292,-7.133,-7.1282,-7.1306,-7.1282,0.0,0.0,0.0,-7.0031,-6.8949,-6.8035,-6.7987,-6.7266,-6.6159,-6.5246,-6.45,-6.3851,0.0,0.0,0.0,0.0,0.0,0.0,-3.6784,-3.6908,-3.8274,-4.2745,-4.3201,-4.2807,-4.2062,-4.1421,-3.933,-3.5189,0.0,0.0,0.0,0.0,0.0,0.0,0.0,0.0,0.0,0.0,-3.3158,-3.3435,-3.3695,0.0,0.0,0.0,0.0,0.0,0.0,-3.4648,-3.5351,-3.4824,0.0,0.0,0.0,0.0,0.0,0.0,0.0,0.0,0.0,0.0,-4.1155,-4.4249,-4.8097,-5.1802,-5.3822,-5.957,-6.6616,-7.2172,-7.5899,-7.8978,-8.2345,-8.3908,-8.398,-8.1551,-7.6068,-6.9428,-6.2208,-5.5264,-4.8903,-4.3552,-4.2136,-4.1749,-4.1533,-4.2279,-4.4202,-4.8122,-4.9373,-5.2836,-6.1326,-6.3634,-6.7073,-7.4216,-7.6188,-7.7775,-7.9771,0.0,-7.9002,-7.8857,0.0,0.0,-7.727,-7.6573,-7.6116,-7.602,-7.602,-7.5611,-7.4769,-7.4529,-7.3999,-7.3134,-7.2605,-7.2148,-7.1739,-7.1426,-7.145,-7.1691,0.0,0.0,0.0,-6.9791,-6.8781,-6.8083,-6.7747,-6.7145,-6.6448,-6.6015,-6.4933,-6.3658,0.0,0.0,0.0,0.0,0.0,-3.3368,-3.6411,-3.668,-3.8088,-4.2435,-4.3449,-4.3677,-4.3428,-4.2042,-3.9785,-3.6453,-3.5707,0.0,0.0,0.0,0.0,0.0,0.0,0.0,0.0,0.0,-3.2461,-3.2229,-3.2598,-3.2793,0.0,0.0,-3.3809,-3.4492,0.0,0.0,0.0,0.0,0.0,0.0,0.0,0.0,0.0,0.0,0.0,0.0,0.0,0.0,0.0,0.0,0.0,-4.8122,-4.882,-5.1946,-5.7069,-6.6063,-7.1498,-7.5539,-7.9771,-8.2489,-8.3499,-8.0878,-7.525,-6.842,-6.1275,-5.4046,-4.7542,-4.2895,-4.1519,-4.1172,-4.1172,-4.1629,-4.2784,-4.5285,-4.5766,-4.8387,-5.5674,-5.7622,-6.1205,-6.9142,-7.1282,-7.3687,-7.7727,-7.9122,-7.9603,0.0,0.0,0.0,-7.7607,-7.6236,-7.5635,-7.5996,-7.5851,-7.5346,-7.4432,-7.4288,-7.3735,-7.2797,-7.2292,-7.1979,-7.1811,-7.145,-7.1474,-7.1763,0.0,0.0,0.0,-6.9719,-6.8733,-6.8083,-6.7675,-6.7097,-6.6472,-6.6328,-6.5125,-6.361,0.0,0.0,0.0,0.0,0.0,-3.2313,-3.5024,-3.6597,-3.846,-4.1234,-4.1193,-4.1441,-4.2787,-3.9309,-3.757,-3.9261,-3.6991,0.0,0.0,0.0,0.0,0.0,0.0,0.0,0.0,0.0,-3.2168,-3.2229,-3.2598,-3.2793,-3.2812,-3.3223,-3.3652,-3.4082,0.0,0.0,0.0,0.0,0.0,0.0,0.0,0.0,-3.4707,0.0,0.0,0.0,0.0,0.0,0.0,0.0,0.0,0.0,0.0,-4.6319,-4.9614,-5.9714,-6.6785,-7.2244,-7.6477,-7.9218,-8.0853,-8.0781,-7.4408,-6.7025,-6.272,-5.476,-4.7377,-4.4178,-4.2279,-4.1172,-4.1172,-4.1629,-4.2663,-4.4804,-4.6463,-4.9902,-5.6828,-5.8704,-6.135,-6.6688,-6.6881,-6.8444,-7.3254,-7.703,-7.917,0.0,0.0,0.0,0.0,-7.6573,-7.5996,-7.602,-7.5515,-7.4985,-7.4432,-7.3903,-7.3374,-7.2797,-7.2292,-7.1787,-7.1282,-7.1282,-7.1282,0.0,0.0,0.0,0.0,-7.0128,-6.9069,-6.8107,-6.8107,-6.7434,-6.6424,-6.5895,-6.5029,-6.4043,0.0,0.0,0.0,0.0,0.0,0.0,-3.3114,-3.3384,-3.4533,-3.757,-3.837,-3.9556,-4.1772,-4.0013,-3.8916,-3.9426,-3.6742,0.0,0.0,0.0,0.0,0.0,0.0,0.0,0.0,-3.2307,-3.2441,-3.3027,-3.4062,-3.457,-3.459,-3.5,-3.4941,-3.4473,-3.3887,-3.3789,0.0,0.0,0.0,0.0,0.0,-3.3887,-3.4277,0.0,0.0,0.0,0.0,0.0,0.0,0.0,0.0,0.0,0.0,0.0,0.0,-5.0912,-5.7694,-6.4308,-6.7097,-7.02,-7.2148,-6.9959,-6.6015,-6.1499,-5.6925,-5.1695,-4.6777,-4.3285,-4.1863,-4.1172,-4.1172,-4.1317,-4.2711,-4.6655,-4.8002,-4.9854,-5.351,-5.743,-6.135,-6.5197,-7.1619,-7.6332,0.0,0.0,0.0,0.0,0.0,0.0,0.0,-7.6597,-7.602,-7.602,-7.5491,-7.4961,-7.4432,-7.3903,-7.3182,-7.2292,-7.1763,-7.1426,-7.1282,-7.1282,0.0,0.0,0.0,0.0,0.0,-6.9983,-6.9069,-6.8107,-6.8107,-6.7458,-6.6424,-6.5895,-6.4813,-6.3514,0.0,0.0,0.0,0.0,0.0,0.0,-3.1367,-3.183,-3.284,-3.4983,-3.5965,-3.7524,-4.0524,-3.8993,-3.8295,-3.9612,-3.6701,0.0,0.0,0.0,0.0,0.0,0.0,0.0,-3.2402,-3.1934,-3.2422,-3.3906,-3.5234,-3.6035,-3.6367,-3.6953,-3.6309,-3.4668,-3.4141,-3.3789,0.0,0.0,0.0,0.0,-3.3476,-3.3633,-3.3613,0.0,0.0,0.0,0.0,0.0,0.0,0.0,0.0,0.0,0.0,0.0,0.0,0.0,-5.0648,-5.6035,-6.0388,-6.3971,-6.6135,-6.4524,-6.1686,-5.8338,-5.4839,-5.0484,-4.6394,-4.3512,-4.2041,-4.1172,-4.1172,-4.1341,-4.2519,-4.5694,-4.7161,-4.8844,-5.1586,-5.6035,-6.0532,-6.4716,-7.2364,0.0,0.0,-7.8449,0.0,0.0,0.0,0.0,0.0,-7.6404,-7.5707,-7.5707,-7.5202,-7.4673,-7.4144,-7.3422,-7.2725,-7.2051,-7.133,-7.109,-7.1282,-7.1282,0.0,0.0,0.0,0.0,0.0,-6.9695,-6.8901,-6.8083,-6.7891,-6.7266,-6.6376,-6.5438,-6.4356,-6.3249,0.0,0.0,0.0,0.0,0.0,0.0,0.0,-3.1523,-3.2883,-3.3372,-3.382,-3.5452,-3.8889,-3.6527,-3.61,-3.9468,-3.6658,0.0,0.0,0.0,0.0,0.0,0.0,0.0,-3.2734,-3.1641,-3.2285,-3.4785,-3.6133,-3.7246,-3.8086,-3.8867,-3.7637,-3.4746,-3.4746,-3.4043,-3.2891,-3.3633,-3.3262,-3.2266,-3.3457,-3.3457,0.0,0.0,0.0,0.0,0.0,0.0,0.0,0.0,0.0,0.0,0.0,0.0,0.0,0.0,0.0,0.0,0.0,-5.957,-6.1831,-6.2624,-5.9931,-5.666,-5.5073,-5.0479,0.0,-4.4501,-4.2639,-4.1268,-4.1389,-4.1749,-4.2362,-4.3253,-4.4948,-4.7497,-5.1201,-5.5193,-5.9907,-6.5702,-7.0464,0.0,-7.3158,-7.6789,0.0,0.0,0.0,0.0,0.0,-7.6044,-7.5202,-7.5106,-7.4673,-7.4168,-7.3591,-7.2581,-7.2027,-7.1931,-7.0993,-7.0801,-7.1282,-7.1282,0.0,0.0,0.0,0.0,0.0,-6.9334,-6.8588,-6.8059,-6.7506,-6.6905,-6.6208,-6.4692,-6.3779,-6.3129,0.0,0.0,0.0,0.0,0.0,0.0,0.0,0.0,0.0,0.0,-3.2255,-3.3095,-3.4507,-3.455,-3.4858,0.0,0.0,0.0,0.0,0.0,0.0,0.0,0.0,0.0,-3.2385,-3.2656,-3.3769,-3.5703,-3.7344,-3.8574,-3.9434,-3.9648,-3.8125,-3.5234,-3.5234,-3.4492,-3.3242,-3.2812,-3.2441,-3.2268,-3.2561,-3.25,0.0,0.0,0.0,0.0,-3.459,-3.6559,0.0,0.0,0.0,0.0,0.0,0.0,0.0,0.0,-4.3168,-4.4275,-4.6968,0.0,-5.1922,-5.0551,-5.007,-4.9614,0.0,-4.6463,-4.4563,-4.3385,-4.2423,-4.2158,-4.3385,-4.3048,-4.3938,-4.8147,-4.8892,-5.0095,-5.3413,-6.0219,-6.6881,-7.234,-7.5755,-7.7342,-7.6549,0.0,0.0,0.0,0.0,0.0,0.0,-7.5659,-7.4841,-7.4048,-7.4288,-7.3975,-7.3013,-7.2388,-7.1667,-7.0849,-7.1017,-7.1162,-7.1282,-7.1282,0.0,0.0,0.0,0.0,-6.9839,-6.9166,-6.8588,-6.8059,-6.7506,-6.6472,-6.5197,-6.4404,-6.3538,-6.2672,0.0,0.0,0.0,0.0,0.0,0.0,0.0,0.0,0.0,0.0,-3.2018,-3.2515,-3.3114,-3.3897,-3.4385,0.0,0.0,0.0,0.0,0.0,0.0,0.0,-3.285,-3.2291,-3.1875,-3.2519,-3.3984,-3.6309,-3.8242,-3.9824,-4.1055,-4.1055,-3.9336,-3.6211,-3.4824,-3.3574,-3.2539,-3.248,-3.2129,-3.166,-3.2422,0.0,0.0,0.0,0.0,0.0,-3.4882,-3.6806,0.0,-4.1405,-4.349,-4.4924,0.0,0.0,0.0,0.0,-4.2434,-4.2519,-4.3096,-4.5573,-4.7906,-4.7473,-4.7617,-4.7714,-4.7136,-4.5429,-4.3673,-4.2615,-4.2217,-4.2303,-4.3409,-4.3553,-4.4587,-4.7954,-4.9493,-5.2139,-5.7526,-6.3466,-6.9166,-7.4264,-7.6765,-7.8136,0.0,0.0,0.0,0.0,0.0,0.0,0.0,-7.5274,-7.448,-7.3663,-7.4168,-7.3807,-7.2484,-7.2196,-7.1522,-7.0488,-7.0536,-7.0681,-7.0897,-7.0897,0.0,0.0,0.0,0.0,-6.9286,-6.8757,-6.8228,-6.7675,-6.7121,-6.6087,-6.4813,-6.4043,-6.3274,-6.2504,0.0,0.0,0.0,0.0,0.0,0.0,0.0,0.0,0.0,0.0,0.0,0.0,0.0,0.0,0.0,0.0,0.0,0.0,0.0,0.0,0.0,-3.2533,-3.1858,-3.1641,-3.1894,-3.2207,-3.3809,-3.6758,-3.8867,-4.0703,-4.2246,-4.2441,-4.0625,-3.709,-3.4453,-3.2656,-3.166,-3.2324,-3.2012,-3.1211,-3.2578,0.0,0.0,0.0,0.0,0.0,0.0,0.0,0.0,-4.2354,-4.4877,-4.6535,-4.6199,0.0,0.0,0.0,0.0,0.0,-4.2639,-4.4972,-4.7353,-4.7954,-4.8026,-4.7858,-4.7617,-4.5405,-4.3144,-4.2219,-4.2279,-4.2687,-4.3396,-4.4477,-4.5654,-4.6944,-4.995,-5.4856,-6.2576,-6.6256,-6.9791,-7.4264,-7.6188,0.0,0.0,0.0,0.0,0.0,0.0,0.0,0.0,-7.4913,-7.4192,-7.3663,-7.4168,-7.3663,-7.2076,-7.2051,-7.145,-7.0248,-6.9863,-6.9935,-7.0368,-7.0368,-7.0392,0.0,0.0,0.0,-6.8877,-6.8348,-6.7795,-6.7218,-6.652,-6.5606,-6.4548,-6.349,-6.2841,-6.2384,0.0,0.0,0.0,0.0,0.0,0.0,0.0,0.0,0.0,0.0,0.0,0.0,0.0,0.0,0.0,0.0,0.0,0.0,0.0,0.0,0.0,-3.227,-3.1758,-3.2187,-3.3652,-3.3379,-3.4531,-3.7207,-3.9004,-4.041,-4.1387,-4.2461,-4.0762,-3.6738,-3.5898,-3.4238,-3.2051,-3.1816,-3.1816,-3.1973,-3.1855,0.0,0.0,0.0,0.0,0.0,0.0,0.0,0.0,-4.0915,-4.3381,-4.5742,-4.3938,0.0,0.0,0.0,0.0,0.0,-4.5669,-4.7978,-4.8483,-4.4746,-4.502,-4.5934,-4.4563,-4.3529,-4.2772,-4.2305,-4.3538,-4.511,-4.6693,-4.8495,-5.0359,-5.2283,-5.6035,-6.1037,-6.7675,-7.0536,-7.3086,-7.6068,0.0,0.0,0.0,0.0,0.0,0.0,0.0,0.0,0.0,-7.4529,-7.4192,-7.3663,-7.4168,-7.3663,-7.2076,-7.2051,-7.109,-6.9142,-6.9526,-6.9743,-6.9815,-6.9815,-7.0055,0.0,0.0,-6.9478,-6.8877,-6.8348,-6.7795,-6.7145,-6.5702,-6.4524,-6.3442,-6.2408,-6.1975,-6.1855,0.0,0.0,0.0,0.0,0.0,0.0,0.0,0.0,0.0,0.0,0.0,0.0,0.0,0.0,0.0,0.0,0.0,0.0,0.0,-3.2289,-3.2695,-3.3867,-3.3476,-3.3379,-3.3711,-3.4902,-3.668,-3.9043,-4.125,-4.2773,-4.3594,-4.2539,-4.0,-3.6289,-3.5371,-3.3672,-3.1465,-3.1269,-3.1289,-3.1484,0.0,0.0,0.0,0.0,0.0,0.0,0.0,0.0,0.0,0.0,-4.4492,-4.6415,-4.4299,0.0,0.0,0.0,0.0,0.0,-4.3553,-4.5862,-4.7281,-4.5381,-4.7136,-4.9012,-4.769,-4.6102,-4.4837,-4.4712,-4.5806,-4.7335,-4.9046,-5.1514,-5.4784,-5.9474,-6.236,-6.5438,-6.955,-7.145,-7.3278,0.0,0.0,0.0,0.0,0.0,0.0,0.0,0.0,0.0,0.0,0.0,-7.4192,-7.3663,-7.4432,-7.3951,-7.2076,-7.2051,-7.1138,-6.9334,-6.9574,-6.9695,-6.9671,-6.8781,-6.8853,-6.9574,0.0,-6.8252,-6.8011,-6.7771,-6.7001,-6.5943,-6.5197,-6.3923,-6.2408,-6.1638,-6.135,-6.1301,0.0,0.0,0.0,0.0,0.0,0.0,0.0,0.0,0.0,0.0,0.0,0.0,0.0,0.0,0.0,0.0,0.0,0.0,0.0,-3.2229,-3.2988,-3.4844,-3.498,-3.5117,-3.5371,-3.7051,-3.9219,-4.1875,-4.3965,-4.543,-4.6211,-4.3281,-3.998,-3.6406,-3.5117,-3.3184,-3.0898,-3.0898,-3.0937,-3.1055,0.0,0.0,0.0,0.0,0.0,0.0,0.0,0.0,0.0,0.0,0.0,0.0,0.0,0.0,0.0,-4.3168,-4.2014,-4.1918,-4.2808,-4.4732,-4.6704,-4.7617,-4.9614,-5.1369,-5.1417,-4.9565,-4.8002,-4.8492,-4.9424,-5.0527,-5.1682,-5.4804,-5.9305,-6.5606,-6.7843,-6.955,-7.1835,-7.2941,-7.4192,-7.5947,0.0,0.0,0.0,0.0,0.0,0.0,0.0,0.0,0.0,0.0,-7.412,-7.3855,-7.4504,-7.3951,-7.2076,-7.2051,-7.121,-6.9502,-6.9262,-6.9069,-6.8901,-6.765,-6.7626,-6.8492,-6.7771,-6.741,-6.7266,-6.7001,-6.6135,-6.4885,-6.45,-6.3249,-6.1542,-6.1133,-6.0893,-6.0772,0.0,0.0,0.0,0.0,0.0,0.0,0.0,0.0,0.0,0.0,0.0,0.0,0.0,0.0,0.0,0.0,0.0,0.0,0.0,-3.2229,-3.2578,-3.3516,-3.5078,-3.7578,-4.1113,-4.0215,-4.1738,-4.5879,-4.6465,-4.7187,-4.7969,-4.5371,-4.1894,-3.7734,-3.6445,-3.4023,-3.0898,-3.0898,-3.1113,-3.1386,-3.0761,0.0,0.0,0.0,0.0,0.0,0.0,0.0,0.0,0.0,0.0,0.0,0.0,0.0,-4.6559,-4.5814,-4.4539,-4.4192,-4.7569,-4.8315,-4.8603,-5.0648,-4.9854,-4.9445,-5.2836,-5.2331,-5.1754,-5.3899,-5.5009,-5.5542,-5.538,-5.9368,-6.4211,-6.8685,-7.1546,-7.4096,-7.6717,0.0,-7.816,0.0,0.0,0.0,0.0,0.0,0.0,0.0,0.0,0.0,0.0,0.0,0.0,-7.436,-7.3975,-7.3206,-7.2076,-7.2051,-7.1017,-6.8949,-6.7939,-6.7194,-6.6713,-6.6592,-6.6857,-6.741,-6.7867,-6.7771,-6.7194,-6.6232,-6.5462,-6.4765,-6.3322,-6.2047,-6.1013,-6.0965,-6.0652,-6.0219,0.0,0.0,0.0,0.0,0.0,0.0,0.0,0.0,0.0,0.0,0.0,0.0,0.0,0.0,0.0,0.0,0.0,0.0,-3.1406,-3.1875,-3.291,-3.457,-3.6035,-3.8125,-4.0937,-4.2637,-4.5469,-4.9492,-5.0176,-4.959,-4.7754,-4.4902,-4.1269,-3.709,-3.5781,-3.4473,-3.3164,-3.1655,-3.2102,-3.375,-3.132,-3.125,0.0,0.0,0.0,0.0,0.0,0.0,0.0,0.0,-4.4082,-4.5549,-4.4058,-4.5694,-4.769,-4.5164,-4.3986,-4.377,-4.4852,-4.668,-4.8411,-4.8892,-5.0624,-5.2932,-5.5674,-5.5842,-5.6444,-5.9907,-6.0904,-6.1264,-6.1826,-6.513,-6.8733,-7.1667,-7.4913,-7.7438,-7.8449,-7.8449,0.0,0.0,0.0,0.0,0.0,0.0,0.0,0.0,0.0,0.0,0.0,0.0,0.0,-7.3951,-7.3422,-7.2773,-7.2076,-7.109,-7.0031,-6.8901,-6.8155,-6.7506,-6.6953,-6.5967,-6.6159,-6.7266,-6.6809,-6.6304,-6.5775,-6.539,-6.4524,-6.3346,-6.2071,-6.1326,-6.0917,-6.0604,-6.0339,-6.0171,0.0,0.0,0.0,0.0,0.0,0.0,0.0,0.0,0.0,0.0,0.0,0.0,0.0,0.0,0.0,0.0,0.0,0.0,-3.0937,-3.1562,-3.2676,-3.4297,-3.5859,-3.7832,-4.0273,-4.3711,-4.709,-5.041,-5.2226,-5.1426,-4.8125,-4.5254,-4.2031,-3.8613,-3.6601,-3.5801,-3.5781,-3.3223,-3.3126,-3.4394,-3.1873,-3.1461,0.0,0.0,0.0,0.0,0.0,0.0,0.0,0.0,-4.3529,-4.5044,-4.401,-4.5814,-4.7906,-4.5669,-4.49,-4.4587,-4.3746,-4.5621,-4.7834,-4.7954,-5.1081,-5.5121,-5.8921,-5.981,-6.1061,-6.5462,-6.5582,-6.5149,-6.6039,-6.8131,-7.0488,-7.2773,-7.626,-7.8713,-7.8905,-7.8449,0.0,0.0,0.0,0.0,0.0,0.0,0.0,0.0,0.0,0.0,0.0,0.0,0.0,0.0,-7.2941,-7.2172,-7.133,-7.0079,-6.8925,-6.7891,-6.753,-6.7145,-6.6737,-6.5654,-6.5582,-6.6256,-6.5702,-6.5053,-6.4404,-6.4235,-6.3442,-6.2239,-6.1133,-6.082,-6.0893,-6.0364,-6.0171,-6.0195,0.0,0.0,0.0,0.0,0.0,0.0,0.0,0.0,0.0,0.0,-3.3418,0.0,0.0,0.0,0.0,0.0,0.0,0.0,-3.0898,-3.1289,-3.1719,-3.2148,-3.4238,-3.6777,-3.9766,-4.3203,-4.6035,-4.8223,-5.2109,-5.2461,-4.9433,-4.6855,-4.4726,-4.2891,-3.9492,-3.8203,-3.8437,-3.584,-3.4063,-3.2969,-3.215,-3.1157,-3.0339,0.0,0.0,0.0,0.0,0.0,0.0,0.0,-4.3228,-4.2808,-4.7545,-4.7978,-4.6944,-4.7954,-4.7906,-4.7136,-4.5549,-4.591,-4.7112,-4.87,-5.1129,-5.5097,-6.2456,-6.4139,-6.551,-7.032,-6.8781,-6.6713,-6.7242,-6.7771,-6.9021,-7.1667,-7.5178,-7.7775,-7.8304,0.0,0.0,0.0,0.0,0.0,0.0,0.0,0.0,0.0,0.0,0.0,0.0,0.0,0.0,0.0,-7.2605,-7.1282,-6.9719,-6.9166,-6.7819,-6.5727,-6.5702,-6.5702,-6.5702,-6.5702,-6.5125,-6.4163,-6.4668,-6.4308,-6.3298,-6.2793,-6.2263,-6.1686,-6.0604,-6.0508,-6.0893,-6.0364,-6.0171,-6.0267,0.0,0.0,0.0,0.0,0.0,0.0,0.0,0.0,0.0,-3.2891,-3.2988,0.0,0.0,0.0,0.0,0.0,0.0,-3.166,-3.1348,-3.1445,-3.1582,-3.1699,-3.3476,-3.4746,-3.5332,-3.9336,-4.4101,-4.959,-5.1348,-5.0195,-4.6348,-4.5586,-4.3652,-4.084,-4.1016,-4.084,-4.0254,-3.7753,-3.7501,-3.8487,-3.4948,-3.3341,-3.3095,0.0,0.0,0.0,0.0,0.0,0.0,0.0,0.0,0.0,-4.2997,-4.5497,-4.7666,-4.6872,-4.6247,-4.5645,-4.4741,-4.6175,-4.8122,-4.9349,-5.476,-6.0724,-6.4404,-6.5246,-6.6905,-7.2821,-7.21,-7.056,-7.1065,-7.1017,-7.1522,-7.3422,-7.5899,-7.7655,0.0,0.0,0.0,0.0,0.0,0.0,0.0,0.0,0.0,0.0,0.0,0.0,0.0,0.0,0.0,0.0,-7.0945,-7.0176,-6.9695,-6.842,-6.7434,-6.6809,-6.6424,-6.6063,-6.5678,-6.4933,-6.462,-6.4644,-6.4067,-6.3225,-6.2215,-6.1662,-6.135,-6.1181,-6.0869,-6.082,-6.0941,-6.0796,-6.0555,-6.031,0.0,0.0,0.0,0.0,0.0,0.0,0.0,0.0,-3.2129,-3.2715,-3.2793,-3.2637,0.0,0.0,0.0,-3.2229,-3.2012,-3.1875,-3.1777,-3.1465,-3.1504,-3.2012,-3.2851,-3.3906,-3.5176,-3.8789,-4.2441,-4.6094,-4.8476,-4.7871,-4.4531,-4.6269,-4.5605,-4.3047,-4.5098,-4.5156,-4.3594,-4.1444,-4.0492,-4.022,-3.7238,-3.5571,-3.484,0.0,0.0,0.0,0.0,0.0,0.0,0.0,0.0,0.0,-4.0173,-4.2372,-4.4759,-4.5885,-4.5405,-4.4804,-4.6175,-4.7858,-4.995,-5.2932,-5.8464,-6.4139,-6.7723,-6.919,-7.1017,-7.5274,-7.3975,-7.2268,-7.3013,-7.2388,-7.2268,-7.3855,-7.5899,-7.7198,0.0,0.0,0.0,0.0,0.0,0.0,0.0,0.0,0.0,0.0,0.0,0.0,0.0,0.0,0.0,0.0,-6.9622,-6.8949,-6.8733,-6.7145,-6.6232,-6.6015,-6.5294,-6.4885,-6.4765,-6.4548,-6.4163,-6.361,-6.2552,-6.1855,-6.1422,-6.0869,-6.0772,-6.0965,-6.0965,-6.0965,-6.0989,-6.1034,-6.0849,-6.0576,0.0,0.0,-3.2129,-3.2168,0.0,0.0,0.0,-3.2344,-3.1836,-3.2578,-3.2676,-3.2519,0.0,0.0,0.0,-3.2229,-3.1836,-3.1777,-3.2148,-3.1445,-3.1523,-3.2676,-3.2598,-3.4238,-3.791,-4.0367,-4.1014,-3.9991,-4.438,-4.5449,-4.3516,-4.7969,-4.918,-4.7695,-5.0234,-4.9941,-4.7402,-4.5527,-4.2748,-3.9565,-3.8937,-3.7576,-3.5818,-3.4449,0.0,0.0,0.0,0.0,0.0,0.0,0.0,0.0,-3.8268,-3.9152,-3.9997,-4.4761,-4.4966,-4.4587,-4.8579,-5.0311,-5.2355,-5.8103,-6.2239,-6.6376,-7.1907,-7.4649,-7.626,-7.7174,-7.4697,-7.2653,-7.3687,-7.2508,-7.1955,-7.3663,-7.5466,0.0,0.0,0.0,0.0,0.0,0.0,0.0,0.0,0.0,0.0,0.0,0.0,0.0,0.0,0.0,0.0,0.0,-6.854,-6.7723,-6.7073,-6.563,-6.462,0.0,-6.3105,-6.2841,-6.3225,-6.4187,-6.3538,-6.159,-6.0604,-6.046,-6.0845,-6.0364,-6.0484,-6.0965,-6.0965,-6.0989,-6.1109,-6.1097,-6.1114,-6.1011,0.0,0.0,-3.1758,-3.2109,0.0,0.0,-3.2793,-3.2422,-3.1973,-3.1816,-3.1797,-3.1641,-3.1211,-3.1758,0.0,-3.2229,-3.2383,-3.2422,-3.2187,-3.1992,-3.2012,-3.2285,-3.416,-3.6211,-3.8379,-3.9289,-3.9983,-4.0555,-4.2447,-4.2637,-4.1328,-4.666,-4.8574,-4.7676,-4.9941,-4.9492,-4.6875,-4.3789,-4.1991,-4.1133,-3.9663,-3.8686,-3.7865,-3.5984,-3.4487,0.0,0.0,0.0,0.0,0.0,0.0,0.0,-3.4902,-3.7609,-4.022,-4.1491,-4.3522,-4.579,-4.7545,-5.0527,-5.4351,-5.9378,-6.5823,-7.1811,-7.5178,-7.5971,-7.5947,-7.5779,-7.5106,-7.4745,-7.5394,-7.3855,-7.3278,-7.5731,0.0,0.0,0.0,0.0,0.0,0.0,0.0,0.0,0.0,0.0,0.0,0.0,0.0,0.0,0.0,0.0,0.0,-6.7843,-6.7578,-6.6809,-6.5438,-6.5077,-6.4452,0.0,-6.3274,-6.2817,-6.2143,-6.236,-6.1758,-6.0508,-6.0267,-6.0243,-6.0339,-6.0219,-6.0484,-6.0965,-6.0965,-6.1229,-6.1686,-6.2128,-6.1772,-6.1116,0.0,0.0,0.0,0.0,0.0,0.0,0.0,0.0,-3.1855,-3.1836,-3.1641,-3.1367,-3.0937,-3.1465,0.0,0.0,-3.2363,-3.2656,-3.3047,-3.2561,-3.2637,-3.3672,-3.5781,-3.7344,-3.8242,-3.8306,-3.8538,-3.907,-4.0881,-4.1771,-4.1899,-4.7001,-4.914,-4.8613,-5.0762,-4.9941,-4.6816,-4.5019,-4.3418,-4.1991,-4.1322,-4.0317,-3.9067,-3.6859,-3.4813,-3.2916,-3.0678,0.0,0.0,0.0,0.0,0.0,0.0,0.0,-3.6259,-3.9854,-4.1414,-4.3107,-4.8481,-5.2471,-5.6853,-6.4452,-7.0344,-7.4649,-7.5779,-7.5827,-7.5491,-7.4961,-7.4841,-7.4937,-7.5202,-7.4553,-7.4432,-7.5827,0.0,0.0,0.0,0.0,0.0,0.0,0.0,0.0,0.0,0.0,0.0,0.0,0.0,0.0,0.0,-6.7819,-6.7025,-6.6183,-6.5414,-6.4741,-6.4163,-6.3682,-6.3153,-6.26,-6.2071,-6.1542,-6.1013,-6.1013,-6.07,-6.0171,-5.9907,-6.0075,-6.0532,-6.0267,-6.0652,-6.1398,-6.1638,-6.1927,-6.2239,-6.2481,-6.2143,-6.1409,0.0,0.0,0.0,0.0,0.0,0.0,0.0,0.0,0.0,-3.2129,-3.1797,-3.1387,-3.1035,-3.1367,-3.1738,0.0,0.0,0.0,-3.3672,-3.2891,-3.3281,-3.5312,-3.6953,-3.791,-3.8144,-3.7869,-3.7995,-3.8567,-4.0876,-4.3118,-4.5293,-4.8942,-5.0486,-5.0373,-5.1852,-5.0362,-4.6777,-4.6035,-4.4101,-4.1523,-4.1904,-4.0934,-3.9142,-3.6929,-3.474,-3.2525,-3.0433,-2.9923,-3.0137,-3.002,0.0,0.0,0.0,0.0,-3.221,-3.8401,-3.9305,-4.025,-4.8896,-5.43,-5.9822,-6.9717,-7.412,-7.5899,-7.5466,-7.537,-7.5154,-7.4432,-7.4384,-7.4432,-7.4432,-7.4721,-7.501,0.0,0.0,0.0,0.0,0.0,0.0,0.0,0.0,0.0,0.0,0.0,0.0,0.0,0.0,0.0,-6.7073,-6.5775,-6.4885,-6.4524,-6.3346,-6.2793,-6.2937,-6.2167,-6.171,-6.1494,-6.0604,-6.0171,-6.0171,-6.0171,-6.0123,-6.0027,-5.957,-5.9834,-6.0532,-6.0075,-6.0532,-6.1566,-6.2095,-6.2432,-6.2648,-6.2688,-6.2345,-6.1761,0.0,0.0,0.0,0.0,0.0,0.0,0.0,0.0,0.0,0.0,-3.1797,-3.1504,-3.1445,-3.1816,-3.1953,-3.1621,-3.1953,-3.2246,-3.2402,0.0,0.0,-3.5332,-3.666,-3.7891,-3.9004,-3.9372,-4.0826,-4.3508,-4.4805,-4.8157,-5.3392,-5.3185,-5.3327,-5.3731,-5.2436,-4.9833,-4.6133,-4.2422,-3.9726,-3.7988,-3.8033,-3.7682,-3.7,-3.5596,-3.4653,-3.3639,-3.0977,-3.006,-2.9999,-2.9389,-2.9379,0.0,0.0,0.0,-3.3613,-3.499,-3.8025,-4.162,-4.4907,-5.362,-6.3497,-7.0897,-7.4384,-7.5996,-7.5923,-7.5899,-7.5491,-7.4048,-7.412,-7.4432,-7.4432,-7.412,-7.4168,0.0,0.0,0.0,0.0,0.0,0.0,0.0,0.0,0.0,0.0,0.0,0.0,0.0,0.0,0.0,-6.5991,-6.5702,-6.4765,-6.2961,-6.3105,-6.26,-6.1301,-6.1614,-6.1326,-6.0388,-6.0243,-6.0171,-6.0171,-6.0171,-5.9931,-5.9498,-5.9426,-5.9209,-5.8897,-5.8824,-5.9426,-6.0436,-6.0965,-6.1758,-6.2648,-6.3065,-6.2636,-6.178,0.0,0.0,0.0,0.0,0.0,0.0,0.0,0.0,0.0,0.0,0.0,-3.1875,-3.1875,-3.1836,-3.1914,-3.2207,-3.1973,-3.2012,-3.248,-3.332,-3.4375,-3.5684,-3.6055,-3.6934,-3.8457,-3.8204,-3.9333,-4.1891,-4.4277,-4.8906,-5.5644,-5.7429,-5.7244,-5.5254,-5.1483,-4.8325,-4.5683,-4.1621,-3.9297,-3.832,-3.7832,-3.7676,-3.7559,-3.5617,-3.4767,-3.4192,-3.1458,-3.0419,-3.0358,-3.0107,-3.0112,-3.0259,-3.0259,0.0,0.0,0.0,-3.5253,-3.8916,-4.6985,-5.476,-6.2194,-6.8946,-7.2234,-7.3783,-7.3783,-7.4264,-7.448,-7.3783,-7.3591,-7.3615,-7.3927,-7.4048,0.0,0.0,0.0,0.0,0.0,0.0,0.0,0.0,0.0,0.0,0.0,0.0,0.0,0.0,0.0,-6.5923,-6.4928,-6.378,-6.2551,-6.1359,-6.124,-6.0863,-6.0169,-6.0408,-6.0143,-5.9412,-5.9412,-5.927,-5.9045,-5.8927,-5.9057,-5.9378,-5.9065,-5.8993,-5.9017,-5.8704,-5.9402,-6.0628,-6.0869,-6.1638,-6.2624,-6.2465,-6.2095,-6.138,0.0,0.0,0.0,0.0,0.0,0.0,0.0,0.0,0.0,0.0,0.0,-3.2324,-3.2324,0.0,0.0,0.0,-3.2148,-3.207,-3.2598,-3.3437,-3.4394,-3.5469,-3.543,-3.6035,-3.7402,-3.7031,-3.7987,-4.038,-4.3141,-4.8982,-5.7626,-6.0187,-6.0932,-5.9889,-5.4602,-5.0387,-4.7153,-4.328,-4.0924,-3.959,-3.8398,-3.7851,-3.7656,-3.6421,-3.5926,-3.551,-3.2884,-3.1929,-3.1828,-3.1162,-3.0843,-3.0788,-3.0817,-3.0516,0.0,0.0,0.0,-3.6342,-4.721,-5.3287,-5.8225,-6.4969,-6.8777,-7.1014,-7.1278,-7.2167,-7.2965,-7.2701,-7.2316,-7.21,-7.2388,0.0,0.0,0.0,0.0,0.0,0.0,0.0,0.0,0.0,0.0,0.0,0.0,0.0,0.0,0.0,0.0,-6.4224,-6.3577,-6.201,-6.0774,-6.0143,-5.9645,-5.9375,-5.9517,-5.9375,-5.9158,-5.8818,-5.87,-5.8418,-5.8126,-5.8142,-5.8426,-5.8996,-5.8694,-5.8752,-5.8969,-5.8704,-5.9378,-6.058,-6.07,-6.1422,-6.2321,-6.1979,-6.1563,-6.1051,0.0,0.0,0.0,0.0,0.0,0.0,0.0,0.0,0.0,0.0,0.0,-3.2754,-3.2754,-3.2734,-3.2578,-3.2226,-3.2519,-3.2578,-3.2226,-3.2988,-3.3672,-3.416,-3.4961,0.0,-3.6113,-3.6875,-3.8746,-4.1669,-4.3052,-4.986,-6.1486,-6.0825,-6.4146,-7.0492,-6.5449,-5.904,-5.1734,-4.8192,-4.4491,-4.0898,-3.8769,-3.6973,-3.5801,-3.8125,-3.875,-3.8111,-3.5993,-3.5239,-3.4864,-3.2185,-3.1034,-3.073,-3.0788,-3.0516,-3.0433,0.0,0.0,0.0,-4.1616,-4.6476,-5.1577,-5.8559,-6.4066,-6.7988,-6.899,-7.0336,-7.1114,-7.0103,-6.9863,-6.9719,-6.9238,0.0,0.0,0.0,0.0,0.0,0.0,0.0,0.0,0.0,0.0,0.0,0.0,0.0,0.0,0.0,0.0,-6.2985,-6.2023,-6.1422,-6.0614,-5.9592,-5.9097,-5.9053,-5.9547,-5.9138,-5.8794,-5.8771,-5.8324,-5.8173,-5.8126,-5.8521,-5.8403,-5.7951,-5.8444,-5.8319,-5.7935,-5.8392,-5.8945,-5.9522,-6.0027,-6.0893,-6.1816,-6.1836,-6.1563,-6.1004,0.0,0.0,0.0,0.0,0.0,0.0,0.0,0.0,0.0,0.0,0.0,0.0,0.0,-3.3281,-3.2949,-3.3359,-3.3281,-3.3125,-3.2988,-3.3008,-3.3457,-3.4434,-3.4785,-3.541,-3.6426,-3.6738,-3.7992,-4.0138,-4.19,-4.7519,-5.6722,-5.9771,-6.3886,-6.8572,-6.2921,-5.8366,-5.4518,-4.6814,-4.3339,-4.2782,-3.9327,-3.8672,-3.9637,-3.8682,-3.8984,-3.9515,-3.7493,-3.6386,-3.5681,-3.3924,-3.2516,-3.1407,-3.0659,-3.0314,-3.0211,-3.0405,-3.1634,-3.3923,-3.8807,-4.2544,-4.6446,-5.2434,-5.8329,-6.2548,-6.2572,-6.5754,-6.8538,-6.7822,-6.7701,-6.7482,0.0,0.0,0.0,0.0,0.0,0.0,0.0,0.0,0.0,0.0,0.0,0.0,0.0,0.0,0.0,0.0,0.0,0.0,-6.1398,-6.1177,-6.0498,-5.9163,-5.9554,-5.9421,-5.8671,-5.8485,-5.8034,-5.7453,-5.7268,-5.7013,-5.6689,-5.6761,-5.6877,-5.7019,-5.7754,-5.7983,-5.779,-5.7646,-5.8295,-5.9402,-5.9594,-6.0363,-6.1192,-6.0261,-5.9232,-5.8386,0.0,0.0,0.0,-3.7539,0.0,-3.6055,-3.5488,-3.4512,-3.4004,-3.4434,0.0,0.0,0.0,0.0,-3.4414,-3.4707,-3.4199,-3.3848,-3.3848,-3.373,-3.4101,-3.5098,-3.5293,-3.584,-3.6855,-3.7012,-3.7637,-3.8769,-4.0405,-4.5096,-5.2643,-5.6835,-6.1738,-6.6773,-6.1005,-5.8799,-5.8944,-5.1409,-4.7978,-4.7259,-4.2668,-4.2078,-4.3663,-4.189,-4.1797,-4.24,-4.0822,-3.9387,-3.7977,-3.5781,-3.3973,-3.2346,-3.1013,-3.0328,-2.9929,-2.9654,-3.0354,-3.196,-3.5529,-3.8184,-4.125,-4.6963,-5.2035,-5.605,-5.7642,-6.0951,-6.3948,-6.4609,-6.4574,-6.4464,0.0,0.0,0.0,0.0,0.0,0.0,0.0,0.0,0.0,0.0,0.0,0.0,0.0,0.0,0.0,0.0,0.0,0.0,-6.1374,-6.082,-5.9876,-5.839,-5.9051,-5.9011,-5.8132,-5.797,-5.7629,-5.6942,-5.6597,-5.6429,-5.6414,-5.6303,-5.6596,-5.7231,-5.7443,-5.7742,-5.8055,-5.7694,-5.8175,-5.9113,-5.8948,-5.944,-5.9991,-5.8088,-5.6845,-5.6066,-3.7578,-3.8281,-3.8457,-3.8027,-3.7266,-3.6445,-3.5605,-3.4355,-3.3652,-3.4121,0.0,0.0,0.0,0.0,0.0,-3.625,-3.5371,-3.4844,-3.4805,-3.5195,-3.5605,-3.6016,-3.6465,-3.6875,-3.7285,-3.7695,-3.791,-3.793,-3.8769,-4.285,-4.9829,-5.2075,-5.7736,-6.5775,-6.075,-6.0934,-6.4648,-6.1926,-5.8363,-5.4194,-4.8831,-4.6939,-4.7444,-4.7491,-4.7285,-4.6855,-4.6035,-4.4355,-4.1893,-3.775,-3.5264,-3.37,-3.1907,-3.0569,-2.9562,-2.958,-2.958,-2.9957,0.0,0.0,0.0,-4.1895,-4.5295,-4.8588,-5.4293,-5.6045,-5.7302,-6.0305,-6.0558,-6.0753,0.0,0.0,0.0,0.0,0.0,0.0,0.0,0.0,0.0,0.0,0.0,0.0,0.0,0.0,0.0,0.0,0.0,-6.1758,-6.1758,-6.0299,-5.8837,-5.7414,-5.7474,-5.7699,-5.8158,-5.7699,-5.747,-5.7447,-5.6391,-5.6414,-5.7382,-5.7311,-5.7751,-5.8569,-5.7452,-5.7646,-5.8608,-5.856,-5.856,-5.8502,-5.8092,-5.8154,-5.8247,-5.5591,-5.4559,-5.4236,-3.7324,-3.832,-3.8984,-3.8867,-3.8398,-3.7969,-3.7734,-3.6328,-3.5684,0.0,0.0,0.0,-3.7031,-3.8359,-3.9336,-3.9707,-3.9238,-3.8379,-3.7109,-3.6582,-3.6367,-3.6484,-3.6894,-3.7187,-3.7305,-3.7402,-3.7617,-3.793,-3.8476,-4.1073,-4.5556,-4.8683,-5.2538,-5.6882,-5.7508,-5.7578,-5.6931,-5.3759,-5.4207,-5.6407,-4.8947,-4.8392,-5.1552,-4.7354,-4.6621,-4.7773,-4.7246,-4.6465,-4.5285,-4.2968,-4.043,-3.7648,-3.3898,-3.124,-2.9635,-2.9947,-2.9819,-2.9828,-3.0876,0.0,0.0,0.0,0.0,0.0,-4.4401,-4.7837,-5.1629,-5.4469,-5.6111,0.0,0.0,0.0,0.0,0.0,0.0,0.0,0.0,0.0,0.0,0.0,0.0,0.0,0.0,0.0,0.0,0.0,-6.1326,-6.1037,-6.0652,-5.9578,-5.9185,-5.9515,-5.8201,-5.7539,-5.7676,-5.7171,-5.6896,-5.6896,-5.6197,-5.5947,-5.6252,-5.6478,-5.7038,-5.7571,-5.7629,-5.7983,-5.8536,-5.7766,-5.7911,-5.8502,-5.8092,-5.7191,-5.6058,-5.423,-5.2065,-5.0119,-3.7441,-3.875,-3.9805,-4.0,-3.9824,-3.9726,-3.9902,-3.8457,-3.7676,0.0,0.0,0.0,-3.9785,-4.1836,-4.2871,-4.2285,-4.1504,-4.0312,-3.8574,-3.7988,-3.7656,-3.748,-3.7695,-3.8086,-3.8633,-3.8476,-3.8398,-3.8457,-3.8711,-3.9929,-4.1921,-4.4795,-4.7479,-5.0001,-5.1669,-5.2265,-5.1893,-4.8852,-5.1194,-5.6496,-5.1844,-5.2218,-5.4964,-5.0458,-4.9433,-5.0293,-4.9883,-4.9336,-4.8365,-4.5832,-4.263,0.0,-3.5023,-3.2633,-3.132,-3.1038,-3.0772,-3.0685,-3.0936,-3.1351,-3.2041,-3.3377,0.0,0.0,-3.9617,-4.2094,-4.5102,0.0,-4.9981,0.0,0.0,0.0,0.0,0.0,0.0,0.0,0.0,0.0,0.0,0.0,0.0,0.0,0.0,0.0,0.0,-6.1758,-6.171,-6.1301,-6.0532,-5.9616,-5.9082,-5.9076,-5.7623,-5.6783,-5.6528,-5.6,-5.5923,-5.6298,-5.553,-5.5579,-5.6303,-5.6378,-5.6771,-5.7491,-5.7734,-5.8022,-5.829,-5.7613,-5.7574,-5.7773,-5.6421,-5.5214,-5.4029,-5.1231,-4.9051,-4.7464,0.0,-3.9473,-4.0762,-4.1289,-4.1426,-4.1641,-4.2207,-4.0859,-4.0,0.0,-4.0351,-4.1269,-4.4238,-4.6543,-4.6973,-4.4746,-4.3164,-4.1562,-3.9805,-3.9473,-3.916,-3.875,-3.8769,-3.9316,-4.043,-4.0137,-3.9707,-3.9199,-3.9199,-3.9258,-3.9355,-4.1218,-4.3063,-4.4785,-4.487,-4.6289,-4.841,-4.6576,-4.9413,-5.5049,-5.5181,-5.6251,-5.7535,-5.4904,-5.3808,-5.3652,-5.3164,-5.25,-5.1289,-4.743,-4.3346,0.0,0.0,0.0,0.0,-3.2556,-3.228,-3.2245,-3.1773,-3.1339,-3.145,-3.3705,-3.3709,0.0,-3.77,-3.8029,-3.8674,-4.2621,-4.3234,0.0,0.0,0.0,0.0,0.0,0.0,0.0,0.0,0.0,0.0,0.0,0.0,0.0,0.0,-6.0374,-6.101,-6.1758,-6.2119,-6.1855,-6.0748,-5.9822,-5.8711,-5.7313,-5.6408,-5.5739,-5.522,-5.4737,-5.4938,-5.5659,-5.48,-5.5178,-5.6776,-5.6477,-5.6709,-5.7485,-5.7686,-5.7778,-5.788,-5.7601,-5.7147,-5.642,-5.4111,-5.2913,-5.1976,-4.7839,-4.6104,-4.5832,-3.9277,-4.0351,-4.1406,-4.2519,-4.2988,-4.3711,-4.5195,-4.4258,-4.3906,-4.5371,-4.5781,-4.6973,-4.9629,-4.9766,-4.9746,-4.9902,-4.7168,-4.4687,-4.2949,-4.1211,-4.0078,-3.9648,-3.9961,-4.0098,-4.0019,-4.0273,-4.0,-3.9199,-3.9199,-3.957,-4.0273,-4.0656,-4.1102,-4.1438,-4.2184,-4.2724,-4.3299,-4.6833,-5.0121,-5.2729,-5.0909,-5.3693,-5.8471,-5.4443,-5.4219,-5.5859,-5.5078,-5.4687,-5.396,-5.0397,-4.6227,-4.2106,0.0,0.0,0.0,-3.3642,0.0,0.0,-3.3701,-3.4475,0.0,0.0,0.0,0.0,-3.3378,-3.4418,-3.6268,0.0,-3.9386,0.0,0.0,0.0,0.0,0.0,0.0,0.0,0.0,0.0,0.0,0.0,0.0,0.0,0.0,-5.8397,-5.9562,-6.1672,-6.1085,-6.0171,-5.9113,-5.8532,-5.7976,-5.729,-5.6758,-5.611,-5.522,-5.5412,-5.5368,-5.5125,-5.4821,-5.4658,-5.4689,-5.5415,-5.5708,-5.5635,-5.681,-5.7533,-5.7797,-5.6162,-5.5265,-5.4804,-5.4357,-5.2143,-4.8913,-4.7394,-4.5812,-4.4548,-4.0039,-4.125,-4.2519,-4.3828,-4.457,-4.5664,-4.7617,-4.6992,-4.6992,-4.8926,-5.0312,-5.1113,-5.1113,-5.1504,-5.1152,-4.9648,-4.7344,-4.5254,-4.3496,-4.1992,-4.0976,-4.0547,-4.0527,-4.082,-4.1465,-4.0859,-4.0508,-4.0488,-4.0078,-3.9746,-3.957,-4.0215,-4.0059,-3.9258,-4.0117,-4.0764,-4.1399,-4.387,-4.7197,-5.0895,-5.2434,-5.5586,-5.9149,-5.637,-5.623,-5.7422,-5.6328,-5.5254,-5.3769,-4.9833,-4.7128,0.0,0.0,-3.9355,-3.7742,0.0,-3.5899,-3.5546,0.0,0.0,0.0,-3.3852,0.0,0.0,0.0,-3.2232,-3.2759,-3.397,-3.4664,0.0,0.0,0.0,0.0,0.0,0.0,0.0,0.0,0.0,0.0,0.0,0.0,0.0,0.0,-5.6007,-5.7927,-6.0399,-6.0339,-5.9955,-5.9402,-5.8699,-5.7822,-5.6914,-5.6468,-5.5486,-5.4072,-5.444,-5.4504,-5.4223,-5.3997,-5.3992,-5.4098,-5.4853,-5.4815,-5.4312,-5.6055,-5.6337,-5.5458,-5.5085,-5.3676,-5.1604,-5.1702,-5.0309,-4.8009,-4.6231,-4.4971,-4.4193,-4.0449,-4.1894,-4.3437,-4.457,-4.5625,-4.6973,-4.8965,-4.8808,-4.9297,-5.1621,-5.3672,-5.416,-5.2148,-5.293,-5.2422,-4.9453,-4.7109,-4.5332,-4.4277,-4.2773,-4.1621,-4.0957,-4.0976,-4.1504,-4.2558,-4.1465,-4.1152,-4.168,-4.082,-3.9902,-3.8965,-3.9844,-3.9648,-3.8555,-3.8828,-3.9905,-4.1514,-4.1161,-4.4641,-5.0735,-5.5159,-5.764,-5.8629,-5.7913,-5.7816,-5.8131,-5.7158,-5.5449,-5.3066,-4.9394,-4.778,-4.669,-4.2656,-4.1496,0.0,0.0,0.0,0.0,0.0,0.0,0.0,0.0,0.0,-3.2991,0.0,0.0,0.0,0.0,0.0,0.0,0.0,0.0,0.0,0.0,0.0,0.0,0.0,0.0,0.0,0.0,0.0,0.0,0.0,-5.368,-5.62,-5.8776,-5.9041,-5.9233,-5.9546,-5.8628,-5.7454,-5.6031,-5.5503,-5.4218,-5.2126,-5.2953,-5.3132,-5.265,-5.31,-5.3476,-5.3731,-5.4331,-5.3959,-5.3014,-5.4677,-5.4232,-5.2525,-5.3251,-5.1655,-4.8643,-4.8891,-4.8365,-4.7356,-4.5053,-4.4193,-4.4104,-4.0449,-4.1894,-4.3242,-4.3769,-4.5215,-4.6777,-4.8144,-4.8945,-5.043,-5.3359,-5.4941,-5.582,-5.5918,-5.5098,-5.4648,-5.4961,-4.9629,-4.6797,-4.8144,-4.4551,-4.166,-4.0117,-4.1797,-4.2168,-4.084,-4.1738,-4.1894,-4.125,-4.0391,-4.0078,-4.0293,-3.9648,-3.9883,-4.0723,-3.8887,-4.0184,-4.3565,-4.2251,-4.6637,-5.4458,-5.5224,-5.5335,-5.5143,-5.6196,-5.6822,-5.7225,-5.7608,-5.6348,-5.4336,0.0,-5.0124,-4.678,0.0,-4.3507,-4.1537,-4.0529,0.0,0.0,0.0,0.0,0.0,0.0,-3.816,0.0,0.0,0.0,0.0,0.0,0.0,0.0,0.0,0.0,0.0,0.0,0.0,0.0,0.0,0.0,0.0,0.0,0.0,0.0,0.0,0.0,-5.4496,-5.7093,-5.6011,-5.5866,-5.7309,-5.6455,-5.5454,-5.4331,-5.3537,-5.189,-4.9273,-5.2065,-5.2253,-4.9855,-5.2617,-5.3465,-5.2782,-5.3323,-5.2671,-5.1136,-5.1441,-5.1279,-5.0547,-4.9011,-4.8137,-4.7877,-4.8707,-4.769,-4.5581,-4.4562,-4.4193,-4.4193,-4.0664,-4.1875,-4.291,-4.3594,-4.4726,-4.6152,-4.793,-5.1074,-5.3789,-5.5312,-5.707,-5.8242,-5.8437,-5.6855,-5.5527,-5.4883,-5.0742,-4.8164,-4.8144,-4.5019,-4.2969,-4.2519,-4.2402,-4.248,-4.2773,-4.207,-4.1758,-4.1894,-4.0801,-4.0234,-4.0156,-3.9492,-3.9766,-4.0742,-3.959,-4.1243,-4.4783,-4.3905,-4.6642,-5.1834,-5.249,-5.2686,-5.3008,-5.7478,-5.8727,-5.8177,-5.707,-5.6015,-5.4531,0.0,-4.9153,0.0,0.0,0.0,0.0,0.0,0.0,0.0,0.0,0.0,0.0,0.0,0.0,0.0,-3.4676,0.0,-3.2991,0.0,0.0,0.0,0.0,0.0,0.0,0.0,0.0,0.0,0.0,0.0,0.0,0.0,0.0,0.0,0.0,0.0,0.0,0.0,0.0,-5.3942,-5.553,-5.4765,-5.4145,-5.3696,-5.2097,-5.0479,-4.8828,-4.9924,-4.9715,-4.8309,-5.0613,-5.1428,-5.1106,-5.1434,-5.0825,-4.9657,-4.9497,-4.8668,-4.7244,-4.6952,-4.6335,-4.5642,-4.5744,-4.5527,-4.4976,-4.4417,-4.4193,-4.4193,-4.0527,-4.1601,-4.2422,-4.293,-4.4316,-4.6133,-4.8398,-5.1836,-5.4707,-5.6211,-5.7578,-5.8769,-5.9707,-5.8418,-5.7109,-5.6211,-5.3262,-5.0957,-4.9785,-4.6699,-4.4668,-4.4062,-4.293,-4.2695,-4.3496,-4.209,-4.1641,-4.2266,-4.0976,-4.0312,-4.0234,-3.9668,-3.9922,-4.0859,-4.043,-4.2307,-4.5698,-4.517,-4.7506,-5.1509,-5.2147,-5.3038,-5.4323,-5.8248,-5.9417,-5.8613,-5.6894,-5.5703,-5.4355,-5.0332,-4.9036,0.0,-4.6992,0.0,0.0,0.0,0.0,0.0,-3.9862,0.0,0.0,0.0,0.0,0.0,0.0,0.0,0.0,0.0,0.0,0.0,0.0,0.0,0.0,0.0,0.0,0.0,0.0,0.0,0.0,0.0,0.0,0.0,0.0,0.0,0.0,0.0,0.0,0.0,-5.363,-5.2854,-5.2452,-5.267,-5.0452,-4.8715,-4.7661,-4.7715,-4.7265,-4.6432,-4.8836,-4.9974,-4.9835,-4.9959,-4.9438,-4.8356,-4.744,-4.6017,-4.4278,-4.4966,-4.4567,-4.37,-4.3586,-4.3843,-4.4424,-4.4127,-4.4015,-4.3926,-3.9766,-4.0957,-4.1699,-4.1328,-4.4023,-4.7129,-4.9726,-4.9902,-5.123,-5.541,-5.5312,-5.6113,-5.9453,-5.9746,-6.0156,-6.1367,-5.832,-5.5996,-5.5117,-5.0664,-4.6582,-4.3262,0.0,-4.2891,0.0,0.0,-4.1797,-4.1816,-4.0547,-4.0332,-4.1113,-4.0273,-4.0547,-4.1738,-4.1328,-4.3089,-4.6259,-4.5828,-4.9953,-5.678,-5.6563,-5.8087,-6.0291,0.0,-5.713,-5.7851,-5.7344,0.0,0.0,-5.2891,-5.1192,0.0,0.0,0.0,0.0,0.0,0.0,0.0,0.0,0.0,0.0,-3.9601,0.0,0.0,0.0,0.0,-3.7044,0.0,0.0,0.0,0.0,0.0,0.0,-3.1921,0.0,0.0,0.0,0.0,0.0,0.0,0.0,0.0,0.0,0.0,0.0,0.0,0.0,0.0,-5.1369,-5.0341,-5.0005,-5.096,-4.8268,-4.6193,-4.4831,-4.5899,-4.5533,-4.3798,-4.8141,-4.9892,-4.9428,-4.9428,-4.8741,-4.734,-4.4852,-4.3258,-4.2426,-4.2462,-4.2394,-4.2486,-4.3188,-4.3499,-4.3518,-4.3499,-4.3499,-4.3499,-4.1348,-4.2148,-4.25,-4.207,-4.3203,-4.5039,-4.7637,-4.959,-5.2539,-5.7441,-5.8555,-6.0801,-6.5664,-6.4902,-6.4316,-6.5078,-6.1719,-5.8945,-5.7539,-5.3262,0.0,0.0,0.0,-4.5156,0.0,0.0,0.0,-4.2656,-4.1641,-4.1308,-4.1582,-4.1016,-4.1113,-4.1816,-4.2246,-4.3867,-4.6406,-4.7988,-4.9914,-5.2029,-5.2893,-5.5476,-5.878,0.0,0.0,-5.7227,-5.6511,-5.529,0.0,-5.334,-5.1718,-4.9966,-4.9811,-4.9079,-4.8046,-4.6542,-4.669,0.0,0.0,0.0,-4.5487,-4.0934,0.0,0.0,0.0,0.0,0.0,0.0,0.0,0.0,0.0,0.0,-3.3558,-3.2713,-3.2433,0.0,0.0,0.0,0.0,0.0,0.0,0.0,0.0,0.0,0.0,0.0,0.0,0.0,0.0,-4.8166,-4.9015,-4.9464,-4.6809,-4.5166,-4.4686,-4.3256,-4.2404,-4.2386,-4.4756,-4.5861,-4.5984,-4.5698,-4.5331,-4.479,-4.2792,-4.1779,-4.1482,-4.1482,-4.1941,-4.2692,-4.2968,-4.3408,-4.3848,-4.3591,-4.3499,-4.3499,-4.2461,-4.2637,-4.2676,-4.2851,-4.3633,-4.5098,-4.7695,-5.0644,-5.4219,-5.8828,-6.0801,-6.3633,-6.8476,-6.7773,-6.7031,-6.7324,-6.4902,-6.207,-5.8945,-5.6152,0.0,-5.1523,-4.9023,0.0,0.0,0.0,0.0,0.0,-4.2832,-4.2402,-4.2246,-4.166,-4.1543,-4.1875,-4.3496,-4.5,-4.6543,-5.0058,-5.162,-5.1788,-5.3294,-5.5211,0.0,0.0,-5.7511,-5.6417,0.0,-5.4402,-5.3301,-5.3008,-5.1797,-5.0391,-5.0391,-4.971,-4.8575,-4.7198,-4.7201,-4.709,-4.4257,-4.5181,0.0,-4.2309,-4.2162,0.0,-3.9858,0.0,0.0,0.0,0.0,0.0,0.0,0.0,0.0,-3.4334,-3.2674,0.0,0.0,-3.2784,0.0,0.0,0.0,0.0,0.0,0.0,0.0,0.0,0.0,0.0,0.0,0.0,-4.7504,-4.8169,-4.6404,-4.5174,-4.47,-4.2469,-4.1379,-4.1262,-4.2818,-4.3613,-4.3574,-4.3613,-4.3555,-4.3336,-4.1807,-4.106,-4.1079,-4.1225,-4.1831,-4.2692,-4.2968,-4.3408,-4.3866,-4.3756,-4.3609,-4.3499,-4.2969,-4.248,-4.2363,-4.3594,-4.5156,-4.7109,-4.9687,-5.2637,-5.5879,-5.9473,-6.1875,-6.4551,-6.8086,-6.8359,-6.8301,-6.8359,-6.7832,-6.5234,-5.9941,-5.9473,0.0,0.0,-5.0996,-4.9863,-4.8496,0.0,0.0,0.0,-4.3965,-4.3496,-4.3125,-4.2246,-4.1816,-4.1933,-4.4941,-4.6289,-4.6641,-5.1777,-5.4726,-5.5929,-5.7157,-5.7277,-5.6378,-5.3935,-5.3938,-5.5318,-5.46,-5.3377,-5.209,-5.209,-5.1523,-5.082,-5.0762,-4.9815,-4.855,-4.7189,-4.7319,-4.7384,-4.4487,-4.4811,-4.5611,-4.353,0.0,0.0,0.0,0.0,-4.1739,0.0,0.0,0.0,0.0,0.0,0.0,-3.6256,-3.411,0.0,0.0,0.0,0.0,0.0,0.0,0.0,0.0,0.0,0.0,0.0,0.0,0.0,0.0,0.0,-4.5559,-4.7064,-4.6805,-4.6017,-4.4778,-4.3479,-4.213,-4.0556,-4.2551,-4.304,-4.2322,-4.3079,-4.3254,-4.2822,-4.1611,-4.106,-4.1097,-4.1519,-4.1941,-4.2381,-4.3169,-4.3481,-4.3536,-4.3921,-4.3829,-4.3518,-4.2773,-4.3711,-4.4785,-4.5117,-4.5273,-4.6113,-4.8379,-5.1269,-5.5254,-6.0976,-6.414,-6.7558,-7.2012,-7.0781,-6.9863,-7.0508,-6.8652,0.0,0.0,0.0,0.0,-5.8711,-5.625,-5.4023,-5.209,-4.9583,0.0,-4.7226,0.0,-4.3186,-4.4023,-4.2832,-4.2109,-4.1914,-4.4629,-4.6016,-4.6601,-5.1133,-5.3853,-5.5234,-5.4794,-5.4821,0.0,0.0,-5.2419,-5.3397,-5.2988,-5.2266,-5.1597,-5.1991,-5.1719,-5.1017,-4.9682,-4.926,-4.8861,-4.7139,-4.7309,-4.7667,-4.6093,-4.6316,-4.6504,-4.4709,-4.4215,-4.3866,0.0,0.0,0.0,0.0,0.0,0.0,0.0,0.0,0.0,0.0,0.0,0.0,0.0,0.0,0.0,0.0,0.0,0.0,0.0,0.0,0.0,0.0,0.0,0.0,0.0,0.0,0.0,-4.5883,-4.5743,-4.5653,-4.5637,-4.2641,-4.1046,-4.0952,-4.1509,-4.1518,-4.1032,-4.1472,-4.1658,-4.1565,-4.1257,-4.106,-4.1097,-4.1519,-4.2087,-4.2729,-4.2949,-4.3224,-4.3499,-4.3609,-4.3774,-4.3884,-4.3926,-4.5898,-4.7344,-4.6387,-4.7578,-4.9062,-5.0273,-5.2226,-5.5488,-6.0801,-6.4492,-6.7676,-7.0566,-7.0742,-7.0781,-7.1074,-6.9414,0.0,-6.6445,0.0,0.0,-6.0918,-5.9004,-5.6894,-5.4531,-5.1658,0.0,-4.8496,0.0,-4.4026,-4.4375,-4.3242,-4.248,-4.2187,-4.459,-4.5801,-4.6308,-5.0605,-5.3387,-5.4782,-5.3767,0.0,0.0,-5.1393,-5.0919,-5.1244,-5.0872,-5.0678,-5.0697,-5.1094,-5.0746,-5.007,-4.9261,-4.8785,-4.8291,-4.744,-4.7455,-4.7734,-4.6992,-4.6937,-4.6925,-4.5775,-4.5333,-4.493,-4.3884,-4.4233,-4.4563,0.0,0.0,0.0,0.0,0.0,0.0,0.0,0.0,0.0,0.0,0.0,0.0,0.0,0.0,0.0,0.0,0.0,0.0,0.0,0.0,0.0,0.0,0.0,0.0,-4.5086,-4.6897,-4.756,-4.6819,-4.4724,-4.2997,-4.1699,-4.1268,-4.0657,-3.996,-4.0712,-4.0942,-4.063,-4.0998,-4.0969,-4.084,-4.1244,-4.1776,-4.2381,-4.2729,-4.3224,-4.3774,-4.394,-4.4141,-4.4343,-4.5605,-4.8008,-4.9316,-4.7363,-5.0527,-5.3516,-5.3965,-5.5078,-5.7148,-6.0723,-6.4551,-6.709,-6.7441,-6.9746,-7.1074,-7.0605,0.0,-6.8359,-6.5703,-6.6406,-6.5195,-6.1289,-6.0547,-5.9062,-5.6582,-5.3726,0.0,0.0,0.0,-4.5188,-4.4453,-4.3516,-4.2871,-4.2598,-4.4609,-4.5664,-4.6191,-5.0156,-5.2668,-5.3793,-5.3236,-5.2599,-5.1712,-5.0168,-4.9551,-4.9451,-4.8632,-4.9034,-4.9806,-4.9799,-4.9339,-4.8766,-4.9053,-4.8234,-4.738,-4.7583,-4.7683,-4.7552,-4.7204,-4.7057,-4.6929,-4.6562,-4.6177,-4.57,-4.5003,-4.4563,-4.438,-4.4618,-4.3243,0.0,0.0,0.0,0.0,0.0,0.0,0.0,0.0,0.0,0.0,0.0,0.0,0.0,0.0,0.0,0.0,0.0,0.0,0.0,0.0,0.0,0.0,0.0,-4.8,0.0,-4.7563,0.0,-4.5369,-4.2375,-4.1545,-4.0437,-3.9355,-4.0529,-4.0722,-4.0042,-4.073,-4.0859,-4.0584,-4.0969,-4.139,-4.1831,-4.2582,-4.3298,-4.3995,-4.4545,-4.4746,-4.4801,-4.6172,-4.7461,-4.832,-4.7598,-5.0742,-5.4316,-5.7187,-6.0156,-6.2871,-6.4941,-6.8594,-7.0898,-7.0625,-7.0722,-7.0547,-6.9746,-6.9531,0.0,0.0,0.0,0.0,-6.4785,-6.3262,-6.1582,-5.9687,-5.5669,-5.3091,0.0,0.0,-4.5066,-4.4883,-4.3652,-4.3047,-4.3008,-4.4121,-4.5605,-4.7383,-4.959,0.0,-5.0701,-5.1695,-5.1378,-5.0333,-4.9377,-4.9248,-4.9349,-4.8219,-4.8447,-4.9161,-4.8877,-4.8994,-4.9011,-4.793,-4.772,-4.7601,-4.6941,-4.697,-4.7185,-4.713,-4.6855,-4.658,-4.6507,-4.6177,-4.5847,-4.57,-4.5627,-4.5407,-4.4801,-4.4141,-4.3114,-4.1335,0.0,0.0,0.0,0.0,0.0,0.0,0.0,0.0,0.0,0.0,0.0,0.0,0.0,0.0,0.0,0.0,0.0,0.0,0.0,0.0,0.0,0.0,0.0,0.0,0.0,0.0,-4.2331,-4.1471,-4.0685,-3.984,-4.074,-4.0804,-4.0382,-4.0859,-4.1024,-4.0987,-4.1409,-4.1812,-4.2216,-4.2692,-4.2949,-4.3243,-4.4673,-4.5187,-4.5205,-4.832,-4.916,-5.0176,-5.1094,-5.4277,-5.7656,-6.043,-6.4199,-6.623,-6.5058,-6.6738,-6.8008,-6.8008,-6.9629,-7.0547,-7.0156,-6.9707,-6.9453,-6.9433,-6.8008,-6.6582,-6.5293,-6.3848,0.0,-6.0488,-5.6446,-5.3605,-5.2051,0.0,0.0,-4.4316,-4.3691,-4.3398,-4.3418,-4.3613,-4.4902,-4.6992,0.0,0.0,-4.8896,-5.0261,-5.0172,-4.9129,-4.8744,-4.8708,-4.8763,-4.7974,-4.8023,-4.8354,-4.8001,-4.8001,-4.8051,-4.7418,-4.7338,-4.748,-4.7209,-4.7259,-4.7369,-4.7167,-4.68,-4.6434,-4.6232,-4.603,-4.5938,-4.614,-4.603,-4.5773,-4.5388,-4.482,-4.3719,-4.1519,-3.9612,0.0,0.0,0.0,0.0,0.0,0.0,0.0,0.0,0.0,0.0,0.0,0.0,0.0,0.0,0.0,0.0,0.0,0.0,0.0,0.0,0.0,0.0,0.0,0.0,0.0,-4.3401,-4.1807,-4.0832,-4.0262,-4.0785,-4.084,-4.0492,-4.0895,-4.095,-4.0804,-4.1427,-4.2051,-4.2601,-4.2784,-4.3243,-4.3921,-4.493,-4.5425,-4.5645,-5.0918,-5.168,-5.2949,-5.5117,-5.8203,-6.0976,-6.2871,-6.6445,-6.791,-6.5137,-6.5293,-6.5644,-6.5644,-6.8691,-7.0547,-7.0195,-6.9746,-6.9394,-6.9199,-6.7734,-6.623,-6.4883,-6.373,-6.2402,-6.0723,-5.7109,-5.4062,0.0,0.0,0.0,0.0,-4.3531,-4.3312,0.0,0.0,0.0,0.0,0.0,-4.7002,-4.7894,-4.9176,-4.9194,-4.8286,-4.8286,-4.8286,-4.8231,-4.7827,-4.7754,-4.7797,-4.7354,-4.7051,-4.7007,-4.7057,-4.6977,-4.7039,-4.7351,-4.7497,-4.7479,-4.7075,-4.6727,-4.6379,-4.5993,-4.5883,-4.5975,-4.6287,-4.6122,-4.5847,-4.5663,-4.4856,-4.3646,-4.1996,-4.0749,0.0,0.0,0.0,0.0,0.0,0.0,0.0,0.0,0.0,0.0,0.0,0.0,0.0,0.0,0.0,-3.4123,-3.251,-3.6484,0.0,0.0,0.0,-4.4411,-4.5958,0.0,-4.4104,0.0,-4.204,-4.0859,-4.0492,-4.0877,-4.084,-4.0492,-4.0895,-4.0932,-4.0785,-4.1427,-4.2161,-4.2876,-4.3059,-4.3701,-4.4618,-4.5205,-4.5572,-4.5828,-5.3281,-5.4355,-5.5625,-5.7793,0.0,-6.248,-6.3457,-6.5605,-6.7383,-6.8242,-6.9394,-6.957,-6.8066,-6.957,-7.0097,-6.8535,-6.9043,-6.9101,-6.8359,-6.7383,-6.6113,-6.4433,-6.3906,-6.2988,-6.1601,-5.8555,-5.5527,0.0,0.0,0.0,0.0,0.0,0.0,0.0,0.0,0.0,0.0,-4.4933,-4.629,-4.7343,-4.8689,-4.878,-4.8286,-4.8286,-4.8286,-4.8231,-4.7827,-4.7919,-4.8102,-4.7411,-4.6819,-4.6525,-4.6584,-4.6602,-4.6544,-4.658,-4.6855,-4.7075,-4.6654,-4.6507,-4.6379,-4.5993,-4.5883,-4.5902,-4.5938,-4.592,-4.5682,-4.493,-4.3573,-4.2344,-4.1794,-4.0987,-4.0125,0.0,0.0,0.0,0.0,0.0,0.0,0.0,0.0,0.0,0.0,0.0,0.0,0.0,0.0,-3.2213,-3.1663,-3.4248,-3.5445,-3.4768,0.0,-4.0173,-4.1163,-4.0981,0.0,-4.2488,-4.1579,-4.0859,-4.0492,-4.0877,-4.084,-4.0492,-4.0895,-4.1262,-4.1574,-4.1666,-4.2161,-4.2931,-4.3683,-4.405,-4.427,-4.5425,-4.5627,-4.5407,0.0,0.0,0.0,0.0,0.0,0.0,0.0,-6.6699,-6.7441,-6.7949,-6.8476,-6.8652,-6.8242,-6.8808,-6.8926,-6.8242,-6.8242,-6.8008,-6.7441,-6.6348,-6.5176,-6.3984,-6.3281,-6.2422,-6.1367,-5.9414,-5.6523,0.0,0.0,0.0,0.0,0.0,0.0,0.0,0.0,-4.2016,-4.4095,-4.504,-4.6126,-4.7266,-4.8592,-4.878,-4.8286,-4.8286,-4.8286,-4.8267,-4.8102,-4.7846,-4.7534,-4.7222,-4.7149,-4.7167,-4.6929,-4.702,-4.7204,-4.7204,-4.7332,-4.7424,-4.7259,-4.6855,-4.6434,-4.6287,-4.6067,-4.5883,-4.5883,-4.5883,-4.5737,-4.5168,-4.4141,-4.3243,-4.2839,-4.2509,-4.2014,0.0,0.0,0.0,0.0,0.0,0.0,0.0,0.0,0.0,0.0,0.0,0.0,0.0,0.0,0.0,-3.2305,-3.3299,0.0,-3.4958,0.0,-3.8349,-4.0534,-4.0565,-4.1118,-4.2333,-4.1505,-4.0987,-4.0822,-4.0987,-4.0969,-4.084,-4.0987,-4.1427,-4.2051,-4.2051,-4.2656,-4.3628,-4.3958,-4.4526,-4.5205,-4.5443,-4.5737,-4.5993,-5.959,0.0,-5.998,0.0,-6.3867,-6.4433,-6.7265,-6.75,-6.7324,-6.7324,-6.7324,-6.7441,-6.7773,-6.791,-6.7949,-6.7793,-6.7383,-6.6914,-6.6523,-6.541,-6.4375,-6.3515,-6.2773,0.0,-6.1484,-5.998,-5.748,-5.4023,-5.2048,0.0,0.0,0.0,0.0,0.0,-4.1909,-4.3015,-4.504,-4.5606,-4.6448,-4.7428,-4.854,-4.8693,-4.8286,-4.8286,-4.8286,-4.8286,-4.8286,-4.7919,-4.7424,-4.7314,-4.7461,-4.7607,-4.7075,-4.7112,-4.7369,-4.7479,-4.7516,-4.7516,-4.7516,-4.7185,-4.6782,-4.6544,-4.6269,-4.603,-4.592,-4.5883,-4.581,-4.5535,-4.4728,-4.4031,-4.3866,-4.3463,-4.2913,0.0,0.0,0.0,0.0,0.0,0.0,0.0,0.0,-3.303,-3.227,0.0,0.0,0.0,0.0,0.0,0.0,0.0,0.0,0.0,0.0,0.0,0.0,-4.0195,-4.0916,-4.2196,-4.1431,-4.1189,-4.1427,-4.1427,-4.1427,-4.1427,-4.1427,-4.1739,-4.2271,-4.2271,-4.2931,-4.394,-4.416,-4.4856,-4.5718,-4.5663,-4.592,-4.6269,-6.0449,-6.1035,-6.2402,-6.668,-6.6738,-6.6621,-6.7969,-6.7441,-6.6875,-6.6875,-6.6875,-6.6875,-6.6875,-6.7265,-6.7324,-6.6914,-6.6504,-6.6055,-6.5644,-6.4785,-6.3965,0.0,0.0,-6.2363,-6.2363,-6.0273,-5.8535,-5.7168,0.0,0.0,-4.8552,0.0,-4.3649,-4.2945,-4.3261,-4.4123,-4.5352,-4.6562,-4.7314,-4.7754,-4.8579,-4.8653,-4.8286,-4.8286,-4.8286,-4.8286,-4.8286,-4.8286,-4.8212,-4.7827,-4.7699,-4.7552,-4.6745,-4.6489,-4.658,-4.6984,-4.7112,-4.7112,-4.7112,-4.7387,-4.7479,-4.6672,-4.647,-4.6379,-4.5975,-4.5883,-4.5883,-4.5883,-4.493,-4.4196,-4.4581,-4.3371,-4.2161,-4.1757,0.0,0.0,0.0,0.0,0.0,0.0,-3.5577,-3.4623,-3.2221,0.0,0.0,0.0,0.0,0.0,0.0,0.0,0.0,-3.3755,-3.575,0.0,-3.864,-3.9428,-4.0455,-4.1684,-4.1262,-4.1482,-4.2271,-4.2271,-4.2271,-4.2271,-4.2271,-4.2271,-4.2271,-4.2271,-4.2766,-4.3573,-4.4361,-4.493,-4.5407,-4.6177,-4.6213,-4.5902,-6.2168,-6.2871,-6.3789,-6.5469,-6.5996,-6.6348,-6.6797,-6.6855,-6.6972,-6.7265,-6.7265,-6.7265,-6.7265,-6.7148,-6.6914,0.0,-6.6289,-6.5801,0.0,-6.4199,-6.3515,-6.2598,-6.2168,-6.166,-6.1074,-6.0957,-5.957,-5.6777,0.0,0.0,0.0,-4.5703,-4.4396,-4.4123,-4.482,-4.5792,-4.6984,-4.7626,-4.8304,-4.8909,-4.8598,-4.8579,-4.8689,-4.8396,-4.8286,-4.8286,-4.8286,-4.7937,-4.7497,-4.7644,-4.7516,-4.7295,-4.7295,-4.7314,-4.7332,-4.7461,-4.7699,-4.7901,-4.7901,-4.7809,-4.7626,-4.7369,-4.6892,-4.6452,-4.6324,-4.6085,-4.5737,-4.5168,-4.4746,-4.4435,-4.4306,-4.3848,-4.3389,-4.2986,0.0,0.0,0.0,0.0,0.0,0.0,0.0,-3.3885,0.0,-3.3304,0.0,0.0,0.0,0.0,0.0,0.0,0.0,0.0,-3.5628,0.0,-3.8542,-3.9428,-4.0455,-4.1684,-4.1555,-4.1776,-4.2271,-4.1996,-4.2014,-4.2271,-4.2271,-4.2436,-4.2674,-4.2674,-4.3151,-4.3958,-4.4471,-4.493,-4.537,-4.5883,-4.5993,-4.5883,-6.293,-6.3457,-6.414,-6.5,-6.5469,-6.5859,-6.6152,-6.6328,-6.6465,-6.6738,-6.6797,-6.6855,-6.6972,-6.664,0.0,-6.5996,-6.5527,-6.4941,-6.414,-6.3515,-6.2949,-6.2363,-6.1953,-6.1543,-6.1191,0.0,0.0,-5.8262,-5.7185,-5.4397,-5.0101,-4.8029,-4.6919,-4.6745,-4.7094,-4.7662,-4.8396,-4.8799,-4.9184,-4.9478,-4.9111,-4.8946,-4.8891,-4.8616,-4.8414,-4.8286,-4.8286,-4.7974,-4.7571,-4.7662,-4.7534,-4.7351,-4.7442,-4.7571,-4.7717,-4.7864,-4.7882,-4.7901,-4.8212,-4.8102,-4.7846,-4.7552,-4.7204,-4.6855,-4.6544,-4.6177,-4.5792,-4.5425,-4.4985,-4.4636,-4.4563,-4.3921,-4.3316,-4.3078,0.0,0.0,0.0,0.0,0.0,0.0,0.0,0.0,0.0,-3.4112,0.0,0.0,0.0,0.0,0.0,0.0,0.0,-3.6034,-3.6312,0.0,-3.9538,-3.9887,-4.0694,-4.1904,-4.1904,-4.2032,-4.2271,-4.2179,-4.2344,-4.2729,-4.2729,-4.2876,-4.3096,-4.2931,-4.3426,-4.4306,-4.4416,-4.4893,-4.5553,-4.5792,-4.5883,-4.5883,-6.2812,-6.2988,0.0,0.0,-6.5117,0.0,-6.5976,-6.582,-6.5586,-6.5644,-6.5644,-6.582,-6.6211,-6.582,-6.5527,-6.5527,0.0,0.0,0.0,-6.2832,-6.2363,-6.2305,-6.1953,-6.1894,-6.2246,-6.1543,-6.1152,-6.1094,-5.7594,-5.5091,-5.3601,-5.1958,-5.0744,-5.0193,-4.9808,-4.9624,-4.9643,-5.001,-4.9955,-4.9661,-4.9955,-4.9643,-4.9001,-4.8964,-4.8689,-4.8322,-4.8322,-4.8286,-4.8194,-4.7846,-4.7717,-4.7644,-4.7295,-4.7406,-4.7736,-4.8121,-4.7736,-4.7351,-4.8084,-4.8286,-4.8102,-4.7332,-4.7387,-4.7406,-4.6617,-4.6158,-4.5993,-4.6324,-4.5517,-4.4856,-4.5205,-4.3701,-4.2381,-4.2289,-4.0584,-3.886,-3.7631,0.0,0.0,0.0,0.0,0.0,0.0,-3.5284,-3.5449,0.0,0.0,0.0,0.0,0.0,-3.6534,-3.6861,-3.7649,-3.9006,-4.1005,-4.0657,-4.1079,-4.2271,-4.2271,-4.2307,-4.2381,-4.2747,-4.3133,-4.3536,-4.3573,-4.3573,-4.3536,-4.3151,-4.3664,-4.4636,-4.4306,-4.4856,-4.5847,-4.5883,-4.5883,-4.5883,0.0,0.0,-6.2871,-6.3965,-6.4043,-6.414,-6.4668,-6.5234,-6.5703,-6.6035,-6.6055,-6.623,-6.668,-6.5762,-6.5117,-6.5117,-6.4531,-6.375,-6.2754,-6.248,-6.2187,-6.1894,-6.207,-6.1777,-6.0898,-6.166,-6.1738,-6.1094,-5.8155,-5.632,-5.5549,-5.3334,-5.1856,-5.1018,-5.0927,-5.089,-5.0872,-5.067,-5.0688,-5.0817,-4.9991,-4.9735,-4.9808,-4.9478,-4.9111,-4.8763,-4.8763,-4.8359,-4.7864,-4.8084,-4.7937,-4.7736,-4.7937,-4.7662,-4.7332,-4.7717,-4.7919,-4.8047,-4.8231,-4.8286,-4.8157,-4.7681,-4.7167,-4.6635,-4.614,-4.5957,-4.5828,-4.5627,-4.559,-4.5443,-4.4911,-4.4178,-4.3353,-4.2417,-4.0822,-3.9263,-3.8053,0.0,0.0,0.0,-3.5724,-3.5705,-3.4385,-3.5449,-3.6146,0.0,0.0,0.0,0.0,0.0,-3.78,-3.7301,-3.8071,-3.9171,-4.0602,-4.0529,-4.1079,-4.2271,-4.2271,-4.2601,-4.3206,-4.3298,-4.3573,-4.3958,-4.4251,-4.4398,-4.438,-4.4288,-4.4416,-4.4691,-4.493,-4.5187,-4.548,-4.5773,-4.5883,-4.5883,-6.2305,-6.2539,-6.2871,-6.3574,-6.4023,-6.4199,-6.4043,-6.4726,-6.5234,-6.5078,-6.5234,-6.5527,-6.5937,-6.5,-6.4375,-6.4375,-6.3965,-6.3437,-6.2715,-6.2305,-6.1953,-6.1719,-6.2129,-6.2012,-6.1328,-6.2012,-6.1953,-6.1094,-5.9092,-5.7667,-5.6946,-5.542,-5.396,-5.2669,-5.2302,-5.2027,-5.1843,-5.144,-5.1293,-5.1257,-5.0596,-5.0248,-5.0101,-4.9881,-4.9533,-4.9184,-4.9184,-4.8891,-4.8524,-4.8561,-4.8432,-4.8231,-4.8066,-4.7846,-4.7662,-4.7681,-4.7717,-4.7827,-4.8194,-4.8286,-4.8194,-4.7791,-4.7075,-4.6415,-4.6213,-4.6012,-4.5828,-4.5608,-4.559,-4.5425,-4.4783,-4.3903,-4.2913,-4.1886,-4.0198,-3.8585,-3.7356,-3.6787,0.0,-3.5394,-3.6494,-3.6916,-3.5889,-3.6879,-3.7374,-3.6879,0.0,0.0,-3.7723,-3.8841,-3.9098,-3.8273,-3.9043,-3.9978,-4.1024,-4.1024,-4.1354,-4.1996,-4.1812,-4.2142,-4.2949,-4.3133,-4.3426,-4.3848,-4.4416,-4.4783,-4.4948,-4.4746,-4.4893,-4.5223,-4.5278,-4.5407,-4.559,-4.581,-4.5883,-4.5883,-6.2187,-6.2578,-6.2988,-6.3398,-6.4199,-6.4531,-6.3867,-6.4492,-6.4765,-6.4082,-6.4199,-6.4531,-6.4824,-6.414,-6.3672,-6.3574,-6.3203,-6.291,-6.2851,-6.2129,-6.1719,-6.1816,-6.2246,-6.2363,-6.2187,-6.1973,-6.1621,-6.1094,-5.9746,-5.8755,-5.7988,-5.706,-5.5786,-5.4283,-5.3586,-5.3035,-5.2595,-5.2265,-5.1843,-5.1403,-5.133,-5.0872,-5.023,-5.023,-4.9955,-4.9588,-4.9588,-4.9514,-4.9368,-4.9093,-4.8928,-4.8708,-4.8084,-4.8029,-4.8139,-4.7864,-4.7497,-4.7351,-4.8084,-4.8249,-4.8102,-4.7699,-4.7039,-4.6452,-4.6397,-4.614,-4.5883,-4.5883,-4.5663,-4.5333,-4.4856,-4.3499,-4.2179,-4.1299,-3.9392,-3.7649,-3.6622,0.0,-3.6622,-3.6054,-3.7613,-3.8493,-3.7851,-3.8658,-3.8768,-3.7649,-3.8213,0.0,0.0,-3.9685,-4.0272,-3.9447,-4.0272,-4.1042,-4.1684,-4.1739,-4.1776,-4.1776,-4.1482,-4.1757,-4.2564,-4.2894,-4.3316,-4.3811,-4.4471,-4.5003,-4.5352,-4.5003,-4.526,-4.5865,-4.5517,-4.559,-4.5883,-4.5883,-4.5883,-4.5883,-6.1777,-6.1875,-6.207,-6.248,-6.3281,-6.3965,-6.4199,-6.4941,-6.543,-6.5312,-6.5,-6.4707,-6.4433,-6.3965,-6.3515,-6.3164,-6.2715,-6.2305,-6.1953,-6.1777,-6.1894,-6.2246,-6.2695,-6.2402,-6.1328,-6.0234,-6.0156,-6.1094,-5.9453,-5.8353,-5.7969,-5.6757,-5.5505,-5.4338,-5.4172,-5.3751,-5.3017,-5.2962,-5.2504,-5.1807,-5.1458,-5.1037,-5.0633,-5.0633,-5.0376,-5.0028,-5.0028,-4.9588,-4.9056,-4.9313,-4.8946,-4.8414,-4.8653,-4.8286,-4.7846,-4.8121,-4.7919,-4.7699,-4.8157,-4.8047,-4.7699,-4.7295,-4.6837,-4.6397,-4.6048,-4.5938,-4.5883,-4.5883,-4.6103,-4.6067,-4.5333,-4.416,-4.2931,-4.1776,-3.9575,-3.7943,0.0,0.0,-3.7044,-3.7576,-3.853,-3.9226,-3.9527,-3.9318,-3.9703,-4.0859,-3.9813,-3.9538,-4.0437,-4.1134,-4.1134,-4.0308,-4.139,-4.1904,-4.1684,-4.2014,-4.2179,-4.2197,-4.2454,-4.3004,-4.3811,-4.3866,-4.4306,-4.5021,-4.515,-4.5425,-4.5792,-4.5718,-4.5773,-4.5883,-4.5828,-4.5828,-4.5883,-4.5883,-4.5883,-4.5883,-6.166,-6.1894,-6.2129,-6.2305,-6.3281,-6.3926,-6.3672,-6.4531,-6.5058,-6.4609,-6.459,-6.4433,-6.4023,-6.3574,-6.3164,-6.2695,-6.248,-6.2148,-6.16,-6.1602,-6.1894,-6.2363,-6.2812,-6.2754,-6.2168,-6.0859,-6.0508,-6.1094,-6.0039,-5.8971,-5.7988,-5.759,-5.6385,-5.4649,-5.4429,-5.4007,-5.3439,-5.3219,-5.2669,-5.1917,-5.1733,-5.1275,-5.0725,-5.0725,-5.0615,-5.045,-5.045,-5.0211,-4.9881,-4.9845,-4.9588,-4.9276,-4.9239,-4.8818,-4.8396,-4.8579,-4.8341,-4.8047,-4.8231,-4.8157,-4.7919,-4.7516,-4.7277,-4.7039,-4.6635,-4.636,-4.6213,-4.6213,-4.6177,-4.5993,-4.5407,-4.3958,-4.2803,-4.2674,-4.0052,0.0,0.0,-3.831,-3.7943,-3.831,-3.9263,-3.9978,-4.0162,-4.0198,-4.0529,-4.1299,-4.0639,-4.0565,-4.1354,-4.1592,-4.1721,-4.1757,-4.1886,-4.1867,-4.1684,-4.2087,-4.2381,-4.2601,-4.2784,-4.3188,-4.3774,-4.3995,-4.4288,-4.4673,-4.5113,-4.5407,-4.559,-4.581,-4.5883,-4.5883,-4.5883,-4.5883,-4.5883,-4.5883,-4.5883,-4.5883,-6.1933,-6.2187,-6.2363,-6.2363,-6.3281,-6.3789,-6.3144,-6.4023,-6.4551,-6.3906,-6.4101,-6.414,-6.3574,-6.3223,-6.2871,-6.2422,-6.2363,-6.2166,-6.1809,-6.1972,-6.2089,-6.24,-6.2674,-6.2871,-6.2871,-6.1388,-6.0686,-6.0801,-6.0045,-5.9108,-5.7988,-5.8101,-5.6946,-5.4924,-5.4594,-5.4117,-5.3586,-5.3366,-5.2797,-5.2064,-5.1972,-5.1568,-5.0982,-5.0798,-5.0835,-5.0982,-5.089,-5.0853,-5.0817,-5.0505,-5.0285,-5.0083,-4.9753,-4.9368,-4.9056,-4.9056,-4.8818,-4.8543,-4.8451,-4.8432,-4.8304,-4.7809,-4.7699,-4.7589,-4.7204,-4.6855,-4.6599,-4.6507,-4.6232,-4.5883,-4.5388,-4.3884,-4.2784,-4.3041,0.0,0.0,0.0,-3.9226,-3.8878,-3.9171,-4.029,-4.0987,-4.0895,-4.1335,-4.1629,-4.1629,-4.1629,-4.1721,-4.1959,-4.2142,-4.2491,-4.3004,-4.2417,-4.2106,-4.2106,-4.2491,-4.2803,-4.3004,-4.3206,-4.3499,-4.3921,-4.4031,-4.4233,-4.4526,-4.4966,-4.526,-4.5462,-4.5773,-4.5883,-4.5883,-4.5883,-4.5883,-4.5883,-4.5883,-4.5883,-4.5883,-6.2871,-6.2637,-6.2363,-6.2363,-6.2812,-6.3105,-6.3047,-6.3789,-6.4316,-6.4258,-6.4316,-6.4023,-6.3164,-6.3047,-6.2871,-6.2422,-6.2363,-6.2539,-6.283,-6.285,-6.2886,-6.2674,-6.2475,-6.2422,-6.2422,-6.0206,-5.9355,-5.9922,-5.8542,-5.7831,-5.7988,-5.7249,-5.616,-5.4924,-5.4869,-5.4228,-5.3164,-5.3531,-5.3219,-5.2449,-5.2082,-5.1898,-5.177,-5.1,-5.1183,-5.1788,-5.1403,-5.1257,-5.1257,-5.1238,-5.0743,-5.012,-5.0101,-4.979,-4.9459,-4.9459,-4.9441,-4.9331,-4.8964,-4.8873,-4.8689,-4.7882,-4.7699,-4.7589,-4.7204,-4.7075,-4.6947,-4.6562,-4.6452,-4.6195,-4.5443,-4.4563,-4.3481,-4.2051,0.0,0.0,-3.9913,-3.9465,-3.9612,-4.0749,-4.1959,-4.2546,-4.2179,-4.2858,-4.3316,-4.3316,-4.3316,-4.3151,-4.2803,-4.3499,-4.3774,-4.3463,-4.3389,-4.3371,-4.3371,-4.3756,-4.3774,-4.3463,-4.4196,-4.4765,-4.515,-4.4416,-4.4691,-4.5718,-4.5021,-4.515,-4.5847,-4.5883,-4.5883,-4.5883,-4.5883,-4.5883,-4.5883,-4.5883,-4.5883,-4.5883,-6.291,-6.2695,-6.2363,-6.2363,-6.2519,-6.2637,-6.2637,-6.334,-6.4023,-6.4258,-6.4082,-6.3906,-6.3848,-6.334,-6.2969,-6.2812,-6.3047,-6.3103,-6.2818,-6.3431,-6.3528,-6.2707,-6.2099,-6.1671,-6.1545,-5.9783,-5.9262,-6.0013,-5.8935,-5.8232,-5.7988,-5.7647,-5.6553,-5.4924,-5.4649,-5.4172,-5.3494,-5.3384,-5.3035,-5.2522,-5.2357,-5.2155,-5.188,-5.1312,-5.144,-5.188,-5.1458,-5.1477,-5.1697,-5.1697,-5.166,-5.1532,-5.1018,-5.0743,-5.0523,-5.0028,-4.9881,-4.9863,-4.9716,-4.9294,-4.8836,-4.8524,-4.8249,-4.8029,-4.7864,-4.7644,-4.7424,-4.7259,-4.6837,-4.6379,-4.6085,-4.4966,-4.4215,-4.46,0.0,-4.1702,-4.2692,-4.1849,-4.1299,-4.1757,-4.2216,-4.2436,-4.2289,-4.2784,-4.3114,-4.3114,-4.3353,-4.3426,-4.3261,-4.3774,-4.4013,-4.3866,-4.4105,-4.4105,-4.3866,-4.4251,-4.438,-4.4233,-4.4801,-4.515,-4.5297,-4.4985,-4.5095,-4.5517,-4.5205,-4.5242,-4.5535,-4.5792,-4.5883,-4.5883,-4.5883,-4.5883,-4.5883,-4.5883,-4.5883,-4.5883,-6.291,-6.2871,-6.2773,-6.2773,-6.2656,-6.2578,-6.2578,-6.3105,-6.3633,-6.4082,-6.3867,-6.3808,-6.4082,-6.3613,-6.3223,-6.3223,-6.3515,-6.3551,-6.305,-6.3461,-6.3558,-6.2861,-6.1699,-6.1097,-6.0866,-5.9223,-5.873,-5.9418,-5.8577,-5.7912,-5.7571,-5.7571,-5.6608,-5.4924,-5.4649,-5.4228,-5.3622,-5.3439,-5.3072,-5.2705,-5.2577,-5.243,-5.2247,-5.1715,-5.1843,-5.2247,-5.1843,-5.1954,-5.2284,-5.2155,-5.2302,-5.2412,-5.1715,-5.1513,-5.1348,-5.0541,-5.0413,-5.0468,-5.0358,-4.9808,-4.9258,-4.9129,-4.8873,-4.8634,-4.8506,-4.8267,-4.8011,-4.7754,-4.7259,-4.6819,-4.669,-4.5663,-4.5077,-4.5792,-4.4178,-4.3188,-4.416,-4.3353,-4.2656,-4.2656,-4.2876,-4.2876,-4.2491,-4.2931,-4.3206,-4.3078,-4.3444,-4.3738,-4.3866,-4.4251,-4.4471,-4.4471,-4.4856,-4.493,-4.4655,-4.4801,-4.4875,-4.4875,-4.5297,-4.548,-4.548,-4.5352,-4.537,-4.548,-4.5352,-4.537,-4.5498,-4.5773,-4.5883,-4.5883,-4.5883,-4.5883,-4.5883,-4.5883,-4.5883,-4.5883,-6.3027,-6.3379,-6.3691,-6.3691,-6.332,-6.3027,-6.3027,-6.3027,-6.3203,-6.3633,-6.3691,-6.3691,-6.3691,-6.3691,-6.3691,-6.3691,-6.3691,-6.3691,-6.3691,-6.305,-6.2861,-6.3303,-6.1492,-6.0487,-6.0487,-5.8279,-5.7397,-5.7988,-5.7004,-5.6476,-5.6476,-5.6476,-5.5913,-5.4924,-5.4924,-5.4484,-5.3751,-5.3751,-5.3494,-5.3091,-5.2687,-5.276,-5.3035,-5.2247,-5.243,-5.3054,-5.2669,-5.2779,-5.3054,-5.2669,-5.254,-5.2467,-5.2064,-5.1935,-5.177,-5.0963,-5.1,-5.122,-5.0835,-5.045,-5.0046,-4.9624,-4.9514,-4.9404,-4.9001,-4.8909,-4.8689,-4.7864,-4.7699,-4.7571,-4.7185,-4.6764,-4.6085,-4.4875,-4.4361,-4.3958,-4.3573,-4.3518,-4.3518,-4.3518,-4.4196,-4.4196,-4.2986,-4.3609,-4.3921,-4.3518,-4.3866,-4.4251,-4.4655,-4.5077,-4.5297,-4.5297,-4.5682,-4.5883,-4.5883,-4.5498,-4.5297,-4.5315,-4.57,-4.5883,-4.5883,-4.548,-4.5517,-4.5865,-4.548,-4.5535,-4.5883,-4.5883,-4.5883,-4.5883,-4.5883,-4.5883,-4.5883,-4.5883,-4.5883,-4.5883,-6.2109,-6.2695,-6.3144,-6.2812,-6.293,-6.3027,-6.3027,-6.3281,-6.3633,-6.4082,-6.3867,-6.3906,-6.4492,-6.4023,-6.3808,-6.4082,-6.414,-6.3898,-6.3495,-6.2497,-6.1783,-6.1128,-6.0425,-6.0061,-6.0304,-5.7916,-5.7056,-5.7829,-5.6944,-5.6476,-5.6476,-5.6476,-5.608,-5.5346,-5.5071,-5.4649,-5.4117,-5.3861,-5.3494,-5.3109,-5.298,-5.2999,-5.3054,-5.254,-5.2669,-5.3054,-5.2669,-5.2779,-5.3091,-5.298,-5.3146,-5.3311,-5.2889,-5.2375,-5.188,-5.1642,-5.166,-5.1715,-5.1605,-5.1477,-5.1238,-5.0523,-4.9918,-4.9404,-4.9001,-4.8909,-4.8763,-4.8212,-4.7882,-4.7662,-4.7534,-4.7185,-4.6709,-4.6048,-4.5847,-4.5627,-4.5223,-4.493,-4.4765,-4.4765,-4.471,-4.4416,-4.3774,-4.394,-4.4031,-4.3921,-4.427,-4.4545,-4.4673,-4.5077,-4.5297,-4.5297,-4.5682,-4.5883,-4.5883,-4.5773,-4.5718,-4.5718,-4.5828,-4.5883,-4.5883,-4.5773,-4.5773,-4.5883,-4.5773,-4.5773,-4.5883,-4.5883,-4.5883,-4.5883,-4.5883,-4.5883,-4.5883,-4.5883,-4.5883,-4.5883,-6.125,-6.1933,-6.2402,-6.2129,-6.2637,-6.3027,-6.3027,-6.3555,-6.4023,-6.4258,-6.4082,-6.414,-6.4648,-6.4258,-6.4023,-6.4316,-6.3937,-6.3514,-6.3303,-6.233,-6.1456,-6.11,-5.9973,-5.9285,-5.9063,-5.7117,-5.645,-5.7099,-5.645,-5.6135,-5.6135,-5.6135,-5.5889,-5.5434,-5.5291,-5.4961,-5.4539,-5.4319,-5.3897,-5.3366,-5.3366,-5.3274,-5.3091,-5.2852,-5.2907,-5.3091,-5.2852,-5.2907,-5.3109,-5.3109,-5.3274,-5.3439,-5.3219,-5.2797,-5.2375,-5.221,-5.2174,-5.2174,-5.2174,-5.2064,-5.1825,-5.133,-5.0706,-5.0065,-4.9514,-4.9386,-4.9239,-4.8653,-4.8341,-4.8121,-4.7956,-4.7607,-4.7259,-4.7002,-4.6819,-4.658,-4.6177,-4.592,-4.5645,-4.5333,-4.5077,-4.4765,-4.4361,-4.4325,-4.4325,-4.4325,-4.4691,-4.4911,-4.4911,-4.5315,-4.5535,-4.5535,-4.5773,-4.5883,-4.5883,-4.5883,-4.5883,-4.5883,-4.5883,-4.5883,-4.5883,-4.5883,-4.5883,-4.5883,-4.5883,-4.5883,-4.5883,-4.5883,-4.5883,-4.5883,-4.5883,-4.5883,-4.5883,-4.5883,-4.5883,-4.5883,-6.039,-6.1015,-6.166,-6.1601,-6.2344,-6.2988,-6.2988,-6.3672,-6.4238,-6.4316,-6.4258,-6.4297,-6.4375,-6.4316,-6.4316,-6.4316,-6.3282,-6.2842,-6.3143,-6.2227,-6.1748,-6.1985,-5.9978,-5.834,-5.7327,-5.6153,-5.5768,-5.6208,-5.5768,-5.5548,-5.5548,-5.5548,-5.5548,-5.5548,-5.5548,-5.5328,-5.4924,-5.4924,-5.4448,-5.3751,-5.3751,-5.3476,-5.3109,-5.3109,-5.3109,-5.3109,-5.3109,-5.3109,-5.3109,-5.3109,-5.3109,-5.3109,-5.3109,-5.3109,-5.3035,-5.2687,-5.2577,-5.2577,-5.2577,-5.232,-5.2027,-5.199,-5.1697,-5.1183,-5.0321,-5.0138,-4.99,-4.9129,-4.8946,-4.8799,-4.8414,-4.8011,-4.7736,-4.7699,-4.7387,-4.702,-4.6599,-4.6525,-4.625,-4.5498,-4.5407,-4.5205,-4.4728,-4.4636,-4.4636,-4.4673,-4.5058,-4.5315,-4.5352,-4.57,-4.5883,-4.5883,-4.5883,-4.5883,-4.5883,-4.5883,-4.5883,-4.5883,-4.5883,-4.5883,-4.5883,-4.5883,-4.5883,-4.5883,-4.5883,-4.5883,-4.5883,-4.5883,-4.5883,-4.5883,-4.5883,-4.5883,-4.5883,-4.5883,-4.5883,-4.5883,-5.9531,-6.039,-6.1133,-6.0781,-6.1719,-6.2519,-6.2519,-6.2988,-6.3555,-6.4199,-6.4023,-6.4082,-6.4707,-6.4492,-6.4316,-6.4316,-6.3282,-6.2394,-6.1833,-6.1232,-6.0633,-5.9941,-5.8823,-5.7757,-5.6905,-5.5988,-5.5878,-5.663,-5.5878,-5.5548,-5.5548,-5.5548,-5.5548,-5.5548,-5.5548,-5.5328,-5.4924,-5.4924,-5.4448,-5.3751,-5.3751,-5.3476,-5.3109,-5.3109,-5.3109,-5.3109,-5.3109,-5.3109,-5.3109,-5.3109,-5.3109,-5.3109,-5.3109,-5.3109,-5.3091,-5.3017,-5.298,-5.298,-5.298,-5.2925,-5.2779,-5.2485,-5.232,-5.188,-5.045,-5.0138,-4.9991,-4.9478,-4.9129,-4.8891,-4.8799,-4.8432,-4.8047,-4.7736,-4.7626,-4.7424,-4.7039,-4.6965,-4.6782,-4.6287,-4.6213,-4.581,-4.4765,-4.4398,-4.4343,-4.4655,-4.5058,-4.5443,-4.5737,-4.5847,-4.5883,-4.5883,-4.5883,-4.5883,-4.5883,-4.5883,-4.5883,-4.5883,-4.5883,-4.5883,-4.5883,-4.5883,-4.5883,-4.5883,-4.5883,-4.5883,-4.5883,-4.5883,-4.5883,-4.5883,-4.5883,-4.5883,-4.5883,-4.5883,-4.5883,-4.5883,-5.9238,-5.9707,-6.0098,-5.9863,-6.0918,-6.1777,-6.1777,-6.2461,-6.3203,-6.3613,-6.3515,-6.3613,-6.4258,-6.414,-6.398,-6.3791,-6.2765,-6.1871,-6.1445,-6.0742,-5.9967,-5.9197,-5.8225,-5.7492,-5.707,-5.608,-5.5768,-5.619,-5.5768,-5.5548,-5.5548,-5.5548,-5.5548,-5.5548,-5.5548,-5.5324,-5.5236,-5.5236,-5.4759,-5.4007,-5.3806,-5.3476,-5.3091,-5.2907,-5.2944,-5.3109,-5.3109,-5.3109,-5.3091,-5.2889,-5.2962,-5.3109,-5.3109,-5.3109,-5.3109,-5.3109,-5.3109,-5.3109,-5.3109,-5.3109,-5.3017,-5.2614,-5.2522,-5.2247,-5.122,-5.0835,-5.0523,-4.9918,-4.9643,-4.9313,-4.8726,-4.8744,-4.8671,-4.8066,-4.8139,-4.8066,-4.7479,-4.7387,-4.724,-4.6819,-4.6434,-4.5792,-4.4765,-4.449,-4.4526,-4.4948,-4.5168,-4.5388,-4.559,-4.5608,-4.5608,-4.5608,-4.5608,-4.57,-4.5883,-4.5883,-4.5883,-4.5883,-4.5883,-4.5883,-4.5883,-4.5883,-4.5883,-4.5883,-4.5883,-4.5883,-4.5883,-4.5883,-4.5883,-4.5883,-4.5883,-4.5883,-4.5883,-4.5883,-4.5883,-4.5883,-5.918,-5.918,-5.918,-5.9297,-6.0215,-6.1015,-6.1094,-6.207,-6.2871,-6.3027,-6.2969,-6.3086,-6.3512,-6.3571,-6.3345,-6.304,-6.2098,-6.1501,-6.1255,-6.0281,-5.9509,-5.9179,-5.7969,-5.7272,-5.7272,-5.6135,-5.5489,-5.5658,-5.5489,-5.5548,-5.5548,-5.5548,-5.5548,-5.5548,-5.5548,-5.5548,-5.5548,-5.5548,-5.5071,-5.4283,-5.3971,-5.3531,-5.3072,-5.2742,-5.2834,-5.3127,-5.3219,-5.3274,-5.3274,-5.287,-5.2944,-5.3219,-5.3127,-5.3072,-5.3017,-5.3017,-5.3017,-5.3017,-5.3017,-5.3054,-5.3035,-5.2705,-5.2632,-5.254,-5.221,-5.1715,-5.1128,-5.0468,-5.023,-4.9826,-4.8781,-4.9093,-4.9276,-4.8598,-4.8726,-4.8671,-4.7992,-4.7846,-4.7644,-4.7259,-4.6489,-4.5718,-4.504,-4.493,-4.5021,-4.537,-4.5407,-4.5407,-4.5407,-4.5407,-4.5407,-4.5407,-4.5407,-4.5553,-4.5883,-4.5883,-4.5883,-4.5883,-4.5883,-4.5883,-4.5883,-4.5883,-4.5883,-4.5883,-4.5883,-4.5883,-4.5883,-4.5883,-4.5883,-4.5883,-4.5883,-4.5883,-4.5883,-4.5883,-4.5883,-4.5883,-5.918,-5.918,-5.9297,-5.9648,-6.0156,-6.0664,-6.1035,-6.1543,-6.2168,-6.293,-6.2695,-6.2516,-6.2833,-6.2809,-6.2497,-6.1691,-6.1994,-6.1729,-6.0655,-5.9796,-5.9234,-5.9179,-5.7657,-5.685,-5.685,-5.5988,-5.5713,-5.6098,-5.5713,-5.5548,-5.5548,-5.5548,-5.5548,-5.5548,-5.5548,-5.5548,-5.5548,-5.5548,-5.5071,-5.4338,-5.4283,-5.3806,-5.3109,-5.3054,-5.3072,-5.3164,-5.3531,-5.3861,-5.4117,-5.3696,-5.3531,-5.3586,-5.3219,-5.287,-5.2614,-5.2614,-5.2614,-5.2614,-5.2614,-5.2852,-5.3109,-5.3054,-5.3035,-5.3017,-5.2962,-5.21,-5.1275,-5.1165,-5.0615,-5.0083,-4.9918,-4.968,-4.9459,-4.9349,-4.9093,-4.8873,-4.8763,-4.8432,-4.8066,-4.7662,-4.6892,-4.636,-4.625,-4.592,-4.5755,-4.581,-4.581,-4.581,-4.581,-4.581,-4.581,-4.581,-4.581,-4.5828,-4.5883,-4.5883,-4.5883,-4.5883,-4.5883,-4.5883,-4.5883,-4.5883,-4.5883,-4.5883,-4.5883,-4.5883,-4.5883,-4.5883,-4.5883,-4.5883,-4.5883,-4.5883,-4.5883,-4.5883,-4.5883,-4.5883,-5.918,-5.918,-5.9238,-5.9414,-5.998,-6.0488,-6.0683,-6.1308,-6.1836,-6.2226,-6.2129,-6.1991,-6.2038,-6.1606,-6.1313,-6.126,-6.1016,-6.0556,-5.9989,-5.9477,-5.8867,-5.8225,-5.7492,-5.6905,-5.6428,-5.6061,-5.5878,-5.5823,-5.5658,-5.5548,-5.5548,-5.5548,-5.5548,-5.5548,-5.5548,-5.5548,-5.5434,-5.5291,-5.4979,-5.4613,-5.4172,-5.3787,-5.3439,-5.3219,-5.3274,-5.3476,-5.3421,-5.3219,-5.3035,-5.3311,-5.3384,-5.3439,-5.3696,-5.3366,-5.2852,-5.2852,-5.254,-5.2192,-5.2192,-5.2485,-5.2779,-5.2779,-5.2944,-5.3109,-5.3109,-5.2522,-5.1788,-5.111,-5.034,-4.9716,-4.9496,-4.968,-4.9771,-4.9533,-4.9551,-4.9441,-4.8983,-4.8744,-4.8322,-4.7479,-4.7039,-4.6654,-4.6195,-4.5792,-4.5737,-4.6177,-4.6012,-4.5883,-4.5883,-4.5883,-4.5792,-4.5572,-4.5553,-4.5663,-4.5883,-4.5883,-4.5993,-4.6213,-4.5993,-4.5883,-4.5883,-4.5883,-4.5883,-4.5883,-4.5883,-4.5883,-4.5883,-4.5883,-4.5883,-4.5883,-4.5883,-4.5883,-4.5883,-4.5883,-4.5883,-4.5883]},{"header":{"parameterUnit":"m.s-1","parameterCategory":1,"la1":30.6,"la2":28.766,"lo1":-90.7593,"lo2":-88.6598,"dy":0.0162,"dx":0.0183,"nx":116,"ny":114,"refTime":"2024-04-27T06:00:00:Z","depth":0,"parameterNumber":3,"parameterNumberName":"V-component_of_WINDS"},"data":[0.0,0.0,0.0,0.0,0.0,0.0,0.0,0.0,0.0,0.0,0.0,0.0,0.0,0.0,0.0,0.0,0.0,0.0,0.0,0.0,0.0,0.0,0.0,0.0,0.0,0.0,0.0,0.0,0.0,0.0,0.0,0.0,0.0,0.0,0.0,0.0,0.0,0.0,0.0,0.0,0.0,0.0,0.0,0.0,0.0,0.0,0.0,0.0,0.0,0.0,0.0,0.0,0.0,0.0,0.0,0.0,0.0,0.0,0.0,0.0,0.0,0.0,0.0,0.0,0.0,0.0,0.0,0.0,0.0,0.0,0.0,0.0,0.0,0.0,0.0,0.0,0.0,0.0,0.0,0.0,0.0,0.0,0.0,0.0,0.0,0.0,0.0,0.0,0.0,0.0,0.0,0.0,0.0,0.0,0.0,0.0,0.0,0.0,0.0,0.0,0.0,0.0,0.0,0.0,0.0,0.0,0.0,0.0,0.0,0.0,0.0,0.0,0.0,0.0,0.0,0.0,0.0,0.0,0.0,0.0,0.0,0.0,0.0,0.0,0.0,0.0,0.0,0.0,0.0,0.0,0.0,0.0,0.0,0.0,0.0,0.0,0.0,0.0,0.0,0.0,0.0,0.0,0.0,0.0,0.0,0.0,0.0,0.0,0.0,0.0,0.0,0.0,0.0,0.0,0.0,0.0,0.0,0.0,0.0,0.0,0.0,0.0,0.0,0.0,0.0,0.0,0.0,0.0,0.0,0.0,0.0,0.0,0.0,0.0,0.0,0.0,0.0,0.0,0.0,0.0,0.0,0.0,0.0,0.0,0.0,0.0,0.0,0.0,0.0,0.0,0.0,0.0,0.0,0.0,0.0,0.0,0.0,0.0,0.0,0.0,0.0,0.0,0.0,0.0,0.0,0.0,0.0,0.0,0.0,0.0,0.0,0.0,0.0,0.0,0.0,0.0,0.0,0.0,0.0,0.0,0.0,0.0,0.0,0.0,0.0,0.0,0.0,0.0,0.0,0.0,0.0,0.0,0.0,0.0,0.0,0.0,0.0,0.0,0.0,0.0,0.0,0.0,0.0,0.0,0.0,0.0,0.0,0.0,0.0,0.0,0.0,0.0,0.0,0.0,0.0,0.0,0.0,0.0,0.0,0.0,0.0,0.0,0.0,0.0,0.0,0.0,0.0,0.0,0.0,0.0,0.0,0.0,0.0,0.0,0.0,0.0,0.0,0.0,0.0,0.0,0.0,0.0,0.0,0.0,0.0,0.0,0.0,0.0,0.0,0.0,0.0,0.0,0.0,0.0,0.0,0.0,0.0,0.0,0.0,0.0,0.0,0.0,0.0,0.0,0.0,0.0,0.0,0.0,0.0,0.0,0.0,0.0,0.0,0.0,0.0,0.0,0.0,0.0,0.0,0.0,0.0,0.0,0.0,0.0,0.0,0.0,0.0,0.0,0.0,0.0,0.0,0.0,0.0,0.0,0.0,0.0,0.0,0.0,0.0,0.0,0.0,0.0,0.0,0.0,0.0,0.0,0.0,0.0,0.0,0.0,0.0,0.0,0.0,0.0,0.0,0.0,0.0,0.0,0.0,0.0,0.0,0.0,0.0,0.0,0.0,0.0,0.0,0.0,0.0,0.0,0.0,0.0,0.0,0.0,0.0,0.0,0.0,0.0,0.0,0.0,0.0,0.0,0.0,0.0,0.0,0.0,0.0,0.0,0.0,0.0,0.0,0.0,0.0,0.0,0.0,0.0,0.0,0.0,0.0,0.0,0.0,0.0,0.0,0.0,0.0,0.0,0.0,0.0,0.0,0.0,0.0,0.0,0.0,0.0,0.0,0.0,0.0,0.0,0.0,0.0,0.0,0.0,0.0,0.0,0.0,0.0,0.0,0.0,0.0,0.0,0.0,0.0,0.0,0.0,0.0,0.0,0.0,0.0,0.0,0.0,0.0,0.0,0.0,0.0,0.0,0.0,0.0,0.0,0.0,0.0,0.0,0.0,0.0,0.0,0.0,0.0,0.0,0.0,0.0,0.0,0.0,0.0,0.0,0.0,0.0,0.0,0.0,0.0,0.0,0.0,0.0,0.0,0.0,0.0,0.0,0.0,0.0,0.0,0.0,0.0,0.0,0.0,0.0,0.0,0.0,0.0,0.0,0.0,0.0,0.0,0.0,0.0,0.0,0.0,0.0,0.0,0.0,0.0,0.0,0.0,0.0,0.0,0.0,0.0,0.0,0.0,0.0,0.0,0.0,0.0,0.0,0.0,0.0,0.0,0.0,0.0,0.0,0.0,0.0,0.0,0.0,0.0,0.0,0.0,0.0,0.0,0.0,0.0,0.0,0.0,0.0,0.0,0.0,0.0,0.0,0.0,0.0,0.0,0.0,0.0,0.0,0.0,0.0,0.0,0.0,0.0,0.0,0.0,0.0,0.0,0.0,0.0,0.0,0.0,0.0,0.0,0.0,0.0,0.0,0.0,0.0,0.0,0.0,0.0,0.0,0.0,0.0,0.0,0.0,0.0,0.0,0.0,0.0,0.0,0.0,0.0,0.0,0.0,0.0,0.0,0.0,0.0,0.0,0.0,0.0,0.0,0.0,0.0,0.0,0.0,0.0,0.0,0.0,0.0,0.0,0.0,0.0,0.0,0.0,0.0,0.0,0.0,0.0,0.0,0.0,0.0,0.0,0.0,0.0,0.0,0.0,0.0,0.0,0.0,0.0,0.0,0.0,0.0,0.0,0.0,0.0,0.0,0.0,0.0,0.0,0.0,0.0,0.0,0.0,0.0,0.0,0.0,0.0,0.0,0.0,0.0,0.0,0.0,0.0,0.0,0.0,0.0,0.0,0.0,0.0,0.0,0.0,0.0,0.0,0.0,0.0,0.0,0.0,0.0,0.0,0.0,0.0,0.0,0.0,0.0,0.0,0.0,0.0,0.0,0.0,0.0,0.0,0.0,0.0,0.0,0.0,0.0,0.0,0.0,0.0,0.0,0.0,0.0,0.0,0.0,0.0,0.0,0.0,0.0,0.0,0.0,0.0,0.0,0.0,0.0,0.0,0.0,0.0,0.0,0.0,0.0,0.0,0.0,0.0,0.0,0.0,0.0,0.0,0.0,0.0,0.0,0.0,0.0,0.0,0.0,0.0,0.0,0.0,0.0,0.0,0.0,0.0,0.0,0.0,0.0,0.0,0.0,0.0,0.0,0.0,0.0,0.0,0.0,0.0,0.0,0.0,0.0,0.0,0.0,0.0,0.0,0.0,0.0,0.0,0.0,0.0,0.0,0.0,0.0,0.0,0.0,0.0,0.0,0.0,0.0,0.0,0.0,0.0,0.0,0.0,0.0,0.0,0.0,0.0,0.0,0.0,0.0,0.0,0.0,0.0,0.0,0.0,0.0,0.0,0.0,0.0,0.0,0.0,0.0,0.0,0.0,0.0,0.0,0.0,0.0,0.0,0.0,0.0,0.0,0.0,0.0,0.0,0.0,0.0,0.0,0.0,0.0,0.0,0.0,0.0,0.0,0.0,0.0,0.0,0.0,0.0,0.0,0.0,0.0,0.0,0.0,0.0,0.0,0.0,0.0,0.0,0.0,0.0,0.0,0.0,0.0,0.0,0.0,0.0,0.0,0.0,0.0,0.0,0.0,0.0,0.0,0.0,0.0,0.0,0.0,0.0,0.0,0.0,0.0,0.0,0.0,0.0,0.0,0.0,0.0,0.0,0.0,0.0,0.0,0.0,0.0,0.0,0.0,0.0,0.0,0.0,0.0,0.0,0.0,0.0,0.0,0.0,0.0,0.0,0.0,0.0,0.0,0.0,0.0,0.0,0.0,0.0,0.0,0.0,0.0,0.0,0.0,0.0,0.0,0.0,0.0,0.0,0.0,0.0,0.0,0.0,0.0,0.0,0.0,0.0,0.0,0.0,0.0,0.0,0.0,0.0,0.0,0.0,0.0,0.0,0.0,0.0,0.0,0.0,0.0,0.0,0.0,0.0,0.0,0.0,0.0,0.0,0.0,0.0,0.0,0.0,0.0,0.0,0.0,0.0,0.0,0.0,0.0,0.0,0.0,0.0,0.0,0.0,0.0,0.0,0.0,0.0,0.0,0.0,0.0,0.0,0.0,0.0,0.0,0.0,0.0,0.0,0.0,0.0,0.0,0.0,0.0,0.0,0.0,0.0,0.0,0.0,0.0,0.0,0.0,0.0,0.0,0.0,0.0,0.0,0.0,0.0,0.0,0.0,0.0,0.0,0.0,0.0,0.0,0.0,0.0,0.0,0.0,0.0,0.0,0.0,0.0,0.0,0.0,0.0,0.0,0.0,0.0,0.0,0.0,0.0,0.0,0.0,0.0,0.0,0.0,0.0,0.0,0.0,0.0,0.0,0.0,0.0,0.0,0.0,0.0,0.0,0.0,0.0,0.0,0.0,0.0,0.0,0.0,0.0,0.0,0.0,0.0,0.0,0.0,0.0,0.0,0.0,0.0,0.0,0.0,0.0,0.0,0.0,0.0,0.0,0.0,0.0,0.0,0.0,0.0,0.0,0.0,0.0,0.0,0.0,0.0,0.0,0.0,0.0,0.0,0.0,0.0,0.0,0.0,0.0,0.0,0.0,0.0,0.0,0.0,0.0,0.0,0.0,0.0,0.0,0.0,0.0,0.0,0.0,0.0,0.0,0.0,0.0,0.0,0.0,0.0,0.0,0.0,0.0,0.0,0.0,0.0,0.0,0.0,0.0,0.0,0.0,0.0,0.0,0.0,0.0,0.0,0.0,0.0,0.0,0.0,0.0,0.0,0.0,0.0,0.0,0.0,0.0,0.0,0.0,0.0,0.0,0.0,0.0,0.0,0.0,0.0,0.0,0.0,0.0,0.0,0.0,0.0,0.0,0.0,0.0,0.0,0.0,0.0,0.0,0.0,0.0,0.0,0.0,0.0,0.0,0.0,0.0,0.0,0.0,0.0,0.0,0.0,0.0,0.0,0.0,0.0,0.0,0.0,0.0,0.0,0.0,0.0,0.0,0.0,0.0,0.0,0.0,0.0,0.0,0.0,0.0,0.0,0.0,0.0,0.0,0.0,0.0,0.0,0.0,0.0,0.0,0.0,0.0,0.0,0.0,0.0,0.0,0.0,0.0,0.0,0.0,0.0,0.0,0.0,0.0,0.0,0.0,0.0,0.0,0.0,0.0,0.0,0.0,0.0,0.0,0.0,0.0,0.0,0.0,0.0,0.0,0.0,0.0,0.0,0.0,0.0,0.0,0.0,0.0,0.0,0.0,0.0,0.0,0.0,0.0,0.0,0.0,0.0,0.0,0.0,0.0,0.0,0.0,0.0,0.0,0.0,0.0,0.0,0.0,0.0,0.0,0.0,0.0,0.0,0.0,0.0,0.0,0.0,0.0,0.0,0.0,0.0,0.0,0.0,0.0,0.0,0.0,0.0,0.0,0.0,0.0,0.0,0.0,0.0,0.0,0.0,0.0,0.0,0.0,0.0,0.0,0.0,0.0,0.0,0.0,0.0,0.0,0.0,0.0,0.0,0.0,0.0,0.0,0.0,0.0,0.0,0.0,0.0,0.0,0.0,0.0,0.0,0.0,0.0,0.0,0.0,0.0,0.0,0.0,0.0,0.0,0.0,0.0,0.0,0.0,0.0,0.0,0.0,0.0,0.0,0.0,0.0,0.0,0.0,0.0,0.0,0.0,0.0,0.0,0.0,0.0,0.0,0.0,0.0,0.0,0.0,0.0,0.0,0.0,0.0,0.0,0.0,0.0,0.0,0.0,0.0,0.0,0.0,0.0,0.0,0.0,0.0,0.0,0.0,0.0,0.0,0.0,0.0,0.0,0.0,0.0,0.0,0.0,0.0,0.0,0.0,0.0,0.0,0.0,0.0,0.0,0.0,0.0,0.0,0.0,0.0,0.0,0.0,0.0,0.0,0.0,0.0,0.0,0.0,0.0,0.0,0.0,0.0,0.0,0.0,0.0,0.0,0.0,0.0,0.0,0.0,0.0,0.0,0.0,0.0,0.0,0.0,0.0,0.0,0.0,0.0,0.0,0.0,0.0,0.0,0.0,0.0,0.0,0.0,0.0,0.0,0.0,0.0,5.0529,0.0,0.0,0.0,0.0,0.0,0.0,0.0,0.0,0.0,0.0,0.0,0.0,0.0,0.0,0.0,0.0,0.0,0.0,0.0,0.0,0.0,0.0,0.0,0.0,5.9144,5.9328,5.8419,5.9527,6.0154,5.9994,5.9391,0.0,0.0,0.0,0.0,5.8848,5.9185,5.9961,6.1015,6.2503,6.3704,6.4606,6.6045,6.4767,6.1197,0.0,0.0,0.0,0.0,0.0,0.0,0.0,0.0,0.0,0.0,0.0,0.0,0.0,0.0,0.0,0.0,0.0,0.0,0.0,0.0,0.0,0.0,0.0,0.0,0.0,0.0,0.0,0.0,0.0,0.0,0.0,0.0,0.0,0.0,0.0,0.0,0.0,0.0,0.0,0.0,0.0,0.0,0.0,0.0,0.0,0.0,0.0,0.0,0.0,0.0,0.0,0.0,0.0,0.0,0.0,0.0,0.0,0.0,0.0,0.0,0.0,0.0,0.0,0.0,0.0,0.0,0.0,0.0,0.0,0.0,0.0,5.3632,0.0,0.0,0.0,0.0,0.0,0.0,0.0,0.0,0.0,0.0,0.0,0.0,0.0,0.0,0.0,0.0,0.0,0.0,0.0,0.0,0.0,5.9329,5.7991,5.8979,5.9447,5.8767,5.9967,6.046,5.9837,5.9762,5.9601,5.9402,5.8385,5.8592,6.0301,6.0126,6.1089,6.3247,6.405,6.6563,7.0634,7.0878,6.8892,6.5053,6.2891,0.0,0.0,0.0,0.0,0.0,0.0,0.0,0.0,0.0,0.0,0.0,0.0,0.0,0.0,0.0,0.0,0.0,0.0,0.0,0.0,0.0,0.0,0.0,0.0,0.0,0.0,0.0,0.0,0.0,0.0,0.0,0.0,0.0,0.0,0.0,0.0,0.0,0.0,0.0,0.0,0.0,0.0,0.0,0.0,0.0,0.0,0.0,0.0,0.0,0.0,0.0,0.0,0.0,0.0,0.0,0.0,0.0,0.0,0.0,0.0,0.0,0.0,0.0,6.4857,6.6088,6.7196,6.7196,6.7381,6.7566,6.4734,6.1348,5.7765,0.0,0.0,0.0,0.0,0.0,0.0,0.0,0.0,0.0,0.0,0.0,0.0,0.0,0.0,0.0,0.0,0.0,0.0,0.0,0.0,5.9308,5.8863,6.0808,6.1979,6.1577,6.4318,6.5411,6.3869,6.342,6.2828,6.1919,6.0346,6.0373,6.2364,6.2372,6.3251,6.5041,6.6299,7.0119,7.6267,7.3198,7.3233,7.5642,6.8982,6.753,6.9755,0.0,0.0,0.0,0.0,0.0,0.0,0.0,0.0,0.0,0.0,0.0,0.0,0.0,0.0,0.0,0.0,0.0,0.0,0.0,0.0,0.0,0.0,0.0,0.0,0.0,0.0,0.0,0.0,0.0,0.0,0.0,0.0,0.0,0.0,0.0,0.0,0.0,0.0,0.0,0.0,0.0,5.2113,5.333,0.0,0.0,0.0,0.0,0.0,0.0,0.0,0.0,0.0,0.0,0.0,0.0,0.0,6.2671,6.6427,6.8982,7.0367,7.0675,7.4307,7.6123,7.6308,7.6308,7.7262,7.8924,7.8462,0.0,6.1902,6.0547,0.0,0.0,0.0,0.0,0.0,0.0,0.0,0.0,0.0,0.0,0.0,0.0,0.0,0.0,0.0,0.0,0.0,0.0,0.0,0.0,0.0,6.1866,6.3842,6.4902,6.7821,6.8472,6.5924,6.598,6.5097,6.2716,6.1886,6.1902,6.2794,6.42,6.6202,6.887,7.183,7.5376,7.9411,7.9177,8.0468,8.2746,7.6927,7.368,7.2259,6.8064,0.0,0.0,0.0,0.0,0.0,0.0,0.0,0.0,0.0,0.0,0.0,0.0,0.0,0.0,0.0,0.0,0.0,0.0,0.0,0.0,0.0,0.0,0.0,0.0,0.0,0.0,0.0,0.0,0.0,0.0,0.0,0.0,0.0,0.0,0.0,0.0,0.0,0.0,0.0,5.513,5.7469,5.6546,5.6669,5.593,0.0,0.0,0.0,0.0,0.0,0.0,0.0,0.0,0.0,6.7935,6.8458,7.0428,7.4059,7.5754,7.7108,7.8247,8.0032,8.1694,8.3172,8.2772,8.3295,8.4495,8.4095,8.0432,7.443,7.0028,6.578,6.1695,0.0,0.0,0.0,0.0,5.9716,5.9562,0.0,0.0,0.0,0.0,0.0,0.0,0.0,0.0,0.0,0.0,0.0,0.0,6.1939,6.4684,6.726,6.926,7.199,7.2316,6.9266,6.8371,6.6923,6.4466,6.3171,6.2887,6.3595,6.6556,6.9841,7.3507,7.7242,8.0516,8.3432,8.5421,8.7048,8.8158,8.4809,8.0953,7.6623,7.2326,6.8673,6.5527,0.0,0.0,0.0,0.0,0.0,0.0,0.0,0.0,0.0,0.0,0.0,0.0,0.0,0.0,0.0,0.0,0.0,0.0,0.0,0.0,0.0,0.0,0.0,0.0,0.0,0.0,0.0,0.0,0.0,0.0,0.0,0.0,0.0,0.0,0.0,0.0,0.0,5.9532,6.2056,5.9839,6.2148,6.2025,0.0,0.0,0.0,0.0,0.0,0.0,6.5811,6.8243,7.1475,7.5692,7.6308,7.8216,8.1602,8.2156,8.3357,8.5173,8.5357,8.6589,8.8713,8.8159,8.8312,8.8928,8.7881,8.6866,8.5357,7.8031,7.2737,6.8951,6.6027,6.4272,6.3687,6.6242,6.6119,6.5226,0.0,0.0,0.0,0.0,0.0,0.0,0.0,0.0,0.0,0.0,0.0,6.2919,6.7143,7.0934,7.3696,7.5002,7.7665,7.82,7.5734,7.0967,6.8382,6.8616,6.4284,6.3071,6.5688,6.9901,7.4214,7.8594,8.1204,8.4984,8.985,9.0763,9.1529,9.2116,9.1913,8.9748,8.5587,7.5506,7.1515,7.1515,6.6406,0.0,0.0,0.0,0.0,0.0,0.0,0.0,0.0,0.0,0.0,0.0,0.0,0.0,0.0,0.0,0.0,0.0,0.0,0.0,0.0,0.0,0.0,0.0,0.0,0.0,0.0,0.0,0.0,0.0,0.0,0.0,0.0,0.0,0.0,0.0,0.0,0.0,0.0,6.4641,6.9166,0.0,0.0,0.0,0.0,6.3472,6.8335,7.2214,7.4276,7.757,8.0679,8.3449,8.3572,8.5234,8.8651,8.8713,8.9451,9.0806,9.1452,9.216,9.2899,9.2868,9.3237,9.3792,9.1822,9.0929,9.019,8.1417,7.6923,7.523,7.1813,7.0459,7.0428,7.0582,7.1413,7.2368,0.0,0.0,0.0,0.0,0.0,5.4812,5.5719,5.7376,5.8748,5.9512,6.3134,6.676,6.9737,7.5946,8.0239,8.0955,8.4449,8.4456,7.9469,7.5862,7.3394,7.2254,6.7636,6.7105,7.1487,7.2353,7.5433,8.0805,8.2713,8.5529,8.9141,9.1266,9.2808,9.3844,9.3863,9.3165,9.1406,8.3321,7.8382,7.5506,6.9789,6.5933,0.0,0.0,0.0,0.0,0.0,0.0,0.0,0.0,0.0,0.0,0.0,0.0,0.0,0.0,0.0,0.0,0.0,0.0,0.0,0.0,0.0,0.0,0.0,0.0,0.0,0.0,0.0,0.0,0.0,0.0,0.0,0.0,0.0,0.0,0.0,0.0,0.0,7.2737,7.7477,0.0,7.2737,7.3291,7.4276,7.4892,7.7539,8.0402,8.3326,8.505,8.7389,9.0529,9.019,9.096,9.3084,9.2683,9.2714,9.3176,9.296,9.3453,9.453,9.4069,9.3761,9.3515,9.2376,9.1637,9.0929,8.6866,8.388,8.1756,8.0525,7.8739,7.6862,7.7293,7.6923,7.6184,0.0,0.0,0.0,0.0,0.0,5.4655,5.5152,5.7111,5.8929,5.9945,6.4793,6.9648,7.3665,8.0354,8.5024,8.6089,8.8708,8.8476,8.4015,7.8557,7.5611,7.5705,7.0934,7.0292,7.4742,7.5429,7.7934,8.2557,8.4834,8.6832,8.8746,9.1631,9.3439,9.4345,9.4867,9.506,9.4755,9.0019,8.4843,7.9397,7.4458,7.1853,7.0174,0.0,0.0,0.0,0.0,0.0,0.0,0.0,0.0,0.0,0.0,0.0,0.0,0.0,0.0,0.0,0.0,0.0,0.0,0.0,0.0,0.0,0.0,0.0,0.0,0.0,0.0,0.0,0.0,0.0,0.0,0.0,0.0,0.0,0.0,7.3876,7.8986,7.9663,8.4342,8.5634,8.0863,8.1263,8.2279,8.3387,8.4926,8.7112,9.0098,9.0867,9.2283,9.453,9.413,9.4222,9.493,9.4715,9.45,9.4253,9.4007,9.4253,9.493,9.493,9.4315,9.3176,9.2745,9.2037,9.1114,8.9759,8.8128,8.6435,8.6004,8.4034,8.151,8.1941,8.0802,7.8955,0.0,0.0,0.0,0.0,0.0,5.4523,5.449,5.6415,5.8441,6.004,6.5223,7.1534,7.8969,8.4199,8.8024,9.011,9.0337,8.9911,8.9122,7.8855,7.4576,7.8722,7.391,7.2398,7.5169,7.9139,8.2187,8.4218,8.7614,8.9272,8.9346,9.2186,9.3582,9.3715,9.5229,9.5905,9.5838,9.5127,9.0628,8.3693,8.0581,7.9295,7.8517,0.0,0.0,0.0,0.0,0.0,0.0,0.0,0.0,0.0,0.0,0.0,0.0,0.0,0.0,0.0,0.0,0.0,0.0,0.0,0.0,0.0,0.0,0.0,0.0,0.0,0.0,0.0,0.0,0.0,0.0,0.0,0.0,0.0,7.3907,7.8893,8.308,8.5111,8.9574,9.0129,8.4157,8.6004,8.7851,8.8497,9.0313,9.2283,9.4284,9.4992,9.5331,9.5331,9.5331,9.5023,9.4346,9.4992,9.4961,9.4315,9.4992,9.4961,9.4376,9.57,9.5177,9.3207,9.3207,9.2437,9.1083,8.9759,8.9205,8.9051,8.7697,8.5942,8.4157,8.4095,8.2772,8.074,0.0,0.0,0.0,5.4589,5.492,5.5118,5.4556,5.6846,5.9404,6.1667,6.8539,7.5389,8.0852,8.7632,9.1603,9.1223,9.0294,8.8707,8.6255,7.8545,7.4141,7.434,7.5434,7.7354,8.0063,8.2679,8.5019,8.7081,8.7556,8.8858,9.0832,9.1709,9.3269,9.5286,9.7298,9.8172,9.8138,9.7428,9.621,9.418,8.6873,8.3287,8.1612,0.0,0.0,0.0,0.0,0.0,0.0,0.0,0.0,0.0,0.0,0.0,0.0,0.0,0.0,0.0,0.0,0.0,0.0,0.0,0.0,0.0,0.0,0.0,0.0,0.0,0.0,0.0,0.0,0.0,0.0,0.0,7.4091,7.8308,7.8401,8.3941,8.8713,9.0713,9.5177,9.7054,9.4376,9.5238,9.6039,9.6223,9.5854,9.6069,9.7147,9.69,9.6747,9.6747,9.6747,9.6408,9.5731,9.5915,9.5669,9.4992,9.5669,9.5915,9.5762,9.6623,9.5608,9.3207,9.3207,9.216,9.0436,8.9544,8.8928,8.8374,8.7512,8.6527,8.5388,8.3911,8.1787,7.9478,0.0,0.0,0.0,5.5521,5.5786,5.5719,5.4655,5.7011,5.9422,6.0936,6.905,7.6302,8.0661,8.6978,9.0682,9.0105,8.8848,8.6905,8.4063,7.9691,7.673,7.5739,7.8282,8.132,8.4692,8.5565,8.6989,8.9051,8.8651,8.932,9.0879,9.1553,9.2806,9.4517,9.7052,9.8301,9.8633,9.8835,9.9187,9.9119,9.3909,9.1305,8.9759,8.306,8.0468,7.972,7.4195,7.3246,7.3873,6.8858,0.0,0.0,0.0,0.0,0.0,0.0,0.0,0.0,0.0,0.0,0.0,0.0,0.0,0.0,0.0,0.0,0.0,0.0,0.0,0.0,0.0,0.0,0.0,0.0,8.0217,8.4957,8.6281,8.9851,9.3391,9.6254,9.8809,10.0102,9.9609,9.9425,9.9301,9.9301,9.8593,9.8193,9.8286,9.8193,9.8009,9.7732,9.7732,9.7393,9.6716,9.6131,9.5669,9.5269,9.5669,9.5854,9.5885,9.6254,9.5115,0.0,9.2776,9.1329,8.8928,8.8836,8.8035,0.0,0.0,0.0,0.0,0.0,8.1079,7.9324,0.0,0.0,5.6282,5.6514,5.6514,5.6017,5.4725,5.7011,5.897,5.9249,6.7781,7.524,7.8996,8.3749,8.6925,8.7639,8.6365,8.4552,8.2326,8.1128,8.0652,8.0801,8.2045,8.4698,8.8791,8.8213,8.8713,9.0436,9.0375,9.0457,9.0712,9.1785,9.2494,9.2874,9.5632,9.7291,9.802,9.964,10.0319,10.0286,10.0409,10.0303,9.9254,9.2522,9.0766,9.0848,8.2734,8.0141,7.9383,7.2018,0.0,0.0,0.0,0.0,0.0,0.0,0.0,0.0,0.0,0.0,0.0,0.0,0.0,0.0,0.0,0.0,0.0,0.0,0.0,0.0,0.0,0.0,0.0,0.0,8.6004,9.1267,9.5177,9.5854,9.7239,10.0717,10.0841,10.081,10.121,10.0194,9.9548,9.9548,9.9394,9.9086,9.8563,0.0,0.0,0.0,0.0,9.7855,9.7178,9.5977,9.5331,9.5269,9.5269,9.5269,9.5269,9.5207,9.4099,9.2222,9.216,9.0375,8.7543,8.7943,8.6804,8.4926,8.5542,8.5327,8.4342,8.1787,8.0494,0.0,0.0,5.3997,5.3765,5.5521,5.5322,5.4858,5.4523,5.7011,5.9285,6.0265,6.7346,7.3581,7.7057,8.0924,8.391,8.531,8.3095,8.118,8.0167,7.989,8.1326,8.4712,8.6338,8.8335,9.0833,9.165,9.1975,9.1852,9.1298,9.1885,9.352,9.2742,9.3331,9.5075,9.6847,9.7704,9.7937,10.01,10.0981,10.1116,10.1811,10.0608,9.8206,9.6142,9.3769,9.1003,8.7491,8.591,8.4944,8.1087,7.872,7.6901,7.3273,6.8538,0.0,0.0,0.0,0.0,0.0,0.0,0.0,0.0,0.0,0.0,0.0,0.0,0.0,0.0,0.0,0.0,0.0,0.0,0.0,8.5727,9.0837,9.5146,9.8101,9.9486,10.0009,9.9732,10.1518,10.2226,10.0625,10.0748,10.0933,10.0933,9.9917,9.9486,9.9917,9.9024,9.844,9.8286,9.7762,9.7147,9.647,9.6223,9.5823,9.5269,0.0,0.0,9.5269,9.4715,9.3638,9.2191,9.1668,9.0744,8.9513,8.8005,8.585,8.348,8.3634,8.2926,8.1664,8.0063,7.9386,7.917,0.0,5.3202,5.3798,5.4854,5.5019,5.4787,5.4063,5.615,5.8229,5.9315,6.4905,6.997,7.2868,7.5907,7.8017,7.875,7.764,7.7551,7.9122,8.0697,8.354,8.7998,8.9846,9.1795,9.3953,9.3825,9.373,9.3761,9.3084,9.3077,9.3793,9.3793,9.3879,9.3973,9.654,9.7519,9.738,9.9629,10.0465,10.0569,10.1776,10.0736,9.852,9.9424,9.7563,9.4383,9.2515,9.0935,8.8996,8.4789,8.2391,8.0363,7.6213,7.264,6.9228,0.0,0.0,0.0,0.0,0.0,0.0,0.0,0.0,0.0,0.0,0.0,0.0,0.0,0.0,7.3506,7.6892,0.0,8.6743,9.0129,9.4407,9.7762,9.9117,10.0502,10.1118,10.041,10.1826,10.2503,10.1487,10.1333,10.1333,10.1333,10.0717,10.0317,10.0317,10.0009,9.9517,9.884,9.847,9.7978,9.7301,9.6623,9.61,9.5762,9.5423,9.5454,9.5731,9.4346,9.3545,9.3176,9.1822,9.0837,9.0005,8.7266,8.4926,8.3018,8.2341,8.1664,8.0986,8.034,7.9663,7.8955,0.0,5.2771,5.393,5.4096,5.4688,5.4754,5.3599,5.5289,5.6928,5.7492,6.1899,6.5765,6.7579,6.9916,7.149,7.1801,7.3057,7.5338,7.8881,8.2647,8.6585,9.0544,9.3057,9.5001,9.6576,9.5665,9.5251,9.5269,9.5086,9.4468,9.3422,9.4561,9.413,9.2499,9.5743,9.6901,9.6507,9.8874,9.9807,9.9774,10.1203,10.0608,9.9087,10.0882,9.9685,9.6843,9.5312,9.3004,8.9937,8.5446,8.3355,8.2015,7.8057,7.6492,7.5138,6.9813,6.9505,0.0,0.0,0.0,0.0,0.0,0.0,0.0,0.0,6.9248,7.0559,7.5487,7.8232,8.0956,8.4773,8.9051,9.2499,9.3945,9.7301,9.964,9.9517,10.0533,10.1241,10.0933,10.1795,10.2318,10.2195,10.1641,10.1333,10.1333,10.1333,10.1025,10.0317,10.0717,10.041,9.9148,9.8994,9.8655,9.8101,9.7024,9.647,9.647,9.5669,9.5546,9.6008,9.3945,9.3237,9.3576,9.1791,9.0498,8.9421,8.665,8.4557,8.2987,8.1879,8.1294,8.1048,8.0771,8.0032,7.8924,0.0,5.1945,5.1843,5.2506,5.3202,5.3599,5.3434,5.5289,5.6364,5.5392,5.9197,6.1914,6.1683,6.3676,6.5775,6.7758,7.2956,7.7195,7.9671,8.5871,9.032,9.2201,9.6185,9.7775,9.6653,9.7829,9.7459,9.5269,9.6682,9.6228,9.413,9.4315,9.3915,9.3145,9.4833,9.5531,9.5612,9.8521,9.9339,9.8879,10.0505,10.0188,9.8869,9.8516,9.6528,9.3782,9.1794,8.8118,8.4068,8.3437,8.2388,8.1502,8.2719,8.1848,7.9909,7.7416,7.3937,7.0244,6.7165,6.4795,6.4087,6.8112,6.8613,7.0412,0.0,8.0947,8.1682,8.505,8.7771,8.979,9.0344,9.2837,9.5454,9.7393,9.9609,10.0902,10.0317,10.0841,10.0902,9.9671,10.121,10.2133,10.1518,10.1247,10.1333,10.1333,10.1333,10.1025,10.0317,9.9825,9.9178,9.844,9.7824,9.7485,9.7393,9.7239,9.7178,9.7147,9.5885,9.53,9.5331,9.3268,9.2068,9.1514,9.0683,8.9267,8.7512,8.7112,8.5419,8.308,8.2926,8.2125,8.0925,7.9755,7.9232,7.8986,0.0,5.1148,5.075,5.1082,5.2738,5.393,5.3467,5.456,5.5393,5.5302,5.6535,5.767,5.8319,5.9185,6.0651,6.2849,6.8015,7.2712,7.6411,8.3492,8.8247,8.9937,9.4018,9.6164,9.5976,9.6567,9.6934,9.7212,9.6973,9.6181,9.4869,9.5669,9.5238,9.3884,9.5669,9.6223,9.5997,9.7627,9.812,9.7952,9.902,9.8348,9.6664,9.5185,9.2137,8.8692,8.9126,8.6917,0.0,8.231,8.1787,8.1879,8.311,8.2402,8.074,7.9139,7.6369,7.3291,7.0582,7.0182,7.089,7.246,7.4964,7.8325,8.3576,8.5019,8.6307,8.9866,9.2181,9.3822,9.4623,9.6962,9.8809,9.887,9.9917,10.0502,9.9825,9.964,9.9055,9.7701,9.8994,10.0379,10.1241,10.0933,10.1087,10.1918,10.1548,10.121,10.0933,10.0225,9.9578,9.8901,9.8224,9.7701,9.7301,9.7301,9.69,9.61,9.5546,9.4838,9.4038,9.2776,9.1637,9.0621,9.0344,8.9051,8.7143,8.6743,8.5173,8.308,8.308,8.2495,8.151,8.0186,7.9447,7.8955,0.0,5.0585,5.022,5.022,5.244,5.3897,5.297,5.3599,5.4328,5.4692,5.4427,5.4626,5.5653,5.5951,5.6812,5.8634,6.34,6.8045,7.2206,7.9805,8.4918,8.6736,9.1353,9.4053,9.4314,9.5462,9.6777,9.8331,9.7396,9.6826,9.6618,9.693,9.6253,9.5003,9.6407,9.6747,9.6316,9.6593,9.6839,9.6993,9.6931,9.5669,9.3638,9.1391,8.7697,8.3838,8.4977,8.3226,8.0278,7.8986,7.8893,7.957,8.1171,8.1171,8.034,7.9386,7.7108,7.4399,7.2029,7.3383,7.56,7.6246,8.0063,8.435,8.6829,8.8346,9.0064,9.3323,9.5282,9.6623,9.7424,9.9486,10.0625,9.9486,10.0194,10.044,9.9209,9.844,9.7362,9.5638,9.5792,9.6931,9.9148,9.9609,10.0317,10.1702,10.1333,10.0933,10.081,10.0317,9.964,9.8778,9.8286,9.7793,9.7301,9.7301,9.6716,9.5546,9.5361,9.4746,9.373,9.2714,9.1606,9.0498,9.0282,8.9174,8.742,8.6896,8.5265,8.311,8.3295,8.2618,8.1417,8.0463,7.9786,7.917,0.0,0.0,5.022,5.022,5.2009,5.297,5.158,5.2539,5.3202,5.2572,5.3036,5.3467,5.35,5.4162,5.4854,5.5648,6.071,6.5041,6.8022,7.5831,8.1238,8.3128,8.941,9.239,9.1392,9.5648,9.7869,9.7682,9.8378,9.9056,9.9781,9.7465,9.6404,9.6518,9.6367,9.6316,9.6254,9.5608,9.5731,9.6131,9.4161,9.216,9.0067,8.7327,8.3788,8.0001,7.8067,7.4707,7.1413,7.2029,7.2275,7.2983,7.6923,7.8647,7.9139,7.9109,7.5784,7.1783,7.0336,7.1967,7.5015,7.8955,8.2525,8.6096,9.0098,9.267,9.4518,9.5905,9.7762,9.8994,9.8378,9.9425,10.0102,9.9425,10.0994,10.1395,9.8717,9.7732,9.6316,9.3607,9.1606,9.1514,0.0,9.6839,9.8932,10.0317,10.0317,10.004,9.9425,9.9363,9.8717,9.7393,9.7331,9.7301,9.7301,9.7301,9.6931,9.6254,9.5577,9.5238,9.5146,9.3145,9.1852,9.1144,9.0498,8.9421,8.8159,8.8159,8.6127,8.3141,8.3818,8.2464,8.0155,8.0124,8.0094,7.9786,0.0,0.0,0.0,0.0,0.0,5.2009,5.2045,5.3632,5.4589,5.3897,5.3169,0.0,0.0,0.0,0.0,0.0,5.8041,6.1281,6.4093,7.1948,7.6764,7.7407,8.4435,8.8478,8.8626,9.102,9.3064,9.4945,9.6007,9.6031,9.4865,9.5947,9.5946,9.5099,9.4957,9.5207,9.5546,9.4376,9.3515,9.2776,9.1206,9.0129,8.9144,8.548,8.1571,7.76,0.0,7.1783,7.0059,6.8982,6.892,6.9751,7.246,7.286,7.2244,7.1813,7.2768,7.3968,7.3968,7.6923,8.1017,8.5111,8.8312,9.1206,9.3945,9.5454,9.6285,9.6285,9.61,9.5731,9.5054,9.5669,9.6531,9.7178,9.8624,9.9517,9.9024,9.8778,9.6777,9.1822,9.2222,9.2191,9.0406,0.0,0.0,10.004,9.9917,9.9732,9.9979,9.9548,9.8901,9.7978,9.7516,9.7301,9.7301,9.6839,9.6285,9.5608,9.4007,9.3022,9.2529,9.1421,9.0529,8.9851,8.9174,8.862,8.8128,8.7204,8.5604,8.3818,8.4495,8.3387,8.1356,8.0925,8.0463,7.9817,0.0,0.0,0.0,0.0,0.0,0.0,0.0,0.0,0.0,0.0,0.0,0.0,0.0,0.0,0.0,0.0,0.0,5.7697,6.0494,6.6307,7.022,7.1379,7.7174,8.0786,8.1858,8.3147,8.5446,8.8823,9.0003,9.0545,9.0277,9.2531,9.3013,9.2125,9.2332,9.2816,9.3344,9.145,9.0,8.8805,8.5973,8.4403,8.3357,7.9478,7.5784,0.0,6.9413,6.7781,6.6888,6.6088,6.6273,6.7104,6.8643,6.9012,6.8858,6.8674,7.1813,7.5815,7.797,8.1848,8.625,9.0344,9.3022,9.5054,9.6654,9.6962,9.6531,9.5115,9.3576,9.2006,9.0559,9.0467,9.1329,9.3422,9.5084,9.6716,9.8347,9.7978,9.5946,9.176,9.1975,9.1606,8.9482,9.099,0.0,9.8532,9.8686,9.8994,9.9917,9.9332,9.8747,9.8316,9.7639,9.7301,9.7301,9.687,9.6192,9.5238,9.3453,9.2222,9.1544,9.0867,9.0467,9.0221,8.9328,8.8774,8.8466,8.7327,8.5758,8.4157,8.4834,8.388,8.2002,8.1325,8.0494,7.9478,0.0,0.0,0.0,0.0,0.0,0.0,0.0,0.0,0.0,0.0,0.0,0.0,0.0,0.0,0.0,0.0,0.0,0.0,5.7219,5.9383,6.2007,6.5214,6.8157,7.0274,7.1598,7.3014,7.5745,7.9887,8.0902,8.3036,8.6095,8.6917,8.7454,8.7599,8.8106,8.8701,8.9173,8.6434,8.4956,8.3941,7.8709,7.5446,7.3383,7.009,6.7165,6.4764,6.418,6.301,6.1963,6.3287,6.4272,6.5072,6.5811,6.7442,6.9197,7.0059,7.3168,7.7385,8.2187,8.6435,9.0467,9.4469,9.6408,9.7485,9.807,9.7116,9.5331,9.2499,9.0221,8.7881,8.505,8.4188,8.5019,8.8436,9.0898,9.3576,9.6962,9.5854,9.4346,9.3422,9.1144,9.0098,9.1175,9.0744,0.0,9.5946,0.0,9.7793,9.9148,9.8624,9.8255,9.8193,9.7608,9.7301,9.7301,9.7208,9.65,9.5146,9.3792,9.2807,9.216,9.1483,9.1514,9.2037,9.0744,8.979,8.9144,8.8436,8.6558,8.4218,8.4803,8.3818,8.1941,8.1263,8.0186,7.8862,0.0,0.0,0.0,0.0,0.0,0.0,0.0,0.0,0.0,0.0,0.0,0.0,0.0,0.0,0.0,0.0,0.0,0.0,5.4283,5.6872,5.8746,5.9492,6.4267,6.6858,6.6704,6.8982,7.0977,7.2575,7.4466,7.5529,7.5774,7.7646,7.847,7.8401,7.8012,7.8219,7.8746,7.7011,7.5612,7.4307,7.1906,7.0644,7.0028,6.8674,6.6488,6.4334,6.5657,6.3933,6.1194,6.2025,6.381,6.5934,6.7596,6.9536,7.1813,7.5015,7.8124,8.1787,8.7574,9.1391,9.4469,9.7516,9.8163,9.7824,9.6993,9.5331,9.2776,8.8559,8.4865,8.1263,7.7508,7.917,8.2218,8.5604,9.0837,9.5669,9.9055,10.0009,9.8932,9.5177,9.5485,9.493,9.2252,9.2745,9.3853,0.0,9.57,9.6377,9.7732,9.8132,9.7824,9.6839,9.7116,9.7301,9.7301,9.6285,9.5084,9.373,9.2868,9.2129,9.1452,9.0775,9.0559,9.0683,8.9821,8.9359,8.9113,8.7943,8.6404,8.4803,8.4495,8.311,8.1233,8.0586,7.9478,7.8185,0.0,0.0,0.0,0.0,0.0,0.0,0.0,0.0,0.0,0.0,0.0,0.0,0.0,0.0,0.0,0.0,0.0,0.0,0.0,5.5215,5.6157,5.5695,5.9166,6.0845,6.0424,6.1902,6.3441,6.5011,6.6815,6.7643,6.7592,7.0255,7.1559,7.1551,7.1679,7.2567,7.3802,7.1634,7.017,0.0,0.0,6.541,6.5444,6.4426,6.3173,6.2021,6.3453,6.3167,6.2548,6.5349,6.7073,6.8674,7.1875,7.4307,7.6769,8.0863,8.4188,8.7666,9.2899,9.61,9.844,10.0594,9.9702,9.7639,9.5084,9.2468,8.8713,8.2156,7.8278,7.4645,6.9967,7.2429,7.6585,8.0863,8.7512,9.4069,9.9548,10.0994,10.0594,9.8224,9.8409,9.7732,9.5146,9.5054,9.5546,0.0,9.6039,9.6316,9.767,9.8101,9.7947,9.7178,9.7547,9.7608,9.7301,9.5946,9.4869,9.4099,9.2837,9.2037,9.1637,9.0652,9.0529,9.1021,0.0,8.9359,8.9513,8.7851,8.6373,8.508,8.468,8.3295,8.1448,8.0771,7.9663,7.837,0.0,0.0,0.0,0.0,0.0,0.0,0.0,0.0,0.0,0.0,5.5218,5.4659,0.0,0.0,0.0,0.0,0.0,0.0,0.0,0.0,5.4215,5.3591,5.4274,5.4681,5.4636,5.4667,5.5829,5.8159,5.9129,5.9961,6.0763,6.3857,6.5477,6.5902,6.7081,6.8834,7.0716,6.7888,6.6531,6.5965,6.2186,6.067,6.0598,0.0,5.911,5.9078,5.9886,6.1695,6.458,7.0305,7.2121,7.2829,7.7724,8.0709,8.3233,8.7327,9.0683,9.3915,9.8009,10.0317,10.1918,10.3118,10.0687,9.6931,9.2776,8.8928,8.3757,7.4984,7.1475,6.8366,6.3102,6.5688,7.049,7.6215,8.3295,9.099,9.9425,10.0594,10.0841,10.1518,10.0625,9.9609,9.8655,9.7331,9.7024,9.8224,9.7116,9.6931,9.8101,9.8163,9.8163,9.8163,9.8163,9.7855,9.7147,9.5915,9.5238,9.5115,9.3176,9.2191,9.2037,9.0806,9.0898,9.1975,0.0,0.0,9.0067,8.8128,8.6496,8.5234,8.5142,8.3911,8.2125,8.1263,8.0155,7.8924,0.0,0.0,0.0,0.0,0.0,0.0,0.0,0.0,0.0,0.0,5.6647,5.5383,0.0,0.0,0.0,0.0,0.0,0.0,0.0,0.0,0.0,5.3797,5.3628,5.3761,5.4347,5.4347,5.4517,5.4819,5.4482,5.458,5.5161,5.704,5.8254,5.8914,6.0514,6.1452,6.182,6.1278,6.0999,6.0889,6.0096,5.9081,5.8162,5.9129,5.8775,0.0,5.9583,6.1383,6.4087,7.1229,7.5446,7.8616,8.3911,8.7389,9.0252,9.4346,9.6346,9.8132,10.2226,10.3211,10.3118,10.3334,10.0009,9.5423,9.0775,8.5388,7.8986,7.0675,6.6888,6.3749,5.9439,6.3379,6.9597,7.6708,8.3203,9.0806,10.0687,10.201,10.2287,10.2995,10.3334,10.2595,10.0194,9.8747,9.8039,0.0,9.7578,9.7208,9.7455,9.7455,9.7455,9.7455,9.7455,9.7147,9.647,9.5669,9.4992,9.4438,9.293,9.1945,9.136,9.059,9.0652,9.1298,0.0,0.0,9.0098,8.862,8.7204,8.5881,8.5327,8.4218,8.271,8.0925,7.9786,7.8986,0.0,0.0,0.0,0.0,0.0,0.0,0.0,5.7442,5.8966,6.1914,6.1053,5.9595,5.8071,5.6879,5.6183,0.0,0.0,0.0,0.0,0.0,0.0,5.3896,5.3825,5.4124,5.4802,5.4834,5.4947,5.5197,0.0,5.4475,5.5095,5.5846,5.6831,5.801,5.8249,5.9389,6.0953,5.9587,5.9523,6.0312,5.9794,5.9231,5.8772,5.9493,5.9296,0.0,5.9994,6.1768,6.4493,7.0548,7.5956,8.1263,8.7758,9.1914,9.5023,9.8409,10.0102,10.161,10.4596,10.5489,10.5212,10.4196,10.0102,9.4284,8.6712,8.0248,7.3353,6.4457,6.1317,5.9131,5.5745,6.0147,6.6027,7.1383,7.7077,8.4896,9.6531,9.7855,9.9055,10.2934,10.3703,10.3118,10.1025,9.9948,9.9363,9.9363,9.8717,9.7885,9.6839,9.6777,9.7085,9.7793,9.7485,9.6962,9.6285,9.5608,9.493,9.4253,9.3237,9.2376,9.1729,9.1052,9.1114,9.1668,8.9944,0.0,9.059,8.8528,8.705,8.6035,8.5357,8.4065,8.2495,8.1879,8.0555,7.9109,0.0,0.0,0.0,0.0,0.0,0.0,5.8336,5.9529,6.1483,6.5591,6.5094,6.3438,6.0986,5.8866,5.7309,0.0,0.0,0.0,0.0,0.0,0.0,0.0,0.0,0.0,5.5843,0.0,0.0,5.6368,5.5815,0.0,0.0,0.0,0.0,0.0,5.8363,5.9661,6.2032,5.9961,5.9753,0.0,0.0,5.9951,5.9937,0.0,0.0,0.0,0.0,6.148,6.3653,6.8532,7.3939,7.9694,8.6743,9.2807,9.7762,10.0194,10.2195,10.4103,10.6197,10.6997,10.6781,10.5027,9.9886,9.2714,8.3233,7.5784,6.8366,5.9459,5.6964,5.5622,5.3345,5.7192,6.2117,6.6427,7.1321,7.9078,9.2006,9.373,9.6069,10.2626,10.3395,10.2903,10.1702,10.0687,0.0,10.0317,0.0,0.0,9.6777,9.6839,9.727,9.807,9.7578,9.6962,9.6285,9.5608,9.493,9.4253,9.3545,9.2776,9.2006,9.1452,9.1514,9.1914,9.0036,0.0,0.0,8.862,8.7112,8.6281,8.5758,8.4403,8.2772,8.2987,8.1664,7.9786,0.0,0.0,0.0,0.0,0.0,0.0,5.8336,5.9529,6.2013,6.7645,6.6055,6.4034,6.3116,6.1616,5.9363,0.0,0.0,0.0,0.0,0.0,0.0,0.0,0.0,0.0,0.0,0.0,0.0,5.6558,5.6531,0.0,0.0,0.0,0.0,0.0,0.0,6.1109,6.14,6.1143,0.0,0.0,0.0,0.0,0.0,0.0,0.0,0.0,0.0,5.9404,5.9507,6.4841,6.8146,7.0982,7.6646,8.7112,9.7578,9.9055,10.1795,10.4904,10.752,10.7397,10.6289,10.5489,9.844,8.9821,8.2741,7.3999,6.538,5.835,5.5838,5.4621,5.3775,5.5592,5.9582,6.6642,7.0798,7.7662,9.059,9.3945,9.7147,10.2718,10.3395,10.3118,10.238,10.0533,9.9671,10.0286,0.0,0.0,9.8101,9.8686,9.8532,9.7424,9.7331,9.6962,9.6285,9.5608,9.493,9.4253,9.3545,9.2529,9.1298,9.1237,9.1267,9.1237,0.0,0.0,0.0,8.9636,8.8251,8.7081,8.702,8.6096,8.468,8.351,8.2556,8.1725,0.0,0.0,0.0,0.0,0.0,0.0,5.8866,5.9065,6.1251,6.8407,6.9136,6.8506,6.7314,6.6287,6.2941,5.6178,0.0,0.0,0.0,0.0,0.0,0.0,0.0,0.0,0.0,0.0,5.6858,5.606,5.6496,0.0,0.0,0.0,0.0,0.0,0.0,6.0013,6.1231,6.0317,0.0,0.0,0.0,0.0,0.0,0.0,0.0,0.0,0.0,0.0,5.864,6.1184,6.3682,6.6304,6.8889,7.6246,8.5265,9.2376,9.7147,10.1087,10.5396,10.7397,10.7489,10.438,9.7362,8.9264,8.1808,7.2021,6.3016,5.8058,5.5162,5.3437,5.316,5.4114,5.6577,6.1594,6.3195,6.7627,7.8493,8.1448,8.585,9.4992,9.7516,9.9548,10.2103,0.0,10.1118,10.0933,0.0,0.0,9.8901,9.8009,9.7424,9.7301,9.7301,9.6777,9.57,9.5392,9.4715,9.3607,9.293,9.2345,9.1822,9.1421,9.1452,9.176,0.0,0.0,0.0,8.9328,8.8035,8.7143,8.6712,8.5942,8.505,8.4495,8.311,8.1479,0.0,0.0,0.0,0.0,0.0,5.34,5.827,5.8701,6.0953,6.791,6.9533,6.9898,6.95,6.7281,6.367,5.8336,5.7144,0.0,0.0,0.0,0.0,0.0,0.0,0.0,0.0,0.0,5.6224,5.5681,5.6461,5.6799,0.0,0.0,5.8558,5.9742,0.0,0.0,0.0,0.0,0.0,0.0,0.0,0.0,0.0,0.0,0.0,0.0,0.0,0.0,0.0,0.0,0.0,6.1594,6.2487,6.6488,7.3045,8.4557,9.1514,9.6685,10.2103,10.5581,10.6874,10.3519,9.6316,8.8167,8.0947,7.0593,6.1402,5.7574,5.4601,5.2698,5.2698,5.3283,5.476,5.7962,5.8577,6.1933,7.1259,7.3753,7.8339,8.8497,9.1237,9.4315,9.9486,10.1271,10.1887,0.0,0.0,0.0,9.9332,9.7578,9.6808,9.727,9.7085,9.6439,9.5269,9.5084,9.4376,9.3176,9.2529,9.2129,9.1914,9.1452,9.1483,9.1852,0.0,0.0,0.0,8.9236,8.7974,8.7143,8.6619,8.5881,8.508,8.4896,8.3357,8.1417,0.0,0.0,0.0,0.0,0.0,5.1711,5.6051,5.8568,6.155,6.5989,6.5922,6.632,6.8473,6.2908,6.0125,6.2984,5.9198,0.0,0.0,0.0,0.0,0.0,0.0,0.0,0.0,0.0,5.5716,5.5681,5.6461,5.6799,5.6833,5.7543,5.8287,5.9032,0.0,0.0,0.0,0.0,0.0,0.0,0.0,0.0,6.0114,0.0,0.0,0.0,0.0,0.0,0.0,0.0,0.0,0.0,0.0,5.9285,6.3502,7.6431,8.548,9.2468,9.7885,10.1395,10.3488,10.3395,9.5238,8.5788,8.0278,7.009,6.064,5.6546,5.4114,5.2698,5.2698,5.3283,5.4607,5.7346,5.947,6.3872,7.2737,7.5138,7.8524,8.5357,8.5604,8.7604,9.3761,9.8593,10.1333,0.0,0.0,0.0,0.0,9.8009,9.727,9.7301,9.6654,9.5977,9.5269,9.4592,9.3915,9.3176,9.2529,9.1883,9.1237,9.1237,9.1237,0.0,0.0,0.0,0.0,8.9759,8.8405,8.7173,8.7173,8.6312,8.5019,8.4342,8.3233,8.1971,0.0,0.0,0.0,0.0,0.0,0.0,5.3512,5.408,5.5942,6.0861,6.2157,6.3766,6.685,6.4034,6.2278,6.3249,5.88,0.0,0.0,0.0,0.0,0.0,0.0,0.0,0.0,5.5817,5.619,5.7205,5.8998,5.9877,5.9911,6.0622,6.052,5.9708,5.8693,5.8524,0.0,0.0,0.0,0.0,0.0,5.8693,5.937,0.0,0.0,0.0,0.0,0.0,0.0,0.0,0.0,0.0,0.0,0.0,0.0,6.5165,7.3845,8.231,8.5881,8.9851,9.2345,8.9544,8.4495,7.9249,7.5371,6.7522,6.0413,5.7966,5.4928,5.2698,5.2698,5.2883,5.4668,5.9716,6.144,6.381,6.8489,7.3506,7.8524,8.3449,9.1668,9.7701,0.0,0.0,0.0,0.0,0.0,0.0,0.0,9.8039,9.7301,9.7301,9.6623,9.5946,9.5269,9.4592,9.3668,9.2529,9.1852,9.1421,9.1237,9.1237,0.0,0.0,0.0,0.0,0.0,8.9574,8.8405,8.7173,8.7173,8.6342,8.5019,8.4342,8.2956,8.1294,0.0,0.0,0.0,0.0,0.0,0.0,5.0689,5.1688,5.359,5.7087,5.8546,6.0935,6.5327,6.2553,6.1285,6.3547,5.8734,0.0,0.0,0.0,0.0,0.0,0.0,0.0,5.6122,5.531,5.6156,5.8727,6.1028,6.2415,6.299,6.4005,6.2888,6.0047,5.9133,5.8524,0.0,0.0,0.0,0.0,5.7983,5.8254,5.822,0.0,0.0,0.0,0.0,0.0,0.0,0.0,0.0,0.0,0.0,0.0,0.0,0.0,6.4826,7.1721,7.7293,8.1879,8.4649,8.2587,7.8955,7.5175,7.2444,6.594,5.9919,5.8137,5.5038,5.2698,5.2698,5.2914,5.4422,5.8485,6.0363,6.2517,6.6027,7.1721,7.7477,8.2833,9.2622,0.0,0.0,10.041,0.0,0.0,0.0,0.0,0.0,9.7793,9.69,9.69,9.6254,9.5577,9.49,9.3976,9.3084,9.2222,9.1298,9.099,9.1237,9.1237,0.0,0.0,0.0,0.0,0.0,8.9205,8.8189,8.7143,8.6896,8.6096,8.4957,8.3757,8.2372,8.0956,0.0,0.0,0.0,0.0,0.0,0.0,0.0,5.119,5.3792,5.4592,5.5325,5.7853,6.3306,5.9026,5.7912,6.3315,5.8807,0.0,0.0,0.0,0.0,0.0,0.0,0.0,5.6697,5.4803,5.5919,6.025,6.2584,6.4512,6.5967,6.732,6.5189,6.0182,6.0182,5.8964,5.6968,5.8254,5.7611,5.5886,5.7949,5.7949,0.0,0.0,0.0,0.0,0.0,0.0,0.0,0.0,0.0,0.0,0.0,0.0,0.0,0.0,0.0,0.0,0.0,7.6246,7.9139,8.0155,7.6708,7.2521,7.049,6.4611,0.0,5.7087,5.4576,5.2821,5.2975,5.3437,5.4099,5.5237,5.7531,6.0794,6.5534,7.0644,7.6677,8.4095,9.019,0.0,9.3638,9.8286,0.0,0.0,0.0,0.0,0.0,9.7331,9.6254,9.6131,9.5577,9.493,9.4192,9.2899,9.2191,9.2068,9.0867,9.0621,9.1237,9.1237,0.0,0.0,0.0,0.0,0.0,8.8743,8.7789,8.7112,8.6404,8.5634,8.4742,8.2803,8.1633,8.0802,0.0,0.0,0.0,0.0,0.0,0.0,0.0,0.0,0.0,0.0,5.4216,5.5353,5.7147,5.7076,5.7163,0.0,0.0,0.0,0.0,0.0,0.0,0.0,0.0,0.0,5.5952,5.6562,5.849,6.1839,6.4681,6.6812,6.8301,6.8673,6.6034,6.1028,6.1028,5.9742,5.7577,5.6833,5.619,5.5749,5.6256,5.6292,0.0,0.0,0.0,0.0,5.7143,5.6974,0.0,0.0,0.0,0.0,0.0,0.0,0.0,0.0,5.5253,5.6669,6.0116,0.0,6.6457,6.4703,6.4087,6.3502,0.0,5.947,5.7038,5.553,5.4299,5.396,5.553,5.5099,5.6238,6.1625,6.2579,6.4118,6.8366,7.7077,8.5604,9.2591,9.6962,9.8994,9.7978,0.0,0.0,0.0,0.0,0.0,0.0,9.6839,9.5792,9.4777,9.5084,9.4684,9.3453,9.2653,9.1729,9.0683,9.0898,9.1083,9.1237,9.1237,0.0,0.0,0.0,0.0,8.939,8.8528,8.7789,8.7112,8.6404,8.508,8.3449,8.2433,8.1325,8.0217,0.0,0.0,0.0,0.0,0.0,0.0,0.0,0.0,0.0,0.0,5.4357,5.5062,5.566,5.6694,5.7085,0.0,0.0,0.0,0.0,0.0,0.0,0.0,5.5907,5.551,5.5209,5.6325,5.8863,6.2888,6.6237,6.8977,7.1109,7.1109,6.8132,6.2719,6.0317,5.8152,5.6359,5.6258,5.5649,5.4837,5.6156,0.0,0.0,0.0,0.0,0.0,5.6782,5.6676,0.0,5.7648,5.7714,5.75,0.0,0.0,0.0,0.0,5.4191,5.4422,5.5161,5.8331,6.1317,6.0763,6.0948,6.1071,6.0332,5.8146,5.5899,5.4545,5.3914,5.4145,5.5561,5.5745,5.7069,6.1379,6.3349,6.6735,7.363,8.1233,8.8528,9.5054,9.8255,10.0009,0.0,0.0,0.0,0.0,0.0,0.0,0.0,9.6346,9.5331,9.4284,9.493,9.4469,9.2776,9.2406,9.1544,9.0221,9.0282,9.0467,9.0744,9.0744,0.0,0.0,0.0,0.0,8.8682,8.8005,8.7327,8.6619,8.5911,8.4588,8.2956,8.1971,8.0986,8.0001,0.0,0.0,0.0,0.0,0.0,0.0,0.0,0.0,0.0,0.0,0.0,0.0,0.0,0.0,0.0,0.0,0.0,0.0,0.0,0.0,0.0,5.5368,5.4903,5.4803,5.5243,5.5784,5.8558,6.3666,6.732,7.05,7.3172,7.351,7.0364,6.4241,5.9674,5.6562,5.4837,5.5987,5.5446,5.4059,5.6427,0.0,0.0,0.0,0.0,0.0,0.0,0.0,0.0,5.8698,5.9554,5.9562,5.9131,0.0,0.0,0.0,0.0,0.0,5.4576,5.7562,6.0609,6.1379,6.1471,6.1255,6.0948,5.8116,5.5222,5.416,5.4114,5.4637,5.567,5.7056,5.8566,6.0086,6.3933,7.0213,8.0094,8.4803,8.9328,9.5054,9.7516,0.0,0.0,0.0,0.0,0.0,0.0,0.0,0.0,9.5885,9.4961,9.4284,9.493,9.4284,9.2252,9.2222,9.1452,8.9913,8.9421,8.9513,9.0067,9.0067,9.0098,0.0,0.0,0.0,8.8159,8.7481,8.6773,8.6035,8.5142,8.3972,8.2618,8.1263,8.0432,7.9847,0.0,0.0,0.0,0.0,0.0,0.0,0.0,0.0,0.0,0.0,0.0,0.0,0.0,0.0,0.0,0.0,0.0,0.0,0.0,0.0,0.0,5.5612,5.5006,5.575,5.8287,5.7814,5.981,6.4444,6.7557,6.9992,7.1684,7.3544,7.0601,6.3632,6.2178,5.9302,5.5513,5.5108,5.5108,5.5378,5.5175,0.0,0.0,0.0,0.0,0.0,0.0,0.0,0.0,5.6315,5.7699,5.8547,5.6238,0.0,0.0,0.0,0.0,0.0,5.8454,6.1409,6.2056,5.7143,5.7623,5.8793,5.7038,5.5715,5.4869,5.4885,5.6104,5.7999,6.0577,6.2492,6.4457,6.6919,7.1721,7.8124,8.6619,9.0282,9.3545,9.7362,0.0,0.0,0.0,0.0,0.0,0.0,0.0,0.0,0.0,9.5392,9.4961,9.4284,9.493,9.4284,9.2252,9.2222,9.099,8.8497,8.899,8.9267,8.9359,8.9359,8.9667,0.0,0.0,8.8928,8.8159,8.7481,8.6773,8.5942,8.4095,8.2587,8.1202,7.9878,7.9324,7.917,0.0,0.0,0.0,0.0,0.0,0.0,0.0,0.0,0.0,0.0,0.0,0.0,0.0,0.0,0.0,0.0,0.0,0.0,0.0,5.5646,5.663,5.866,5.7983,5.7814,5.8389,6.0452,6.3531,6.7624,7.1447,7.4086,7.5506,7.368,6.9282,6.2854,6.1264,5.8321,5.4499,5.416,5.4194,5.4532,0.0,0.0,0.0,0.0,0.0,0.0,0.0,0.0,0.0,0.0,5.7983,5.9408,5.67,0.0,0.0,0.0,0.0,0.0,5.5745,5.8701,6.0517,5.8085,6.0332,6.2733,6.104,5.9008,5.7518,5.7616,5.8893,6.0722,6.3202,6.6083,7.012,7.6123,7.9817,8.3757,8.902,9.1452,9.3792,0.0,0.0,0.0,0.0,0.0,0.0,0.0,0.0,0.0,0.0,0.0,9.4961,9.4284,9.5269,9.4653,9.2252,9.2222,9.1052,8.8743,8.9051,8.9205,8.9174,8.8035,8.8128,8.9051,0.0,8.7358,8.705,8.6743,8.5758,8.4403,8.3449,8.1817,7.9878,7.8893,7.8524,7.8462,0.0,0.0,0.0,0.0,0.0,0.0,0.0,0.0,0.0,0.0,0.0,0.0,0.0,0.0,0.0,0.0,0.0,0.0,0.0,5.5681,5.7137,6.0351,6.0588,6.0825,6.1264,6.4174,6.7929,7.2529,7.6149,7.8686,8.004,7.4965,6.9248,6.3057,6.0825,5.7476,5.3518,5.3518,5.3585,5.3788,0.0,0.0,0.0,0.0,0.0,0.0,0.0,0.0,0.0,0.0,0.0,0.0,0.0,0.0,0.0,5.5253,5.3775,5.3652,5.4791,5.7254,5.9778,6.0948,6.3502,6.575,6.5811,6.3441,6.144,6.2346,6.3402,6.4672,6.6298,7.0303,7.5907,8.3972,8.6835,8.902,9.1945,9.3361,9.4961,9.7208,0.0,0.0,0.0,0.0,0.0,0.0,0.0,0.0,0.0,0.0,9.4869,9.453,9.5361,9.4653,9.2252,9.2222,9.1144,8.8959,8.8651,8.8405,8.8189,8.6589,8.6558,8.7666,8.6743,8.6281,8.6096,8.5758,8.4649,8.3049,8.2556,8.0956,7.877,7.8247,7.7939,7.7785,0.0,0.0,0.0,0.0,0.0,0.0,0.0,0.0,0.0,0.0,0.0,0.0,0.0,0.0,0.0,0.0,0.0,0.0,0.0,5.5681,5.6427,5.8051,6.0757,6.5087,7.121,6.9654,7.2293,7.9464,8.0479,8.1731,8.3084,7.8585,7.2563,6.5358,6.3125,5.893,5.3518,5.3518,5.389,5.4499,5.3957,0.0,0.0,0.0,0.0,0.0,0.0,0.0,0.0,0.0,0.0,0.0,0.0,0.0,5.9593,5.8639,5.7008,5.6436,6.0886,6.184,6.221,6.4826,6.381,6.3287,6.7627,6.6981,6.6391,6.9769,7.0886,7.1412,7.1686,7.6502,8.2187,8.7912,9.1575,9.4838,9.8193,0.0,10.004,0.0,0.0,0.0,0.0,0.0,0.0,0.0,0.0,0.0,0.0,0.0,0.0,9.5177,9.4684,9.3699,9.2252,9.2222,9.0898,8.8251,8.6958,8.6004,8.5388,8.5234,8.5573,8.6281,8.6866,8.6743,8.6004,8.4773,8.3788,8.2895,8.1048,7.9417,7.8093,7.8031,7.7631,7.7077,0.0,0.0,0.0,0.0,0.0,0.0,0.0,0.0,0.0,0.0,0.0,0.0,0.0,0.0,0.0,0.0,0.0,0.0,5.4397,5.5209,5.7002,5.9877,6.2415,6.6034,7.0906,7.3849,7.8754,8.5723,8.6907,8.5892,8.2712,7.7773,7.1481,6.4241,6.1975,5.9708,5.7442,5.5245,5.6025,5.8457,5.5077,5.4126,0.0,0.0,0.0,0.0,0.0,0.0,0.0,0.0,5.6423,5.83,5.6392,5.8485,6.104,5.7808,5.63,5.6023,5.7408,5.9747,6.1963,6.2579,6.4795,6.775,7.1259,7.1475,7.2244,7.7023,7.8129,7.8591,7.949,8.3551,8.7974,9.1729,9.5885,9.9117,10.041,10.041,0.0,0.0,0.0,0.0,0.0,0.0,0.0,0.0,0.0,0.0,0.0,0.0,0.0,9.4653,9.3976,9.3145,9.2252,9.099,8.9636,8.8189,8.7235,8.6404,8.5696,8.4434,8.468,8.6096,8.5511,8.4865,8.4188,8.3695,8.2587,8.1079,7.9447,7.8493,7.797,7.757,7.7231,7.7016,0.0,0.0,0.0,0.0,0.0,0.0,0.0,0.0,0.0,0.0,0.0,0.0,0.0,0.0,0.0,0.0,0.0,0.0,5.3585,5.4668,5.6596,5.9404,6.211,6.5527,6.9755,7.5709,8.1562,8.7313,9.0459,8.9072,8.3355,7.8382,7.28,6.688,6.3396,6.2009,6.1975,5.8128,5.7959,6.0024,5.6335,5.4906,0.0,0.0,0.0,0.0,0.0,0.0,0.0,0.0,5.5715,5.7654,5.633,5.8639,6.1317,5.8454,5.7469,5.7069,5.5992,5.8393,6.1225,6.1379,6.538,7.0551,7.5415,7.6554,7.8154,8.3788,8.3941,8.3387,8.4526,8.7204,9.0221,9.3145,9.7608,10.0748,10.0994,10.041,0.0,0.0,0.0,0.0,0.0,0.0,0.0,0.0,0.0,0.0,0.0,0.0,0.0,0.0,9.3361,9.2376,9.1298,8.9698,8.822,8.6896,8.6435,8.5942,8.5419,8.4034,8.3941,8.4803,8.4095,8.3264,8.2433,8.2218,8.1202,7.9663,7.8247,7.7847,7.7939,7.7262,7.7016,7.7046,0.0,0.0,0.0,0.0,0.0,0.0,0.0,0.0,0.0,0.0,5.7881,0.0,0.0,0.0,0.0,0.0,0.0,0.0,5.3518,5.4194,5.4938,5.5683,5.9302,6.37,6.8876,7.483,7.9735,8.3524,9.0256,9.0865,8.5621,8.1156,7.7468,7.4289,6.8402,6.617,6.6576,6.2076,5.9448,5.8273,5.7703,5.6645,5.5445,0.0,0.0,0.0,0.0,0.0,0.0,0.0,5.5454,5.4791,6.0855,6.1409,6.0086,6.1379,6.1317,6.0332,5.83,5.8762,6.0301,6.2333,6.5442,7.0521,7.994,8.2095,8.3849,9.0005,8.8035,8.5388,8.6065,8.6743,8.8343,9.1729,9.6223,9.9548,10.0225,0.0,0.0,0.0,0.0,0.0,0.0,0.0,0.0,0.0,0.0,0.0,0.0,0.0,0.0,0.0,9.293,9.1237,8.9236,8.8528,8.6804,8.4126,8.4095,8.4095,8.4095,8.4095,8.3357,8.2125,8.2772,8.231,8.1017,8.0371,7.9694,7.8955,7.757,7.7447,7.7939,7.7262,7.7016,7.7139,0.0,0.0,0.0,0.0,0.0,0.0,0.0,0.0,0.0,5.6968,5.7137,0.0,0.0,0.0,0.0,0.0,0.0,5.4837,5.4296,5.4465,5.4702,5.4905,5.7983,6.0182,6.1197,6.8132,7.6386,8.5892,8.8937,8.6941,8.0276,7.8957,7.5608,7.0737,7.1041,7.0737,6.9722,6.5888,6.5447,6.6998,6.2404,6.0303,5.9859,0.0,0.0,0.0,0.0,0.0,0.0,0.0,0.0,0.0,5.8373,5.9967,6.1009,5.9993,5.9193,5.8423,5.7395,5.9101,6.1594,6.3164,7.009,7.7724,8.2433,8.351,8.5634,9.3207,9.2283,9.0313,9.096,9.0898,9.1544,9.3976,9.7147,9.9394,0.0,0.0,0.0,0.0,0.0,0.0,0.0,0.0,0.0,0.0,0.0,0.0,0.0,0.0,0.0,0.0,9.0806,8.9821,8.9205,8.7574,8.6312,8.5511,8.5019,8.4557,8.4065,8.311,8.271,8.2741,8.2002,8.0925,7.9632,7.8924,7.8524,7.8308,7.7908,7.7847,7.8001,7.7816,7.7856,7.8243,0.0,0.0,0.0,0.0,0.0,0.0,0.0,0.0,5.5649,5.6664,5.6799,5.6528,0.0,0.0,0.0,5.5681,5.5446,5.5209,5.504,5.4499,5.4566,5.5446,5.69,5.8727,6.0926,6.7184,7.351,7.9837,8.3964,8.2915,7.713,8.0141,7.8991,7.4559,7.8111,7.8213,7.5506,7.2146,7.0666,7.0192,6.6494,6.4337,6.3178,0.0,0.0,0.0,0.0,0.0,0.0,0.0,0.0,0.0,5.632,5.7524,5.886,5.9128,5.8116,5.7346,5.9101,6.1255,6.3933,6.775,7.483,8.2095,8.6681,8.8559,9.0898,9.6346,9.4684,9.2499,9.3453,9.2653,9.2499,9.453,9.7147,9.8809,0.0,0.0,0.0,0.0,0.0,0.0,0.0,0.0,0.0,0.0,0.0,0.0,0.0,0.0,0.0,0.0,8.9113,8.8251,8.7974,8.5942,8.4773,8.4495,8.3572,8.3049,8.2895,8.2618,8.2125,8.1417,8.0063,7.917,7.8616,7.7908,7.7785,7.8031,7.8031,7.8031,7.8062,7.8473,7.8765,7.9122,0.0,0.0,5.5649,5.5716,0.0,0.0,0.0,5.6021,5.5141,5.6427,5.6596,5.6325,0.0,0.0,0.0,5.5681,5.5141,5.504,5.5683,5.4465,5.46,5.6596,5.6461,5.9302,6.5662,6.9566,7.0681,6.8745,7.6676,7.872,7.5371,8.3084,8.5182,8.2611,8.7008,8.6501,8.2103,7.8855,7.4416,6.9576,6.9706,6.8138,6.5627,6.4281,0.0,0.0,0.0,0.0,0.0,0.0,0.0,0.0,5.5034,5.4889,5.5051,5.8466,5.7814,5.7069,6.2179,6.4395,6.7012,7.4368,7.9663,8.4957,9.2037,9.5546,9.7608,9.8778,9.5608,9.2991,9.4315,9.2807,9.2099,9.4284,9.6593,0.0,0.0,0.0,0.0,0.0,0.0,0.0,0.0,0.0,0.0,0.0,0.0,0.0,0.0,0.0,0.0,0.0,8.7728,8.6681,8.585,8.4003,8.271,0.0,8.0771,8.0432,8.0925,8.2156,8.1325,7.8832,7.757,7.7385,7.7877,7.7262,7.7416,7.8031,7.8031,7.8062,7.8216,7.9264,7.9645,7.9871,0.0,0.0,5.5006,5.5615,0.0,0.0,5.6799,5.6156,5.5378,5.5108,5.5074,5.4803,5.4059,5.5006,0.0,5.5681,5.6089,5.6156,5.575,5.5412,5.5446,5.5919,5.9167,6.2719,6.6474,6.5713,6.5567,6.6179,7.2241,7.3849,7.1582,8.0818,8.4133,8.2577,8.6501,8.5723,8.119,7.5845,7.2914,7.1604,7.0104,6.8727,6.7441,6.5759,6.3683,0.0,0.0,0.0,0.0,0.0,0.0,0.0,5.6127,5.6286,5.5998,5.6717,5.7494,5.8608,6.0855,6.4672,6.9566,7.6,8.4249,9.1914,9.6223,9.7239,9.7208,9.6993,9.6131,9.5669,9.65,9.453,9.3792,9.6931,0.0,0.0,0.0,0.0,0.0,0.0,0.0,0.0,0.0,0.0,0.0,0.0,0.0,0.0,0.0,0.0,0.0,8.6835,8.6496,8.5511,8.3757,8.3295,8.2495,0.0,8.0986,8.0402,7.954,7.9817,7.9047,7.7447,7.7139,7.7108,7.7231,7.7077,7.7416,7.8031,7.8031,7.837,7.8955,7.97,8.0321,8.092,0.0,0.0,0.0,0.0,0.0,0.0,0.0,0.0,5.5175,5.5141,5.4803,5.4329,5.3585,5.4499,0.0,0.0,5.6055,5.6562,5.7239,5.6256,5.6528,5.8321,6.1975,6.4681,6.6237,6.4707,6.4296,6.5024,6.8037,6.969,7.0251,7.8806,8.3215,8.42,8.7922,8.6501,8.1088,7.7976,7.5202,7.2914,7.2666,7.126,6.905,6.6839,6.3951,6.0625,5.7394,0.0,0.0,0.0,0.0,0.0,0.0,0.0,5.4652,5.6785,5.687,5.7465,6.2898,6.7615,7.3262,8.2495,9.0036,9.5546,9.6993,9.7054,9.6623,9.5946,9.5792,9.5915,9.6254,9.5423,9.5269,9.7054,0.0,0.0,0.0,0.0,0.0,0.0,0.0,0.0,0.0,0.0,0.0,0.0,0.0,0.0,0.0,8.6804,8.5788,8.4711,8.3726,8.2864,8.2125,8.151,8.0832,8.0124,7.9447,7.877,7.8093,7.8093,7.7693,7.7016,7.6677,7.6892,7.7477,7.7139,7.7631,7.8585,7.8893,7.9263,7.9663,8.0514,8.1169,8.1677,0.0,0.0,0.0,0.0,0.0,0.0,0.0,0.0,0.0,5.5649,5.5074,5.4363,5.3754,5.4329,5.4972,0.0,0.0,0.0,5.8321,5.6968,5.7645,6.1163,6.4005,6.5662,6.6068,6.5099,6.4664,6.4825,6.4784,6.6875,7.1095,7.7569,8.2588,8.616,8.8689,8.6573,8.1021,7.9735,7.6386,7.2101,7.3503,7.2168,6.9008,6.6621,6.3323,5.9592,5.6638,5.5981,5.6531,5.646,0.0,0.0,0.0,0.0,5.3606,5.6931,5.6263,5.6169,6.4302,7.0447,7.7435,8.9435,9.4869,9.7147,9.6593,9.647,9.6192,9.5269,9.5207,9.5269,9.5269,9.5638,9.6008,0.0,0.0,0.0,0.0,0.0,0.0,0.0,0.0,0.0,0.0,0.0,0.0,0.0,0.0,0.0,8.585,8.4188,8.3049,8.2587,8.1079,8.0371,8.0555,7.957,7.8986,7.8709,7.757,7.7016,7.7016,7.7016,7.6954,7.6831,7.6246,7.6585,7.7477,7.6892,7.7477,7.8801,7.9478,7.9909,8.0186,8.1145,8.1802,8.2146,0.0,0.0,0.0,0.0,0.0,0.0,0.0,0.0,0.0,0.0,5.5074,5.4566,5.4465,5.5108,5.5344,5.4769,5.5344,5.5852,5.6122,0.0,0.0,6.1197,6.3497,6.5628,6.7557,6.5526,6.4862,6.5734,6.4286,6.7514,7.52,7.8481,8.2509,8.6829,8.4736,8.2528,7.9904,7.3477,6.8808,6.5797,6.6042,6.5433,6.4248,6.2756,6.1405,5.9913,5.661,5.5508,5.5541,5.4982,5.5253,0.0,0.0,0.0,5.6499,5.5056,5.6242,5.8215,5.9189,6.9096,8.1456,9.0744,9.5207,9.727,9.7178,9.7147,9.6623,9.4777,9.4869,9.5269,9.5269,9.4869,9.493,0.0,0.0,0.0,0.0,0.0,0.0,0.0,0.0,0.0,0.0,0.0,0.0,0.0,0.0,0.0,8.4465,8.4095,8.2895,8.0586,8.0771,8.0124,7.8462,7.8862,7.8493,7.7293,7.7108,7.7016,7.7016,7.7016,7.6708,7.6154,7.6061,7.5784,7.5384,7.5292,7.6061,7.7354,7.8031,7.9047,8.0186,8.0901,8.1628,8.1985,0.0,0.0,0.0,0.0,0.0,0.0,0.0,0.0,0.0,0.0,0.0,5.5209,5.5209,5.5141,5.5277,5.5784,5.5378,5.5446,5.6258,5.7712,5.9539,6.1806,6.2448,6.3971,6.6609,6.4858,6.5139,6.7696,6.5643,6.9521,7.8918,7.9226,8.2518,8.7997,8.4633,8.1836,7.9126,7.209,6.8064,6.6373,6.5527,6.5256,6.5053,6.2474,6.1295,6.0588,5.7193,5.6024,5.6058,5.6326,5.6633,5.6909,5.6909,0.0,0.0,0.0,5.6691,5.9357,6.5567,7.2504,8.0144,8.9045,9.2872,9.4438,9.4438,9.5054,9.5331,9.4438,9.4192,9.4222,9.4623,9.4777,0.0,0.0,0.0,0.0,0.0,0.0,0.0,0.0,0.0,0.0,0.0,0.0,0.0,0.0,0.0,8.4567,8.3856,8.2374,8.1151,8.0146,7.945,7.8605,7.771,7.8019,7.8026,7.7603,7.7603,7.7416,7.6949,7.6449,7.6101,7.6,7.56,7.5507,7.5538,7.5138,7.6031,7.76,7.7908,7.8893,8.0155,8.0675,8.1107,8.1454,0.0,0.0,0.0,0.0,0.0,0.0,0.0,0.0,0.0,0.0,0.0,5.5987,5.5987,0.0,0.0,0.0,5.5683,5.5547,5.6461,5.7915,5.9573,6.1434,6.1366,6.2415,6.4783,6.414,6.5301,6.8381,6.7232,7.1939,8.1917,8.171,8.5031,9.0913,8.633,8.2831,7.9851,7.311,6.9648,6.8571,6.6508,6.5561,6.5222,6.3724,6.3017,6.2445,5.9172,5.8048,5.8015,5.7843,5.7704,5.76,5.7806,5.7391,0.0,0.0,0.0,5.8727,6.837,7.2674,7.6396,8.486,8.9027,9.1099,9.1438,9.2577,9.3391,9.3053,9.256,9.2283,9.2653,0.0,0.0,0.0,0.0,0.0,0.0,0.0,0.0,0.0,0.0,0.0,0.0,0.0,0.0,0.0,0.0,8.2573,8.2482,8.0631,7.9561,7.9452,7.826,7.7729,7.7916,7.7729,7.7797,7.8054,7.7898,7.7524,7.6961,7.6115,7.5799,7.5852,7.5294,7.5199,7.5476,7.5138,7.6,7.7539,7.7693,7.8616,7.9946,8.0409,8.0777,8.1018,0.0,0.0,0.0,0.0,0.0,0.0,0.0,0.0,0.0,0.0,0.0,5.6731,5.6731,5.6697,5.6427,5.5818,5.6325,5.6427,5.5818,5.7137,5.8321,5.9167,6.0554,0.0,6.255,6.3869,6.5127,6.6362,6.8399,7.4269,8.3664,8.7069,9.161,9.6581,8.9671,8.5503,8.3195,7.6195,7.2426,7.0838,6.7151,6.4038,6.2009,6.6034,6.7117,6.6177,6.3294,6.2285,6.1779,5.8665,5.7157,5.6745,5.76,5.7391,5.6638,0.0,0.0,0.0,6.027,6.5307,7.0827,7.7711,8.3682,8.8205,8.9505,9.0636,9.1021,8.9728,8.9421,8.9236,8.862,0.0,0.0,0.0,0.0,0.0,0.0,0.0,0.0,0.0,0.0,0.0,0.0,0.0,0.0,0.0,0.0,8.0617,7.9386,7.9506,7.8994,7.7662,7.7892,7.8366,7.9021,7.8301,7.8023,7.7992,7.7399,7.7023,7.6961,7.6612,7.6112,7.5523,7.5142,7.4645,7.4153,7.4738,7.5446,7.6184,7.6831,7.7939,7.9299,8.0223,8.0777,8.0955,0.0,0.0,0.0,0.0,0.0,0.0,0.0,0.0,0.0,0.0,0.0,0.0,0.0,5.7645,5.707,5.778,5.7645,5.7374,5.7137,5.7171,5.7949,5.9641,6.025,6.1332,6.3091,6.3632,6.4982,6.7299,6.7874,7.2306,8.026,8.3989,8.7329,8.9973,8.7403,8.6531,8.6198,7.4016,6.9694,7.0677,6.7098,6.5489,6.532,6.6163,6.7523,6.8615,6.5766,6.4149,6.3067,6.1676,5.9731,5.7844,5.7359,5.7012,5.6669,5.5854,5.5348,5.5903,5.9615,6.2192,6.5568,7.3004,7.8469,8.2628,8.4562,8.7061,8.8718,8.7791,8.7044,8.6373,0.0,0.0,0.0,0.0,0.0,0.0,0.0,0.0,0.0,0.0,0.0,0.0,0.0,0.0,0.0,0.0,0.0,0.0,7.9476,7.9547,7.9379,7.887,7.9211,7.9213,7.8749,7.8499,7.825,7.7999,7.7747,7.7401,7.6961,7.5495,7.4967,7.5154,7.459,7.4214,7.3968,7.3783,7.4615,7.6031,7.6277,7.7609,7.9388,7.9068,8.023,8.1666,0.0,0.0,0.0,6.5019,0.0,6.2448,6.1467,5.9776,5.8896,5.9641,0.0,0.0,0.0,0.0,5.9607,6.0114,5.9235,5.8626,5.8626,5.8423,5.9066,6.0791,6.1129,6.2076,6.3835,6.4106,6.5189,6.7151,6.7412,7.1128,7.8046,8.042,8.3624,8.7218,8.3774,8.4957,8.8635,7.6757,7.2659,7.3825,6.997,6.9002,7.0045,7.0938,7.2394,7.3624,7.1243,6.8913,6.6615,6.422,6.1605,5.9111,5.7568,5.6739,5.6288,5.577,5.5615,5.6061,5.8264,5.9506,6.2028,6.9626,7.3289,7.6267,8.0997,8.2748,8.3527,8.4201,8.3587,8.2882,0.0,0.0,0.0,0.0,0.0,0.0,0.0,0.0,0.0,0.0,0.0,0.0,0.0,0.0,0.0,0.0,0.0,0.0,7.9445,7.9083,7.8919,7.891,7.944,7.9568,7.91,7.888,7.8597,7.8373,7.7899,7.749,7.7115,7.5399,7.4935,7.5434,7.4189,7.3907,7.4307,7.3845,7.4461,7.5661,7.579,7.6941,7.8537,7.8501,7.9694,8.1196,6.5087,6.6305,6.6609,6.5865,6.4546,6.3125,6.167,5.9505,5.8287,5.9099,0.0,0.0,0.0,0.0,0.0,6.2787,6.1264,6.0351,6.0283,6.096,6.167,6.2381,6.3159,6.3869,6.458,6.529,6.5662,6.5696,6.7151,7.1138,7.7467,7.7204,8.1505,8.9092,7.953,8.0862,9.0009,8.4456,8.1634,8.0345,7.5554,7.4214,7.5558,8.0423,8.19,8.1156,7.9735,7.6826,7.2744,6.6384,6.2808,6.064,5.8461,5.6743,5.5598,5.5632,5.5632,5.5608,0.0,0.0,0.0,6.7372,6.811,6.9553,7.8812,7.7672,7.5527,7.8591,7.8742,7.8641,0.0,0.0,0.0,0.0,0.0,0.0,0.0,0.0,0.0,0.0,0.0,0.0,0.0,0.0,0.0,0.0,0.0,7.9047,7.9047,7.8054,7.755,7.7591,7.8565,7.9416,8.0048,7.9416,7.91,7.9069,7.7615,7.7115,7.7371,7.6401,7.6118,7.6329,7.4033,7.3783,7.5015,7.4953,7.4953,7.5048,7.5366,7.5959,7.6772,7.8477,7.9198,7.9656,6.4647,6.6373,6.7523,6.732,6.6508,6.5764,6.5358,6.2922,6.1806,0.0,0.0,0.0,6.414,6.644,6.8132,6.8774,6.7963,6.6474,6.4275,6.3362,6.299,6.3193,6.3903,6.441,6.4613,6.4783,6.5155,6.5696,6.6643,6.8696,7.1854,7.5324,7.8258,8.0673,8.0996,8.1282,8.1117,7.4505,7.4952,7.9814,7.5013,7.5233,7.8443,7.9005,8.075,8.2746,8.1832,8.0479,7.8634,7.537,7.1825,6.792,6.2758,5.8599,5.5736,5.6322,5.6081,5.5367,5.4296,0.0,0.0,0.0,0.0,0.0,6.8371,6.993,7.1224,7.2283,7.3291,0.0,0.0,0.0,0.0,0.0,0.0,0.0,0.0,0.0,0.0,0.0,0.0,0.0,0.0,0.0,0.0,0.0,7.8493,7.8124,7.7631,7.782,7.8364,7.9338,7.9195,7.9195,7.9385,7.8689,7.831,7.831,7.6644,7.5955,7.6021,7.4779,7.4501,7.5027,7.4094,7.4214,7.4922,7.3937,7.4122,7.5048,7.5366,7.6588,7.8048,7.781,7.9602,8.1988,6.485,6.7117,6.8944,6.9282,6.8977,6.8808,6.9113,6.6609,6.5256,0.0,0.0,0.0,6.891,7.2462,7.4255,7.324,7.1887,6.9823,6.6812,6.5797,6.5222,6.4918,6.529,6.5967,6.6914,6.6643,6.6508,6.6609,6.7049,6.7786,6.8915,7.1686,7.3638,7.4832,7.6064,7.6224,7.5153,6.9607,7.1441,7.8118,7.7406,7.9268,8.265,8.3975,8.5621,8.711,8.6399,8.5452,8.3983,7.9987,7.5158,0.0,6.4504,6.0733,5.829,5.822,5.7874,5.7257,5.6098,5.6269,5.7361,6.0059,0.0,0.0,6.4967,6.5443,6.5932,0.0,6.9427,0.0,0.0,0.0,0.0,0.0,0.0,0.0,0.0,0.0,0.0,0.0,0.0,0.0,0.0,0.0,0.0,7.9047,7.8986,7.8462,7.7477,7.7693,7.805,7.8397,7.7873,7.7619,7.7804,7.7078,7.6795,7.6957,7.5389,7.4769,7.5057,7.3973,7.3819,7.4251,7.4062,7.4432,7.5114,7.3908,7.3691,7.4279,7.5214,7.6345,7.7521,7.814,7.9848,8.1797,0.0,6.8368,7.0601,7.1515,7.1751,7.2124,7.3105,7.077,6.9282,0.0,6.9891,7.1481,7.6623,8.0615,8.1359,7.7502,7.4762,7.1988,6.8944,6.8368,6.7827,6.7117,6.7151,6.8098,7.0026,6.9519,6.8774,6.7895,6.7895,6.7996,6.8166,6.7925,6.9083,7.1324,6.8765,6.895,7.1099,6.8567,7.0406,7.5596,8.0477,8.4186,8.7132,9.1603,9.3199,9.2928,9.2083,9.0932,8.8835,8.2358,7.5649,0.0,0.0,0.0,0.0,6.0908,6.0391,6.0011,5.9288,5.8324,5.8531,6.2729,6.0813,0.0,6.4971,6.2824,6.1,6.5475,6.6101,0.0,0.0,0.0,0.0,0.0,0.0,0.0,0.0,0.0,0.0,0.0,0.0,0.0,0.0,7.7798,7.8442,7.9047,7.9509,7.917,7.7754,7.7435,7.686,7.6057,7.5711,7.5672,7.6003,7.534,7.5097,7.5391,7.3889,7.3557,7.416,7.3602,7.3571,7.3909,7.4,7.4621,7.543,7.456,7.3973,7.3695,7.5166,7.5919,7.6516,7.9031,8.0056,8.0392,6.803,6.9891,7.1718,7.3646,7.4458,7.5709,7.828,7.6657,7.6048,7.8585,7.9295,8.1359,8.596,8.6196,8.6163,8.6433,8.1697,7.7401,7.439,7.1379,6.9417,6.8673,6.9214,6.9451,6.9316,6.9755,6.9282,6.7895,6.7895,6.8538,6.9755,6.9714,6.9951,7.0524,7.1081,6.989,6.764,7.009,7.158,7.2743,7.7464,8.2877,8.834,9.0832,9.3909,9.6751,9.5398,9.4721,9.3698,8.8401,8.1291,7.4422,0.0,0.0,0.0,6.294,0.0,0.0,5.9115,6.0472,0.0,0.0,0.0,0.0,5.84,5.9017,6.051,0.0,6.0216,0.0,0.0,0.0,0.0,0.0,0.0,0.0,0.0,0.0,0.0,0.0,0.0,0.0,0.0,7.9099,7.9401,7.9114,7.8185,7.7016,7.5661,7.5766,7.5898,7.6026,7.6181,7.6175,7.6003,7.5572,7.5168,7.4668,7.2751,7.2042,7.241,7.2545,7.2764,7.3164,7.4036,7.481,7.5493,7.5553,7.6066,7.6832,7.6382,7.7488,7.9429,7.9663,8.0358,8.12,6.935,7.1447,7.3646,7.5912,7.7198,7.9092,8.2475,8.1393,8.1393,8.4742,8.7144,8.8531,8.8531,8.9207,8.8598,8.5993,8.2002,7.8382,7.5337,7.2732,7.0973,7.0229,7.0195,7.0703,7.1819,7.077,7.0161,7.0128,6.9417,6.8842,6.8538,6.9654,6.9383,6.7996,6.9485,6.8517,6.5932,6.7877,6.8995,7.0212,7.9032,8.5187,8.9577,9.4048,9.7394,9.9457,9.7563,9.5702,9.3131,8.6969,8.2666,0.0,0.0,7.2108,6.9694,0.0,6.6117,6.4127,0.0,0.0,0.0,6.0913,0.0,0.0,0.0,5.8148,5.8346,5.8103,5.8556,0.0,0.0,0.0,0.0,0.0,0.0,0.0,0.0,0.0,0.0,0.0,0.0,0.0,0.0,7.6734,7.6524,7.7482,7.7231,7.6739,7.6031,7.5982,7.5868,7.5527,7.5276,7.4985,7.4423,7.3572,7.2989,7.2613,7.117,7.0683,7.1143,7.1647,7.1922,7.1911,7.3384,7.4592,7.5636,7.6342,7.8099,8.0227,7.8672,7.8969,8.0297,8.0479,8.0921,8.1393,7.006,7.2563,7.5236,7.7198,7.9025,8.1359,8.4809,8.4539,8.5384,8.941,9.2962,9.3808,9.0324,9.1677,9.0797,8.5655,8.1596,7.8517,7.669,7.4086,7.209,7.0939,7.0973,7.1887,7.3713,7.1819,7.1278,7.2191,7.0703,6.9113,6.7489,6.9011,6.8673,6.6779,6.7252,6.7074,6.6275,6.5712,6.681,6.9991,8.1201,8.6265,8.7953,9.5673,9.9138,9.9678,9.8752,9.6041,9.1913,8.5554,8.3598,8.2735,7.6756,7.5834,0.0,0.0,0.0,0.0,0.0,0.0,0.0,0.0,0.0,6.2048,0.0,0.0,0.0,0.0,0.0,0.0,0.0,0.0,0.0,0.0,0.0,0.0,0.0,0.0,0.0,0.0,0.0,0.0,0.0,7.321,7.2583,7.523,7.5569,7.5815,7.6215,7.589,7.5215,7.4187,7.3655,7.3104,7.2407,7.1562,7.0991,7.0668,6.9988,6.9849,7.0341,7.0965,7.1444,7.1808,7.3055,7.4644,7.6425,7.73,7.9542,8.2374,8.0769,8.0493,8.1,8.1278,8.1393,8.1442,7.006,7.2563,7.4897,7.5811,7.8314,8.1021,8.3389,8.4776,8.7347,9.2421,9.5161,9.6683,9.6853,9.5432,9.4654,9.5195,8.596,8.1054,8.3389,7.7164,7.2157,6.9485,7.2394,7.3037,7.0737,7.2293,7.2563,7.1447,6.9958,6.9417,6.9789,6.8673,6.9079,7.0534,6.7354,6.7544,7.0059,6.7288,6.9469,7.5301,8.0352,8.0513,7.8935,8.9066,9.341,9.4537,9.8536,9.7597,9.4112,0.0,8.7477,8.2684,0.0,7.9098,7.6701,7.5824,0.0,0.0,0.0,0.0,0.0,0.0,6.9377,0.0,0.0,0.0,0.0,0.0,0.0,0.0,0.0,0.0,0.0,0.0,0.0,0.0,0.0,0.0,0.0,0.0,0.0,0.0,0.0,0.0,6.9751,7.3076,7.169,7.1506,7.3353,7.3077,7.2269,7.0965,7.137,7.1421,7.1027,7.1825,7.1591,7.0381,7.0303,7.0151,6.9885,7.0602,7.2495,7.5103,7.4325,7.5667,7.8584,7.8816,7.9719,8.0875,8.1062,8.1981,8.3083,8.186,8.1393,8.1393,7.0432,7.2529,7.4322,7.5506,7.7468,7.9938,8.3016,8.8463,9.3165,9.5804,9.8848,10.0878,10.1216,9.8476,9.6176,9.506,8.7888,8.3422,8.3389,7.7976,7.4424,7.3646,7.3443,7.3578,7.4086,7.2868,7.2326,7.2563,7.0669,6.9688,6.9553,6.8402,6.8876,7.0567,6.8571,6.9323,7.2016,7.0262,7.148,7.4718,7.7819,7.8111,7.8035,9.0658,9.6778,9.8519,9.8352,9.7022,9.4451,0.0,8.5783,0.0,0.0,0.0,0.0,0.0,0.0,0.0,0.0,0.0,0.0,0.0,0.0,0.0,6.5045,0.0,6.2048,0.0,0.0,0.0,0.0,0.0,0.0,0.0,0.0,0.0,0.0,0.0,0.0,0.0,0.0,0.0,0.0,0.0,0.0,0.0,0.0,6.9043,7.1075,7.1371,7.1205,7.0614,7.1705,7.2092,7.1713,7.2809,7.3188,7.2814,7.1615,7.1274,7.1648,7.1942,7.2755,7.3793,7.4605,7.5845,7.7474,7.8335,7.9652,8.1083,8.1474,8.2132,8.2835,8.1805,8.1393,8.1393,7.0195,7.2056,7.3477,7.4356,7.6758,7.9904,8.3828,8.9782,9.4755,9.736,9.9728,10.1792,10.3415,10.1183,9.8916,9.736,9.2252,8.826,8.623,8.0885,7.7367,7.6318,7.4356,7.395,7.5337,7.2902,7.2124,7.3206,7.0973,6.9823,6.9688,6.8707,6.9147,7.077,7.0026,7.1644,7.4939,7.4254,7.5658,7.8565,8.0108,8.1672,8.4051,9.299,9.8643,10.1521,9.8544,9.648,9.4146,8.7177,8.5579,0.0,8.3058,0.0,0.0,0.0,0.0,0.0,7.4187,0.0,0.0,0.0,0.0,0.0,0.0,0.0,0.0,0.0,0.0,0.0,0.0,0.0,0.0,0.0,0.0,0.0,0.0,0.0,0.0,0.0,0.0,0.0,0.0,0.0,0.0,0.0,0.0,0.0,6.8643,6.9193,6.9449,6.9579,7.1059,7.1884,7.1838,7.3299,7.4192,7.4487,7.2744,7.2205,7.268,7.269,7.2951,7.358,7.5006,7.6208,7.7276,7.8277,7.9581,8.0905,8.1543,8.2025,8.2246,8.1696,8.149,8.1538,6.8876,7.0939,7.2225,7.1582,7.6251,8.1629,8.6129,8.6433,8.8734,9.5973,9.5804,9.7191,10.2976,10.3483,10.4193,10.6291,10.1014,9.6988,9.5466,8.7753,8.0682,7.4931,0.0,7.4289,0.0,0.0,7.2394,7.2428,7.0229,6.9857,7.121,6.9755,7.0229,7.2293,7.1582,7.4445,7.9921,7.9178,8.3549,9.0867,9.0081,9.3412,9.8386,0.0,9.5551,10.0202,9.9322,0.0,0.0,9.1609,8.9341,0.0,0.0,0.0,0.0,0.0,0.0,0.0,0.0,0.0,0.0,7.4283,0.0,0.0,0.0,0.0,6.967,0.0,0.0,0.0,0.0,0.0,0.0,5.9564,0.0,0.0,0.0,0.0,0.0,0.0,0.0,0.0,0.0,0.0,0.0,0.0,0.0,0.0,6.575,6.5902,6.6059,6.6412,6.8298,6.9625,7.037,7.2746,7.394,7.3984,7.3253,7.2594,7.1918,7.1918,7.3465,7.6129,7.5766,7.7046,7.9373,7.9442,7.9522,7.9695,8.1224,8.181,8.1845,8.181,8.181,8.181,7.1616,7.3003,7.3612,7.2868,7.483,7.801,8.2509,8.5892,9.1,9.9491,10.1419,10.531,11.3733,11.2414,11.1399,11.2718,10.69,10.2096,9.966,9.2252,0.0,0.0,0.0,7.8213,0.0,0.0,0.0,7.3883,7.2124,7.1548,7.2022,7.1041,7.121,7.2428,7.3172,7.598,8.0378,8.3118,8.602,8.8992,9.1382,9.5845,10.0792,0.0,0.0,10.038,9.9124,9.6493,0.0,9.2387,8.9805,8.6982,8.6711,8.587,8.4705,8.3534,8.3585,0.0,0.0,0.0,8.2912,7.6582,0.0,0.0,0.0,0.0,0.0,0.0,0.0,0.0,0.0,0.0,6.2454,5.8864,5.8662,0.0,0.0,0.0,0.0,0.0,0.0,0.0,0.0,0.0,0.0,0.0,0.0,0.0,0.0,6.363,6.4457,6.5195,6.8267,7.0388,7.134,7.3986,7.5912,7.6861,7.5415,7.4839,7.5039,7.4573,7.4888,7.5848,7.6411,7.7148,7.8017,7.8017,7.8879,8.0293,8.081,8.1638,8.2466,8.1983,8.181,8.181,7.3544,7.3849,7.3916,7.4221,7.5574,7.8111,8.2611,8.7719,9.3909,10.1893,10.531,11.0215,11.8605,11.7387,11.6101,11.6609,11.2414,10.7509,10.2096,9.7258,0.0,8.9241,8.4911,0.0,0.0,0.0,0.0,0.0,7.4187,7.3443,7.3172,7.2157,7.1954,7.2529,7.5337,7.7942,8.0615,8.6704,8.9861,9.107,9.4437,9.8334,0.0,0.0,9.8864,9.9717,0.0,9.5425,9.2319,9.1812,8.9715,8.7279,8.7279,8.6318,8.4988,8.4062,8.4284,8.4302,8.1936,8.3213,0.0,7.8948,7.8672,0.0,7.4766,0.0,0.0,0.0,0.0,0.0,0.0,0.0,0.0,6.1941,6.0178,0.0,0.0,5.3761,0.0,0.0,0.0,0.0,0.0,0.0,0.0,0.0,0.0,0.0,0.0,0.0,6.2612,6.3922,6.7834,7.0568,7.1883,7.4305,7.621,7.7603,7.6262,7.554,7.5473,7.554,7.5439,7.5249,7.6599,7.7223,7.7258,7.7534,7.8672,8.0293,8.081,8.1638,8.25,8.2293,8.2017,8.181,7.4424,7.3578,7.3375,7.5506,7.8213,8.1596,8.6061,9.1169,9.6785,10.3009,10.717,11.1805,11.7928,11.8402,11.83,11.8402,11.7488,11.2989,10.3821,10.3009,0.0,0.0,8.8328,8.6366,8.3998,0.0,0.0,0.0,7.6149,7.5337,7.4695,7.3172,7.2428,7.2631,7.7841,8.0175,8.0784,8.9681,9.4789,9.7117,9.9249,10.098,10.1708,9.7301,9.6808,9.8274,9.675,9.3627,9.0222,9.0222,8.9241,8.8023,8.7922,8.7159,8.5811,8.3619,8.4711,8.5703,8.1723,8.2747,8.4224,8.144,0.0,0.0,0.0,0.0,7.8499,0.0,0.0,0.0,0.0,0.0,0.0,6.8187,6.4152,0.0,0.0,0.0,0.0,0.0,0.0,0.0,0.0,0.0,0.0,0.0,0.0,0.0,0.0,0.0,6.0459,6.2456,6.6844,7.0021,7.1835,7.3628,7.5036,7.6075,7.5786,7.4924,7.3489,7.4992,7.5296,7.4734,7.6439,7.7223,7.7292,7.8085,7.8879,7.9707,8.119,8.1776,8.1879,8.2604,8.2431,8.1845,7.4086,7.5709,7.757,7.8145,7.8416,7.987,8.3795,8.8801,9.5702,10.5614,11.1095,11.7015,12.4728,12.2596,12.1006,12.2123,11.8909,0.0,0.0,0.0,0.0,10.169,9.7428,9.3571,9.0222,8.6752,0.0,8.1799,0.0,7.556,7.6251,7.4187,7.2935,7.2597,7.7299,7.9701,8.0716,8.8564,9.3985,9.7379,9.8344,9.9668,0.0,0.0,9.6796,9.733,9.5593,9.3089,9.0505,9.0279,8.9579,8.8586,8.7145,8.6846,8.6802,8.5481,8.5789,8.6439,8.5783,8.5974,8.5873,8.3645,8.3156,8.25,0.0,0.0,0.0,0.0,0.0,0.0,0.0,0.0,0.0,0.0,0.0,0.0,0.0,0.0,0.0,0.0,0.0,0.0,0.0,0.0,0.0,0.0,0.0,0.0,0.0,0.0,0.0,6.0066,6.5632,6.9466,7.1292,7.3485,7.5012,7.5819,7.645,7.6267,7.5375,7.6381,7.6725,7.6553,7.6985,7.7223,7.7292,7.8085,7.9155,8.0362,8.0776,8.1293,8.181,8.2017,8.2328,8.2535,7.6082,7.9498,8.2002,8.0344,8.2408,8.4979,8.7076,9.0459,9.6108,10.531,11.1703,11.7218,12.2224,12.2529,12.2596,12.3104,12.0228,0.0,11.5086,0.0,0.0,10.5513,10.2198,9.8544,9.4451,9.0155,0.0,8.3998,0.0,7.6835,7.686,7.4897,7.3578,7.3071,7.7232,7.9329,8.0209,8.7651,9.3171,9.6827,9.6501,0.0,0.0,9.5397,9.4764,9.5121,9.2968,9.1425,9.0296,8.9623,8.9012,8.8273,8.7069,8.6889,8.712,8.692,8.7401,8.7916,8.7916,8.7813,8.7332,8.5865,8.5259,8.4501,8.2535,8.319,8.3811,0.0,0.0,0.0,0.0,0.0,0.0,0.0,0.0,0.0,0.0,0.0,0.0,0.0,0.0,0.0,0.0,0.0,0.0,0.0,0.0,0.0,0.0,0.0,0.0,5.8758,6.5294,6.9362,7.0569,7.3703,7.5039,7.4651,7.6403,7.6464,7.5154,7.6568,7.6799,7.6213,7.6903,7.7051,7.6809,7.7568,7.8568,7.9707,8.0362,8.1293,8.2328,8.2638,8.3018,8.3397,7.8991,8.3152,8.5418,8.2035,8.7516,9.2692,9.347,9.5398,9.8984,10.5174,11.1805,11.6203,11.6812,12.0803,12.3104,12.2292,0.0,11.8402,11.3801,11.5019,11.2921,10.6156,10.487,10.2299,9.8003,9.3291,0.0,0.0,0.0,7.8465,7.6995,7.5371,7.4255,7.3781,7.7266,7.9092,8.0006,8.6873,9.1917,9.5322,9.4335,9.4647,9.549,9.2639,9.2218,9.2759,9.0273,8.961,8.9853,8.8695,8.8101,8.775,8.7366,8.7241,8.7264,8.7865,8.8743,8.9433,8.8777,8.8501,8.826,8.757,8.6846,8.5949,8.4639,8.3811,8.3466,8.3914,8.1328,0.0,0.0,0.0,0.0,0.0,0.0,0.0,0.0,0.0,0.0,0.0,0.0,0.0,0.0,0.0,0.0,0.0,0.0,0.0,0.0,0.0,0.0,0.0,6.5314,0.0,7.0682,0.0,7.5321,7.3954,7.6119,7.6051,7.4016,7.6223,7.6386,7.511,7.6602,7.6844,7.6326,7.7051,7.7844,7.8672,8.0086,8.1431,8.2742,8.3776,8.4156,8.4259,7.9972,8.2205,8.3693,8.2441,8.7888,9.4079,9.9051,10.4193,10.8896,11.2482,11.8808,12.2799,12.2326,12.2495,12.219,12.0803,12.0431,0.0,0.0,0.0,0.0,11.2211,10.9572,10.6663,10.3382,9.7401,9.289,0.0,0.0,7.885,7.7739,7.5608,7.4559,7.4492,7.642,7.8991,8.2069,8.5892,0.0,9.1233,9.2781,9.3893,9.4413,9.2621,9.238,9.2813,9.0449,8.9929,9.0074,8.8403,8.816,8.8418,8.7364,8.7434,8.7899,8.759,8.8105,8.8743,8.8639,8.8122,8.7605,8.7467,8.6846,8.6225,8.5949,8.5811,8.5397,8.4259,8.3018,8.1086,7.7741,0.0,0.0,0.0,0.0,0.0,0.0,0.0,0.0,0.0,0.0,0.0,0.0,0.0,0.0,0.0,0.0,0.0,0.0,0.0,0.0,0.0,0.0,0.0,0.0,0.0,0.0,7.7159,7.7181,7.6317,7.4731,7.642,7.674,7.5947,7.6844,7.7154,7.7085,7.7879,7.8637,7.9396,8.0293,8.0776,8.1328,8.4018,8.4984,8.5018,8.3693,8.5148,8.6907,8.8497,9.4011,9.9863,10.4667,11.1196,11.4714,11.2685,11.5594,11.7793,11.7793,12.0601,12.219,12.1514,12.0736,12.0296,12.0262,11.7793,11.5323,11.309,11.0587,0.0,10.4769,9.8261,9.3316,9.0154,0.0,0.0,7.6758,7.5676,7.5168,7.5202,7.554,7.7773,8.1393,0.0,0.0,8.8438,9.0673,9.1926,9.2399,9.1675,9.1606,9.1709,9.0226,8.9846,8.9757,8.7949,8.7949,8.8499,8.7332,8.7642,8.8364,8.8554,8.8881,8.9088,8.8708,8.8019,8.7329,8.6949,8.657,8.6398,8.6777,8.657,8.6087,8.5363,8.4294,8.2224,7.8085,7.4499,0.0,0.0,0.0,0.0,0.0,0.0,0.0,0.0,0.0,0.0,0.0,0.0,0.0,0.0,0.0,0.0,0.0,0.0,0.0,0.0,0.0,0.0,0.0,0.0,0.0,7.6517,7.6999,7.6592,7.5524,7.6706,7.6809,7.6154,7.6913,7.7016,7.674,7.7913,7.9086,8.012,8.0465,8.1328,8.2604,8.4501,8.5432,8.5846,8.8192,8.9512,9.1711,9.5466,10.0811,10.5614,10.8896,11.5086,11.7624,11.282,11.309,11.3699,11.3699,11.8977,12.219,12.1582,12.0803,12.0195,11.9856,11.7319,11.4714,11.238,11.0384,10.8084,10.5174,9.8916,9.3639,0.0,0.0,0.0,0.0,7.5588,7.5398,0.0,0.0,0.0,0.0,0.0,8.35,8.6849,8.9175,9.0368,9.0812,9.0812,9.0812,9.0709,8.995,8.9812,8.9657,8.79,8.7796,8.8174,8.7349,8.7658,8.8467,8.9053,8.9329,8.9295,8.8536,8.7881,8.7225,8.6501,8.6294,8.6467,8.7053,8.6742,8.6225,8.588,8.4363,8.2086,7.8982,7.6637,0.0,0.0,0.0,0.0,0.0,0.0,0.0,0.0,0.0,0.0,0.0,0.0,0.0,0.0,0.0,5.5277,5.2921,5.6046,0.0,0.0,0.0,6.9711,7.2663,0.0,7.697,0.0,7.6828,7.6844,7.6154,7.6878,7.6809,7.6154,7.6913,7.6982,7.6706,7.7913,7.9293,8.0638,8.0983,8.219,8.3914,8.5018,8.5708,8.6191,9.2286,9.4146,9.6345,10.01,0.0,10.8219,10.9911,11.3632,11.671,11.8199,12.0195,12.0499,11.7894,12.0499,12.1412,11.8706,11.9586,11.9687,11.8402,11.671,11.4511,11.1602,11.0689,10.9099,10.6697,10.1419,9.6176,0.0,0.0,0.0,0.0,0.0,0.0,0.0,0.0,0.0,0.0,8.0853,8.3941,8.7195,8.9442,9.0548,9.0812,9.0812,9.0812,9.0709,8.995,9.0123,9.0467,8.8933,8.8053,8.7501,8.7382,8.7416,8.7536,8.7605,8.8122,8.8536,8.7743,8.7467,8.7225,8.6501,8.6294,8.6329,8.6398,8.6363,8.5915,8.4501,8.1948,7.9638,7.8603,7.7085,7.5464,0.0,0.0,0.0,0.0,0.0,0.0,0.0,0.0,0.0,0.0,0.0,0.0,0.0,0.0,5.5375,5.4429,5.5888,5.8269,6.1609,0.0,6.9407,7.5616,7.607,0.0,7.9074,7.7788,7.6844,7.6154,7.6878,7.6809,7.6154,7.6913,7.7603,7.8189,7.8361,7.9293,8.0741,8.2155,8.2845,8.3259,8.5432,8.5811,8.5397,0.0,0.0,0.0,0.0,0.0,0.0,0.0,11.5526,11.6812,11.7691,11.8605,11.8909,11.8199,11.918,11.9383,11.8199,11.8199,11.7793,11.6812,11.4917,11.2888,11.0824,10.9606,10.8118,10.6291,10.2908,9.7901,0.0,0.0,0.0,0.0,0.0,0.0,0.0,0.0,7.5994,7.9755,8.1464,8.4077,8.7281,8.9495,9.0548,9.0812,9.0812,9.0812,9.0778,9.0467,8.9985,8.9398,8.8812,8.8674,8.8708,8.826,8.8433,8.8777,8.8777,8.9019,8.9191,8.8881,8.8122,8.7329,8.7053,8.6639,8.6294,8.6294,8.6294,8.6018,8.4949,8.3018,8.1328,8.0569,7.9948,7.9017,0.0,0.0,0.0,0.0,0.0,0.0,0.0,0.0,0.0,0.0,0.0,0.0,0.0,0.0,0.0,5.5953,5.6956,0.0,6.2263,0.0,6.9005,7.4268,7.5495,7.6927,7.858,7.765,7.7085,7.6775,7.7085,7.7051,7.6809,7.7085,7.7913,7.9086,7.9086,8.0224,8.2052,8.2673,8.3742,8.5018,8.5466,8.6018,8.6501,10.3212,0.0,10.3889,0.0,11.0621,11.1602,11.6507,11.6913,11.6609,11.6609,11.6609,11.6812,11.7387,11.7624,11.7691,11.7421,11.671,11.5898,11.5222,11.3293,11.1501,11.0012,10.8727,0.0,10.6494,10.3889,9.9559,9.3571,9.0606,0.0,0.0,0.0,0.0,0.0,7.6588,7.861,8.2311,8.356,8.5547,8.8037,9.0101,9.086,9.0812,9.0812,9.0812,9.0812,9.0812,9.0123,8.9191,8.8984,8.926,8.9536,8.8536,8.8605,8.9088,8.9295,8.9364,8.9364,8.9364,8.8743,8.7984,8.7536,8.7018,8.657,8.6363,8.6294,8.6156,8.5639,8.4121,8.2811,8.25,8.1741,8.0707,0.0,0.0,0.0,0.0,0.0,0.0,0.0,0.0,6.0206,5.8217,0.0,0.0,0.0,0.0,0.0,0.0,0.0,0.0,0.0,0.0,0.0,0.0,7.4807,7.6548,7.8121,7.7512,7.7465,7.7913,7.7913,7.7913,7.7913,7.7913,7.8499,7.95,7.95,8.0741,8.2638,8.3052,8.4363,8.5984,8.588,8.6363,8.7018,10.4701,10.5716,10.8084,11.5492,11.5594,11.5391,11.7725,11.6812,11.5831,11.5831,11.5831,11.5831,11.5831,11.6507,11.6609,11.5898,11.5188,11.441,11.3699,11.2211,11.079,0.0,0.0,10.8016,10.8016,10.4396,10.1386,9.9018,0.0,0.0,8.6034,0.0,8.1022,8.0556,8.1362,8.2983,8.5294,8.757,8.8984,8.9812,9.1364,9.1502,9.0812,9.0812,9.0812,9.0812,9.0812,9.0812,9.0674,8.995,8.9709,8.9433,8.7915,8.7432,8.7605,8.8364,8.8605,8.8605,8.8605,8.9122,8.9295,8.7777,8.7398,8.7225,8.6467,8.6294,8.6294,8.6294,8.4501,8.3121,8.3845,8.1569,7.9293,7.8534,0.0,0.0,0.0,0.0,0.0,0.0,6.6911,6.5117,6.0599,0.0,0.0,0.0,0.0,0.0,0.0,0.0,0.0,6.2169,6.5842,0.0,7.2671,7.4154,7.6085,7.8396,7.7603,7.8017,7.95,7.95,7.95,7.95,7.95,7.95,7.95,7.95,8.0431,8.1948,8.3431,8.4501,8.5397,8.6846,8.6915,8.6329,10.7678,10.8896,11.0486,11.3395,11.4308,11.4917,11.5695,11.5797,11.6,11.6507,11.6507,11.6507,11.6507,11.6304,11.5898,0.0,11.4816,11.397,0.0,11.1196,11.0012,10.8422,10.7678,10.6798,10.5783,10.558,10.3179,9.8341,0.0,0.0,0.0,8.4174,8.3059,8.2983,8.4294,8.6122,8.8364,8.9571,9.0847,9.1985,9.1399,9.1364,9.1571,9.1019,9.0812,9.0812,9.0812,9.0157,8.9329,8.9605,8.9364,8.895,8.895,8.8984,8.9019,8.926,8.9709,9.0088,9.0088,8.9916,8.9571,8.9088,8.8191,8.7363,8.7122,8.6674,8.6018,8.4949,8.4156,8.3569,8.3328,8.2466,8.1603,8.0845,0.0,0.0,0.0,0.0,0.0,0.0,0.0,6.2898,0.0,6.1659,0.0,0.0,0.0,0.0,0.0,0.0,0.0,0.0,6.6308,0.0,7.2678,7.4154,7.6085,7.8396,7.8154,7.8568,7.95,7.8982,7.9017,7.95,7.95,7.981,8.0258,8.0258,8.1155,8.2673,8.3638,8.4501,8.5328,8.6294,8.6501,8.6294,10.8997,10.9911,11.1095,11.2583,11.3395,11.4072,11.4579,11.4883,11.512,11.5594,11.5695,11.5797,11.6,11.5425,0.0,11.4308,11.3496,11.2482,11.1095,11.0012,10.9031,10.8016,10.7306,10.6595,10.5986,0.0,0.0,10.0912,9.9549,9.6147,9.0851,8.8689,8.7779,8.7915,8.857,8.964,9.1019,9.1778,9.2502,9.3054,9.2364,9.2054,9.195,9.1433,9.1054,9.0812,9.0812,9.0226,8.9467,8.964,8.9398,8.9053,8.9226,8.9467,8.9743,9.0019,9.0054,9.0088,9.0674,9.0467,8.9985,8.9433,8.8777,8.8122,8.7536,8.6846,8.6122,8.5432,8.4604,8.3949,8.3811,8.2604,8.1466,8.1017,0.0,0.0,0.0,0.0,0.0,0.0,0.0,0.0,0.0,6.3486,0.0,0.0,0.0,0.0,0.0,0.0,0.0,6.6888,6.8113,0.0,7.4361,7.5016,7.6533,7.881,7.881,7.9051,7.95,7.9327,7.9638,8.0362,8.0362,8.0638,8.1052,8.0741,8.1672,8.3328,8.3535,8.4432,8.5673,8.6122,8.6294,8.6294,10.8794,10.9099,0.0,0.0,11.2786,0.0,11.4274,11.4004,11.3598,11.3699,11.3699,11.4004,11.468,11.4004,11.3496,11.3496,0.0,0.0,0.0,10.8828,10.8016,10.7915,10.7306,10.7204,10.7813,10.6595,10.5919,10.5817,10.1025,9.8625,9.8465,9.5446,9.4193,9.4399,9.3675,9.333,9.3365,9.4054,9.3951,9.3399,9.3951,9.3365,9.2157,9.2088,9.1571,9.0881,9.0881,9.0812,9.064,8.9985,8.9743,8.9605,8.895,8.9157,8.9778,9.0502,8.9778,8.9053,9.0433,9.0812,9.0467,8.9019,8.9122,8.9157,8.7674,8.6811,8.6501,8.7122,8.5604,8.4363,8.5018,8.219,7.9707,7.9534,7.6326,7.3084,7.0774,0.0,0.0,0.0,0.0,0.0,0.0,6.6359,6.6669,0.0,0.0,0.0,0.0,0.0,6.7816,6.9325,7.0808,7.336,7.712,7.6464,7.7258,7.95,7.95,7.9569,7.9707,8.0396,8.1121,8.1879,8.1948,8.1948,8.1879,8.1155,8.2121,8.3949,8.3328,8.4363,8.6225,8.6294,8.6294,8.6294,0.0,0.0,10.8896,11.079,11.0925,11.1095,11.2008,11.2989,11.3801,11.4376,11.441,11.4714,11.5492,11.3902,11.2786,11.2786,11.1771,11.0418,10.8693,10.8219,10.7712,10.7204,10.7509,10.7001,10.5479,10.6798,10.6934,10.5817,10.2009,10.031,10.0471,9.7721,9.6256,9.5951,9.5779,9.571,9.5675,9.5296,9.5331,9.5572,9.402,9.3537,9.3675,9.3054,9.2364,9.1709,9.1709,9.095,9.0019,9.0433,9.0157,8.9778,9.0157,8.964,8.9019,8.9743,9.0123,9.0364,9.0709,9.0812,9.0571,8.9674,8.8708,8.7708,8.6777,8.6432,8.6191,8.5811,8.5742,8.5466,8.4466,8.3087,8.1535,7.9776,7.6775,7.3843,7.1567,0.0,0.0,0.0,6.7187,6.7152,6.4669,6.6669,6.798,0.0,0.0,0.0,0.0,0.0,7.0905,7.0153,7.1601,7.3671,7.6361,7.6223,7.7258,7.95,7.95,8.012,8.1259,8.1431,8.1948,8.2673,8.3225,8.35,8.3466,8.3293,8.3535,8.4052,8.4501,8.4984,8.5535,8.6087,8.6294,8.6294,10.7915,10.8321,10.8896,11.0114,11.0892,11.1196,11.0925,11.2109,11.2989,11.2718,11.2989,11.3496,11.4207,11.2583,11.1501,11.1501,11.079,10.9877,10.8625,10.7915,10.7306,10.69,10.761,10.7407,10.6223,10.7407,10.7306,10.5817,10.2868,10.1927,10.2733,10.0497,9.9382,9.9055,9.8366,9.7848,9.7503,9.6745,9.6469,9.64,9.5158,9.4503,9.4227,9.3813,9.3158,9.2502,9.2502,9.195,9.1261,9.133,9.1088,9.0709,9.0398,8.9985,8.964,8.9674,8.9743,8.995,9.064,9.0812,9.064,8.9881,8.8536,8.7294,8.6915,8.6536,8.6191,8.5777,8.5742,8.5432,8.4225,8.2569,8.0707,7.8775,7.5602,7.2567,7.0256,6.9187,0.0,6.6566,6.8635,6.9428,6.7497,6.936,7.0291,6.936,0.0,0.0,7.0946,7.305,7.3533,7.1981,7.3429,7.5188,7.7154,7.7154,7.7775,7.8982,7.8637,7.9258,8.0776,8.1121,8.1672,8.2466,8.3535,8.4225,8.4535,8.4156,8.4432,8.5052,8.5156,8.5397,8.5742,8.6156,8.6294,8.6294,10.7712,10.8388,10.9099,10.9809,11.1196,11.1771,11.0621,11.1703,11.2177,11.0993,11.1196,11.1771,11.2279,11.1095,11.0283,11.0114,10.9471,10.8963,10.8862,10.761,10.69,10.7069,10.7813,10.8016,10.7712,10.734,10.6731,10.5817,10.3483,10.3061,10.4612,10.2938,10.2212,10.2091,10.078,9.9745,9.8917,9.8297,9.7503,9.6676,9.6538,9.5675,9.4468,9.4468,9.3951,9.3261,9.3261,9.3123,9.2847,9.233,9.2019,9.1606,9.0433,9.0329,9.0536,9.0019,8.9329,8.9053,9.0433,9.0743,9.0467,8.9709,8.8467,8.7363,8.726,8.6777,8.6294,8.6294,8.588,8.5259,8.4363,8.181,7.9327,7.7672,7.4085,7.0808,6.8877,0.0,6.8877,6.7807,7.0739,7.2395,7.1187,7.2705,7.2912,7.0808,7.2057,0.0,0.0,7.4636,7.574,7.4188,7.574,7.7189,7.8396,7.8499,7.8568,7.8568,7.8017,7.8534,8.0051,8.0672,8.1466,8.2397,8.3638,8.4639,8.5294,8.4639,8.5121,8.626,8.5604,8.5742,8.6294,8.6294,8.6294,8.6294,10.7001,10.717,10.7509,10.8219,10.9606,11.079,11.1196,11.2482,11.3327,11.3124,11.2583,11.2076,11.1602,11.079,11.0012,10.9403,10.8625,10.7915,10.7306,10.7001,10.7204,10.7813,10.8591,10.8084,10.6223,10.4329,10.4193,10.5817,10.2976,10.2615,10.4578,10.2392,10.1698,10.2194,10.1884,10.109,9.9711,9.9607,9.8745,9.7434,9.6779,9.5986,9.5227,9.5227,9.4744,9.4089,9.4089,9.3261,9.2261,9.2744,9.2054,9.1054,9.1502,9.0812,8.9985,9.0502,9.0123,8.9709,9.0571,9.0364,8.9709,8.895,8.8088,8.726,8.6605,8.6398,8.6294,8.6294,8.6708,8.6639,8.5259,8.3052,8.0741,7.8568,7.443,7.136,0.0,0.0,6.967,7.067,7.2464,7.3774,7.4145,7.3947,7.4671,7.6844,7.4878,7.4361,7.6051,7.7361,7.7361,7.5809,7.7844,7.881,7.8396,7.9017,7.9327,7.9362,7.9844,8.0879,8.2397,8.25,8.3328,8.4673,8.4915,8.5432,8.6122,8.5984,8.6087,8.6294,8.6191,8.6191,8.6294,8.6294,8.6294,8.6294,10.6798,10.7204,10.761,10.7915,10.9606,11.0722,11.0283,11.1771,11.2685,11.1906,11.1873,11.1602,11.0892,11.0114,10.9403,10.8591,10.8219,10.7915,10.7778,10.7237,10.7204,10.8016,10.8794,10.8693,10.7678,10.5411,10.4802,10.5817,10.399,10.3702,10.4612,10.3895,10.331,10.278,10.2366,10.1573,10.0504,10.009,9.9055,9.7641,9.7296,9.6434,9.54,9.54,9.5193,9.4882,9.4882,9.4434,9.3813,9.3744,9.3261,9.2675,9.2606,9.1813,9.1019,9.1364,9.0916,9.0364,9.0709,9.0571,9.0123,8.9364,8.8915,8.8467,8.7708,8.7191,8.6915,8.6915,8.6846,8.6501,8.5397,8.2673,8.05,8.0258,7.5326,0.0,0.0,7.205,7.136,7.205,7.3843,7.5188,7.5533,7.5602,7.6223,7.7672,7.643,7.6292,7.7775,7.8223,7.8465,7.8534,7.8775,7.8741,7.8396,7.9155,7.9707,8.012,8.0465,8.1224,8.2328,8.2742,8.3293,8.4018,8.4846,8.5397,8.5742,8.6156,8.6294,8.6294,8.6294,8.6294,8.6294,8.6294,8.6294,8.6294,10.7272,10.7712,10.8016,10.8016,10.9606,11.0486,10.9369,11.0892,11.1805,11.0689,11.1027,11.1095,11.0114,10.9505,10.8896,10.8118,10.8016,10.822,10.8694,10.7881,10.7813,10.8626,10.8829,10.8896,10.8896,10.6595,10.5376,10.531,10.4528,10.4208,10.4612,10.4817,10.4338,10.3298,10.2677,10.178,10.078,10.0366,9.9297,9.7917,9.7745,9.6986,9.5882,9.5537,9.5606,9.5882,9.571,9.5641,9.5572,9.4986,9.4572,9.4192,9.3572,9.2847,9.2261,9.2261,9.1813,9.1295,9.1123,9.1088,9.0847,8.9916,8.9709,8.9502,8.8777,8.8122,8.7639,8.7467,8.6949,8.6294,8.5363,8.2535,8.0465,8.0948,0.0,0.0,0.0,7.3774,7.3119,7.3671,7.5775,7.7085,7.6913,7.7741,7.8292,7.8292,7.8292,7.8465,7.8913,7.9258,7.9913,8.0879,7.9776,7.9189,7.9189,7.9913,8.05,8.0879,8.1259,8.181,8.2604,8.2811,8.319,8.3742,8.457,8.5121,8.5501,8.6087,8.6294,8.6294,8.6294,8.6294,8.6294,8.6294,8.6294,8.6294,10.8896,10.849,10.8016,10.8016,10.8794,10.9302,10.92,11.0486,11.1399,11.1298,11.1399,11.0892,10.9403,10.92,10.8896,10.8118,10.8016,10.8321,10.91,10.9133,10.9473,11.0494,10.9033,10.8118,10.8118,10.5606,10.4113,10.3787,10.2688,10.3,10.4612,10.328,10.2898,10.3298,10.3194,10.1987,9.9987,10.0676,10.009,9.8642,9.7952,9.7607,9.7365,9.5917,9.6262,9.74,9.6676,9.64,9.64,9.6365,9.5434,9.4261,9.4227,9.3641,9.302,9.302,9.2985,9.2778,9.2088,9.1916,9.1571,9.0054,8.9709,8.9502,8.8777,8.8536,8.8295,8.757,8.7363,8.688,8.5466,8.3811,8.1776,7.9086,0.0,0.0,7.4869,7.4223,7.4499,7.6637,7.8913,8.0017,7.9327,8.0603,8.1466,8.1466,8.1466,8.1155,8.05,8.181,8.2328,8.1741,8.1603,8.1569,8.1569,8.2293,8.2328,8.1741,8.3121,8.419,8.4915,8.3535,8.4052,8.5984,8.4673,8.4915,8.6225,8.6294,8.6294,8.6294,8.6294,8.6294,8.6294,8.6294,8.6294,8.6294,10.8963,10.8591,10.8016,10.8016,10.8287,10.849,10.849,10.9708,11.0892,11.1298,11.0993,11.0689,11.0587,10.9708,10.9065,10.8794,10.92,10.9573,11.0187,11.0421,11.0591,11.0834,10.9203,10.8727,10.9337,10.5936,10.448,10.5267,10.3902,10.3716,10.4612,10.3998,10.3618,10.3298,10.278,10.1884,10.0608,10.0401,9.9745,9.878,9.8469,9.809,9.7572,9.6503,9.6745,9.7572,9.6779,9.6814,9.7227,9.7227,9.7158,9.6917,9.5951,9.5434,9.502,9.4089,9.3813,9.3778,9.3503,9.2709,9.1847,9.1261,9.0743,9.0329,9.0019,8.9605,8.9191,8.8881,8.8088,8.7225,8.6674,8.457,8.3156,8.388,0.0,7.843,8.0293,7.8706,7.7672,7.8534,7.9396,7.981,7.9534,8.0465,8.1086,8.1086,8.1535,8.1672,8.1362,8.2328,8.2776,8.25,8.2949,8.2949,8.25,8.3225,8.3466,8.319,8.4259,8.4915,8.519,8.4604,8.4811,8.5604,8.5018,8.5087,8.5639,8.6122,8.6294,8.6294,8.6294,8.6294,8.6294,8.6294,8.6294,8.6294,10.8963,10.8896,10.8727,10.8727,10.8524,10.8388,10.8388,10.9302,11.0215,11.0993,11.0621,11.0519,11.0993,11.0181,10.9505,10.9505,11.0012,11.0352,11.0594,11.1034,11.1204,11.1106,10.9609,10.9096,10.9806,10.6294,10.487,10.5827,10.4597,10.4208,10.4397,10.4397,10.3989,10.3298,10.278,10.1987,10.1114,10.0504,9.9814,9.9124,9.8883,9.8607,9.8262,9.7262,9.7503,9.8262,9.7503,9.771,9.8331,9.809,9.8366,9.8573,9.7262,9.6883,9.6572,9.5055,9.4813,9.4917,9.471,9.3675,9.264,9.2399,9.1916,9.1468,9.1226,9.0778,9.0295,8.9812,8.8881,8.8053,8.7812,8.588,8.4777,8.6122,8.3087,8.1224,8.3052,8.1535,8.0224,8.0224,8.0638,8.0638,7.9913,8.0741,8.1259,8.1017,8.1707,8.2259,8.25,8.3225,8.3638,8.3638,8.4363,8.4501,8.3983,8.4259,8.4397,8.4397,8.519,8.5535,8.5535,8.5294,8.5328,8.5535,8.5294,8.5328,8.557,8.6087,8.6294,8.6294,8.6294,8.6294,8.6294,8.6294,8.6294,8.6294,10.9166,10.9775,11.0316,11.0316,10.9674,10.9166,10.9166,10.9166,10.9471,11.0215,11.0316,11.0316,11.0316,11.0316,11.0316,11.0316,11.0316,11.0316,11.0316,11.0594,11.1106,11.1888,11.0083,10.9122,10.9122,10.6503,10.4893,10.4612,10.4173,10.4016,10.4016,10.4016,10.3788,10.3298,10.3298,10.247,10.109,10.109,10.0608,9.9849,9.909,9.9228,9.9745,9.8262,9.8607,9.978,9.9055,9.9262,9.978,9.9055,9.8814,9.8676,9.7917,9.7676,9.7365,9.5848,9.5917,9.6331,9.5606,9.4882,9.4123,9.333,9.3123,9.2916,9.2157,9.1985,9.1571,9.0019,8.9709,8.9467,8.8743,8.795,8.6674,8.4397,8.3431,8.2673,8.1948,8.1845,8.1845,8.1845,8.3121,8.3121,8.0845,8.2017,8.2604,8.1845,8.25,8.3225,8.3983,8.4777,8.519,8.519,8.5915,8.6294,8.6294,8.557,8.519,8.5225,8.5949,8.6294,8.6294,8.5535,8.5604,8.626,8.5535,8.5639,8.6294,8.6294,8.6294,8.6294,8.6294,8.6294,8.6294,8.6294,8.6294,8.6294,10.7576,10.8591,10.9369,10.8794,10.8997,10.9166,10.9166,10.9606,11.0215,11.0993,11.0621,11.0689,11.1703,11.0892,11.0519,11.0993,11.1095,11.1234,11.1375,11.1311,11.1173,11.1134,10.9291,10.8912,11.0204,10.639,10.4812,10.5681,10.4606,10.4016,10.4016,10.4016,10.4097,10.4091,10.3574,10.278,10.178,10.1297,10.0608,9.9883,9.9642,9.9676,9.978,9.8814,9.9055,9.978,9.9055,9.9262,9.9849,9.9642,9.9952,10.0263,9.9469,9.8504,9.7572,9.7124,9.7158,9.7262,9.7055,9.6814,9.6365,9.502,9.3882,9.2916,9.2157,9.1985,9.1709,9.0674,9.0054,8.964,8.9398,8.8743,8.7846,8.6605,8.6225,8.5811,8.5052,8.4501,8.419,8.419,8.4087,8.3535,8.2328,8.2638,8.2811,8.2604,8.3259,8.3776,8.4018,8.4777,8.519,8.519,8.5915,8.6294,8.6294,8.6087,8.5984,8.5984,8.6191,8.6294,8.6294,8.6087,8.6087,8.6294,8.6087,8.6087,8.6294,8.6294,8.6294,8.6294,8.6294,8.6294,8.6294,8.6294,8.6294,8.6294,10.6088,10.7272,10.8084,10.761,10.849,10.9166,10.9166,11.008,11.0892,11.1298,11.0993,11.1095,11.1974,11.1298,11.0892,11.1399,11.1302,11.1409,11.1888,11.1584,11.1443,11.1371,10.9317,10.8624,10.9634,10.6023,10.4785,10.5989,10.4785,10.42,10.42,10.42,10.4288,10.4531,10.3988,10.3367,10.2573,10.216,10.1366,10.0366,10.0366,10.0194,9.9849,9.94,9.9504,9.9849,9.94,9.9504,9.9883,9.9883,10.0194,10.0504,10.009,9.9297,9.8504,9.8193,9.8124,9.8124,9.8124,9.7917,9.7469,9.6538,9.5365,9.4158,9.3123,9.2882,9.2606,9.1502,9.0916,9.0502,9.0192,8.9536,8.8881,8.8398,8.8053,8.7605,8.6846,8.6363,8.5846,8.5259,8.4777,8.419,8.3431,8.3362,8.3362,8.3362,8.4052,8.4466,8.4466,8.5225,8.5639,8.5639,8.6087,8.6294,8.6294,8.6294,8.6294,8.6294,8.6294,8.6294,8.6294,8.6294,8.6294,8.6294,8.6294,8.6294,8.6294,8.6294,8.6294,8.6294,8.6294,8.6294,8.6294,8.6294,8.6294,8.6294,10.4599,10.5682,10.6798,10.6697,10.7982,10.9099,10.9099,11.0283,11.1264,11.1399,11.1298,11.1365,11.1501,11.1399,11.1399,11.1399,11.1002,11.1072,11.1889,11.1686,11.1684,11.2401,10.9893,10.8293,10.7816,10.5609,10.4884,10.5712,10.4884,10.447,10.447,10.447,10.447,10.447,10.447,10.4057,10.3298,10.3298,10.2401,10.109,10.109,10.0573,9.9883,9.9883,9.9883,9.9883,9.9883,9.9883,9.9883,9.9883,9.9883,9.9883,9.9883,9.9883,9.9745,9.909,9.8883,9.8883,9.8883,9.84,9.7848,9.7779,9.7227,9.6262,9.4641,9.4296,9.3847,9.2399,9.2054,9.1778,9.1054,9.0295,8.9778,8.9709,8.9122,8.8433,8.7639,8.7501,8.6984,8.557,8.5397,8.5018,8.4121,8.3949,8.3949,8.4018,8.4742,8.5225,8.5294,8.5949,8.6294,8.6294,8.6294,8.6294,8.6294,8.6294,8.6294,8.6294,8.6294,8.6294,8.6294,8.6294,8.6294,8.6294,8.6294,8.6294,8.6294,8.6294,8.6294,8.6294,8.6294,8.6294,8.6294,8.6294,8.6294,8.6294,10.3111,10.4599,10.5885,10.5276,10.69,10.8287,10.8287,10.9099,11.008,11.1196,11.0892,11.0993,11.2076,11.1703,11.1399,11.1399,11.1002,11.1413,11.2707,11.219,11.1671,11.1556,10.9762,10.8339,10.7023,10.5298,10.5091,10.6505,10.5091,10.447,10.447,10.447,10.447,10.447,10.447,10.4057,10.3298,10.3298,10.2401,10.109,10.109,10.0573,9.9883,9.9883,9.9883,9.9883,9.9883,9.9883,9.9883,9.9883,9.9883,9.9883,9.9883,9.9883,9.9849,9.9711,9.9642,9.9642,9.9642,9.9538,9.9262,9.8711,9.84,9.7572,9.4882,9.4296,9.402,9.3054,9.2399,9.195,9.1778,9.1088,9.0364,8.9778,8.9571,8.9191,8.8467,8.8329,8.7984,8.7053,8.6915,8.6156,8.419,8.35,8.3397,8.3983,8.4742,8.5466,8.6018,8.6225,8.6294,8.6294,8.6294,8.6294,8.6294,8.6294,8.6294,8.6294,8.6294,8.6294,8.6294,8.6294,8.6294,8.6294,8.6294,8.6294,8.6294,8.6294,8.6294,8.6294,8.6294,8.6294,8.6294,8.6294,8.6294,8.6294,10.2603,10.3415,10.4092,10.3686,10.5513,10.7001,10.7001,10.8185,10.9471,11.0181,11.0012,11.0181,11.1298,11.1095,11.1097,11.1611,11.1788,11.2196,11.2874,11.2456,11.1897,11.1334,10.9506,10.8126,10.7333,10.5471,10.4884,10.5678,10.4884,10.447,10.447,10.447,10.447,10.447,10.447,10.4324,10.3884,10.3884,10.2987,10.1573,10.1194,10.0573,9.9849,9.9504,9.9573,9.9883,9.9883,9.9883,9.9849,9.9469,9.9607,9.9883,9.9883,9.9883,9.9883,9.9883,9.9883,9.9883,9.9883,9.9883,9.9711,9.8952,9.878,9.8262,9.6331,9.5606,9.502,9.3882,9.3365,9.2744,9.164,9.1675,9.1537,9.0398,9.0536,9.0398,8.9295,8.9122,8.8846,8.8053,8.7329,8.6122,8.419,8.3673,8.3742,8.4535,8.4949,8.5363,8.5742,8.5777,8.5777,8.5777,8.5777,8.5949,8.6294,8.6294,8.6294,8.6294,8.6294,8.6294,8.6294,8.6294,8.6294,8.6294,8.6294,8.6294,8.6294,8.6294,8.6294,8.6294,8.6294,8.6294,8.6294,8.6294,8.6294,8.6294,10.2502,10.2502,10.2502,10.2705,10.4295,10.5682,10.5817,10.7509,10.8896,10.9166,10.9065,10.9268,11.0284,11.0386,11.0831,11.1992,11.2606,11.2977,11.3111,11.2482,11.192,11.1299,10.9023,10.7712,10.7712,10.5574,10.4634,10.4677,10.4634,10.447,10.447,10.447,10.447,10.447,10.447,10.447,10.447,10.447,10.3574,10.2091,10.1504,10.0676,9.9814,9.9193,9.9366,9.9918,10.009,10.0194,10.0194,9.9435,9.9573,10.009,9.9918,9.9814,9.9711,9.9711,9.9711,9.9711,9.9711,9.978,9.9745,9.9124,9.8986,9.8814,9.8193,9.7262,9.6158,9.4917,9.4468,9.3709,9.1744,9.233,9.2675,9.1399,9.164,9.1537,9.026,8.9985,8.9605,8.8881,8.7432,8.5984,8.4708,8.4501,8.4673,8.5328,8.5397,8.5397,8.5397,8.5397,8.5397,8.5397,8.5397,8.5673,8.6294,8.6294,8.6294,8.6294,8.6294,8.6294,8.6294,8.6294,8.6294,8.6294,8.6294,8.6294,8.6294,8.6294,8.6294,8.6294,8.6294,8.6294,8.6294,8.6294,8.6294,8.6294,10.2502,10.2502,10.2705,10.3314,10.4193,10.5073,10.5716,10.6595,10.7678,10.8997,10.8591,10.8829,11.0493,11.0732,11.1311,11.274,11.2708,11.2809,11.3478,11.2165,11.1403,11.1299,10.8437,10.6919,10.6919,10.5298,10.4781,10.5505,10.4781,10.447,10.447,10.447,10.447,10.447,10.447,10.447,10.447,10.447,10.3574,10.2194,10.2091,10.1194,9.9883,9.978,9.9814,9.9987,10.0676,10.1297,10.178,10.0987,10.0942,10.078,10.009,9.9435,9.8952,9.8952,9.8952,9.8952,9.8952,9.94,9.9883,9.978,9.9745,9.9711,9.9607,9.7986,9.6434,9.6227,9.5193,9.4192,9.3882,9.3434,9.302,9.2813,9.233,9.1916,9.1709,9.1088,9.0398,8.964,8.8191,8.7191,8.6984,8.6363,8.6053,8.6156,8.6156,8.6156,8.6156,8.6156,8.6156,8.6156,8.6156,8.6191,8.6294,8.6294,8.6294,8.6294,8.6294,8.6294,8.6294,8.6294,8.6294,8.6294,8.6294,8.6294,8.6294,8.6294,8.6294,8.6294,8.6294,8.6294,8.6294,8.6294,8.6294,8.6294,10.2502,10.2502,10.2603,10.2908,10.3889,10.4769,10.5107,10.6189,10.7103,10.7779,10.761,10.7915,10.9373,11.0288,11.0897,11.1373,11.2085,11.2113,11.1353,11.1273,11.0713,10.9506,10.8126,10.7023,10.6126,10.5436,10.5091,10.4988,10.4677,10.447,10.447,10.447,10.447,10.447,10.447,10.447,10.4531,10.3988,10.3401,10.2711,10.1884,10.1159,10.0504,10.009,10.0194,10.0573,10.047,10.009,9.9745,10.0263,10.0401,10.0504,10.0987,10.0366,9.94,9.94,9.8814,9.8159,9.8159,9.8711,9.9262,9.9262,9.9573,9.9883,9.9883,9.878,9.74,9.6124,9.4675,9.3503,9.3089,9.3434,9.3606,9.3158,9.3192,9.2985,9.2123,9.1675,9.0881,8.9295,8.8467,8.7743,8.688,8.6122,8.6018,8.6846,8.6536,8.6294,8.6294,8.6294,8.6122,8.5708,8.5673,8.588,8.6294,8.6294,8.6501,8.6915,8.6501,8.6294,8.6294,8.6294,8.6294,8.6294,8.6294,8.6294,8.6294,8.6294,8.6294,8.6294,8.6294,8.6294,8.6294,8.6294,8.6294,8.6294]}]]